<?xml version="1.0" encoding="UTF-8" standalone="no" ?>
<gpx xmlns="http://www.topografix.com/GPX/1/1" xmlns:xsi="http://www.w3.org/2001/XMLSchema-instance" xsi:schemaLocation="http://www.topografix.com/GPX/1/1 http://www.topografix.com/GPX/1/1/gpx.xsd" version="1.1" creator="VisuGPX - https://www.visugpx.com">
  <metadata>
    <name>2015-08-17 Bike ride-Amberieux to Villars then Ain Circuit No 18</name>
    <desc><![CDATA[2015-08-17 Bike ride-Amberieux to Villars then Ain Circuit No 18]]></desc>
  </metadata>
  <wpt lat="45.92459" lon="4.73717">
    <ele>149.1</ele>
    <name><![CDATA[2015-08-17 10:51 (Start)]]></name>
  </wpt>
  <wpt lat="45.92461" lon="4.73709">
    <ele>158.1</ele>
    <name><![CDATA[2015-08-17 10:51 (End)]]></name>
    <desc><![CDATA[Created by Google My Tracks on Android  Name: 2015-08-17 10:51 Activity type: biking Description: - Total distance: 112.78 km (70.1 mi) Total time: 5:55:36 Moving time: 5:24:05 Average speed: 19.03 km/h (11.8 mi/h) Average moving speed: 20.88 km/h (13.0 mi/h) Max speed: 40.88 km/h (25.4 mi/h) Average pace: 3:09 min/km (5:04 min/mi) Average moving pace: 2:52 min/km (4:37 min/mi) Fastest pace: 1:28 min/km (2:22 min/mi) Max elevation: 311 m (1019 ft) Min elevation: 149 m (489 ft) Elevation gain: 1280 m (4199 ft) Max grade: 28 % Min grade: -26 % Recorded: 17/08/2015 10:51]]></desc>
  </wpt>
  <trk>
    <name><![CDATA[2015-08-17 10:51]]></name>
    <trkseg>
      <trkpt lat="45.92459" lon="4.73717">
        <ele>149.100006104</ele>
        <time>2015-08-17T08:51:32.45Z</time>
      </trkpt>
      <trkpt lat="45.92456" lon="4.73695">
        <ele>161.600006104</ele>
        <time>2015-08-17T08:51:42.965Z</time>
      </trkpt>
      <trkpt lat="45.92455" lon="4.73709">
        <ele>159.300003052</ele>
        <time>2015-08-17T08:51:47.011Z</time>
      </trkpt>
      <trkpt lat="45.92463" lon="4.73715">
        <ele>169.399993896</ele>
        <time>2015-08-17T08:52:57.962Z</time>
      </trkpt>
      <trkpt lat="45.9247" lon="4.73708">
        <ele>169.899993896</ele>
        <time>2015-08-17T08:53:02.98Z</time>
      </trkpt>
      <trkpt lat="45.92468" lon="4.73697">
        <ele>170.800003052</ele>
        <time>2015-08-17T08:53:05.964Z</time>
      </trkpt>
      <trkpt lat="45.92474" lon="4.73662">
        <ele>171</ele>
        <time>2015-08-17T08:53:11.932Z</time>
      </trkpt>
      <trkpt lat="45.92482" lon="4.73651">
        <ele>171.199996948</ele>
        <time>2015-08-17T08:53:14.933Z</time>
      </trkpt>
      <trkpt lat="45.92524" lon="4.7365">
        <ele>170.699996948</ele>
        <time>2015-08-17T08:53:24.933Z</time>
      </trkpt>
      <trkpt lat="45.92577" lon="4.73641">
        <ele>170.300003052</ele>
        <time>2015-08-17T08:53:35.973Z</time>
      </trkpt>
      <trkpt lat="45.92602" lon="4.73634">
        <ele>170.100006104</ele>
        <time>2015-08-17T08:53:40.972Z</time>
      </trkpt>
      <trkpt lat="45.92611" lon="4.73638">
        <ele>170.600006104</ele>
        <time>2015-08-17T08:53:43.005Z</time>
      </trkpt>
      <trkpt lat="45.92637" lon="4.73685">
        <ele>169.699996948</ele>
        <time>2015-08-17T08:53:49.932Z</time>
      </trkpt>
      <trkpt lat="45.92652" lon="4.73699">
        <ele>169.600006104</ele>
        <time>2015-08-17T08:53:53.055Z</time>
      </trkpt>
      <trkpt lat="45.92685" lon="4.73716">
        <ele>170.800003052</ele>
        <time>2015-08-17T08:53:58.983Z</time>
      </trkpt>
      <trkpt lat="45.92755" lon="4.7373">
        <ele>172.5</ele>
        <time>2015-08-17T08:54:11.929Z</time>
      </trkpt>
      <trkpt lat="45.92777" lon="4.7374">
        <ele>174.100006104</ele>
        <time>2015-08-17T08:54:17.959Z</time>
      </trkpt>
      <trkpt lat="45.92783" lon="4.73751">
        <ele>173.899993896</ele>
        <time>2015-08-17T08:54:20.936Z</time>
      </trkpt>
      <trkpt lat="45.92839" lon="4.73789">
        <ele>174.800003052</ele>
        <time>2015-08-17T08:54:32.974Z</time>
      </trkpt>
      <trkpt lat="45.92852" lon="4.73803">
        <ele>175.199996948</ele>
        <time>2015-08-17T08:54:35.938Z</time>
      </trkpt>
      <trkpt lat="45.92873" lon="4.73874">
        <ele>176.600006104</ele>
        <time>2015-08-17T08:54:45.978Z</time>
      </trkpt>
      <trkpt lat="45.92877" lon="4.73881">
        <ele>176.399993896</ele>
        <time>2015-08-17T08:54:47.081Z</time>
      </trkpt>
      <trkpt lat="45.92883" lon="4.73944">
        <ele>176</ele>
        <time>2015-08-17T08:54:55.099Z</time>
      </trkpt>
      <trkpt lat="45.92883" lon="4.73974">
        <ele>175.699996948</ele>
        <time>2015-08-17T08:54:58.964Z</time>
      </trkpt>
      <trkpt lat="45.92871" lon="4.74029">
        <ele>177</ele>
        <time>2015-08-17T08:55:06.973Z</time>
      </trkpt>
      <trkpt lat="45.9286" lon="4.74046">
        <ele>176.899993896</ele>
        <time>2015-08-17T08:55:09.927Z</time>
      </trkpt>
      <trkpt lat="45.92746" lon="4.74177">
        <ele>175.899993896</ele>
        <time>2015-08-17T08:55:33.109Z</time>
      </trkpt>
      <trkpt lat="45.92693" lon="4.74261">
        <ele>175.399993896</ele>
        <time>2015-08-17T08:55:45.091Z</time>
      </trkpt>
      <trkpt lat="45.92532" lon="4.74548">
        <ele>175.399993896</ele>
        <time>2015-08-17T08:56:21.933Z</time>
      </trkpt>
      <trkpt lat="45.92479" lon="4.74614">
        <ele>175.5</ele>
        <time>2015-08-17T08:56:31.924Z</time>
      </trkpt>
      <trkpt lat="45.92445" lon="4.74673">
        <ele>175.800003052</ele>
        <time>2015-08-17T08:56:39.937Z</time>
      </trkpt>
      <trkpt lat="45.92427" lon="4.74717">
        <ele>175.699996948</ele>
        <time>2015-08-17T08:56:45.011Z</time>
      </trkpt>
      <trkpt lat="45.92413" lon="4.74762">
        <ele>175.699996948</ele>
        <time>2015-08-17T08:56:49.918Z</time>
      </trkpt>
      <trkpt lat="45.92392" lon="4.74852">
        <ele>175.5</ele>
        <time>2015-08-17T08:56:58.989Z</time>
      </trkpt>
      <trkpt lat="45.92332" lon="4.74997">
        <ele>174.800003052</ele>
        <time>2015-08-17T08:57:17.006Z</time>
      </trkpt>
      <trkpt lat="45.9232" lon="4.75022">
        <ele>174.600006104</ele>
        <time>2015-08-17T08:57:19.932Z</time>
      </trkpt>
      <trkpt lat="45.92288" lon="4.7507">
        <ele>174.5</ele>
        <time>2015-08-17T08:57:26.963Z</time>
      </trkpt>
      <trkpt lat="45.92241" lon="4.75124">
        <ele>174.899993896</ele>
        <time>2015-08-17T08:57:35.932Z</time>
      </trkpt>
      <trkpt lat="45.92227" lon="4.75145">
        <ele>175.100006104</ele>
        <time>2015-08-17T08:57:38.965Z</time>
      </trkpt>
      <trkpt lat="45.92219" lon="4.75164">
        <ele>175.399993896</ele>
        <time>2015-08-17T08:57:40.966Z</time>
      </trkpt>
      <trkpt lat="45.92213" lon="4.75182">
        <ele>175.899993896</ele>
        <time>2015-08-17T08:57:42.967Z</time>
      </trkpt>
      <trkpt lat="45.92209" lon="4.75218">
        <ele>177</ele>
        <time>2015-08-17T08:57:46.967Z</time>
      </trkpt>
      <trkpt lat="45.92207" lon="4.75314">
        <ele>179.800003052</ele>
        <time>2015-08-17T08:57:57.93Z</time>
      </trkpt>
      <trkpt lat="45.922" lon="4.75355">
        <ele>182</ele>
        <time>2015-08-17T08:58:02.968Z</time>
      </trkpt>
      <trkpt lat="45.92171" lon="4.75433">
        <ele>183.800003052</ele>
        <time>2015-08-17T08:58:12.971Z</time>
      </trkpt>
      <trkpt lat="45.92155" lon="4.7546">
        <ele>183.899993896</ele>
        <time>2015-08-17T08:58:15.976Z</time>
      </trkpt>
      <trkpt lat="45.92106" lon="4.7557">
        <ele>185</ele>
        <time>2015-08-17T08:58:28.93Z</time>
      </trkpt>
      <trkpt lat="45.92116" lon="4.75595">
        <ele>184.699996948</ele>
        <time>2015-08-17T08:58:31.97Z</time>
      </trkpt>
      <trkpt lat="45.92133" lon="4.75609">
        <ele>184.300003052</ele>
        <time>2015-08-17T08:58:34.968Z</time>
      </trkpt>
      <trkpt lat="45.92225" lon="4.75702">
        <ele>182.600006104</ele>
        <time>2015-08-17T08:58:51.964Z</time>
      </trkpt>
      <trkpt lat="45.92241" lon="4.75727">
        <ele>182.100006104</ele>
        <time>2015-08-17T08:58:55.971Z</time>
      </trkpt>
      <trkpt lat="45.9226" lon="4.7581">
        <ele>180.5</ele>
        <time>2015-08-17T08:59:06.932Z</time>
      </trkpt>
      <trkpt lat="45.92271" lon="4.75831">
        <ele>179.800003052</ele>
        <time>2015-08-17T08:59:09.962Z</time>
      </trkpt>
      <trkpt lat="45.92356" lon="4.75884">
        <ele>175.899993896</ele>
        <time>2015-08-17T08:59:23.982Z</time>
      </trkpt>
      <trkpt lat="45.9242" lon="4.7593">
        <ele>176.699996948</ele>
        <time>2015-08-17T08:59:35.963Z</time>
      </trkpt>
      <trkpt lat="45.92519" lon="4.76008">
        <ele>181.699996948</ele>
        <time>2015-08-17T08:59:57.964Z</time>
      </trkpt>
      <trkpt lat="45.92634" lon="4.76091">
        <ele>182.800003052</ele>
        <time>2015-08-17T09:00:21.989Z</time>
      </trkpt>
      <trkpt lat="45.92702" lon="4.76135">
        <ele>177.800003052</ele>
        <time>2015-08-17T09:00:31.965Z</time>
      </trkpt>
      <trkpt lat="45.92749" lon="4.7617">
        <ele>174.899993896</ele>
        <time>2015-08-17T09:00:38.932Z</time>
      </trkpt>
      <trkpt lat="45.92823" lon="4.76235">
        <ele>167.199996948</ele>
        <time>2015-08-17T09:00:51.971Z</time>
      </trkpt>
      <trkpt lat="45.93015" lon="4.76427">
        <ele>166.699996948</ele>
        <time>2015-08-17T09:01:27.972Z</time>
      </trkpt>
      <trkpt lat="45.93044" lon="4.76451">
        <ele>168</ele>
        <time>2015-08-17T09:01:32.934Z</time>
      </trkpt>
      <trkpt lat="45.93145" lon="4.76557">
        <ele>171.5</ele>
        <time>2015-08-17T09:01:54.008Z</time>
      </trkpt>
      <trkpt lat="45.93167" lon="4.76584">
        <ele>172.300003052</ele>
        <time>2015-08-17T09:01:58.929Z</time>
      </trkpt>
      <trkpt lat="45.93259" lon="4.76677">
        <ele>174</ele>
        <time>2015-08-17T09:02:17.982Z</time>
      </trkpt>
      <trkpt lat="45.93287" lon="4.76699">
        <ele>175</ele>
        <time>2015-08-17T09:02:22.929Z</time>
      </trkpt>
      <trkpt lat="45.93369" lon="4.76782">
        <ele>179.100006104</ele>
        <time>2015-08-17T09:02:39.967Z</time>
      </trkpt>
      <trkpt lat="45.93392" lon="4.7681">
        <ele>179.600006104</ele>
        <time>2015-08-17T09:02:44.937Z</time>
      </trkpt>
      <trkpt lat="45.93431" lon="4.76876">
        <ele>180.199996948</ele>
        <time>2015-08-17T09:02:54.934Z</time>
      </trkpt>
      <trkpt lat="45.93445" lon="4.76921">
        <ele>178.600006104</ele>
        <time>2015-08-17T09:03:00.937Z</time>
      </trkpt>
      <trkpt lat="45.93474" lon="4.77103">
        <ele>177.699996948</ele>
        <time>2015-08-17T09:03:22.929Z</time>
      </trkpt>
      <trkpt lat="45.93498" lon="4.77226">
        <ele>179.100006104</ele>
        <time>2015-08-17T09:03:37.973Z</time>
      </trkpt>
      <trkpt lat="45.93516" lon="4.77301">
        <ele>181.100006104</ele>
        <time>2015-08-17T09:03:47.978Z</time>
      </trkpt>
      <trkpt lat="45.9356" lon="4.77511">
        <ele>183.199996948</ele>
        <time>2015-08-17T09:04:12.941Z</time>
      </trkpt>
      <trkpt lat="45.93584" lon="4.77596">
        <ele>182.699996948</ele>
        <time>2015-08-17T09:04:22.931Z</time>
      </trkpt>
      <trkpt lat="45.93593" lon="4.77621">
        <ele>182.800003052</ele>
        <time>2015-08-17T09:04:25.967Z</time>
      </trkpt>
      <trkpt lat="45.93636" lon="4.7771">
        <ele>182.300003052</ele>
        <time>2015-08-17T09:04:39.961Z</time>
      </trkpt>
      <trkpt lat="45.93659" lon="4.77748">
        <ele>182.5</ele>
        <time>2015-08-17T09:04:48.017Z</time>
      </trkpt>
      <trkpt lat="45.93711" lon="4.77821">
        <ele>182.5</ele>
        <time>2015-08-17T09:05:05.969Z</time>
      </trkpt>
      <trkpt lat="45.9377" lon="4.77895">
        <ele>180.600006104</ele>
        <time>2015-08-17T09:05:23.961Z</time>
      </trkpt>
      <trkpt lat="45.93785" lon="4.77919">
        <ele>180.5</ele>
        <time>2015-08-17T09:05:28.985Z</time>
      </trkpt>
      <trkpt lat="45.93836" lon="4.77986">
        <ele>179.399993896</ele>
        <time>2015-08-17T09:05:41.925Z</time>
      </trkpt>
      <trkpt lat="45.9384" lon="4.77998">
        <ele>178.300003052</ele>
        <time>2015-08-17T09:05:44.929Z</time>
      </trkpt>
      <trkpt lat="45.93839" lon="4.78012">
        <ele>177.399993896</ele>
        <time>2015-08-17T09:05:48.948Z</time>
      </trkpt>
      <trkpt lat="45.93841" lon="4.78022">
        <ele>176.699996948</ele>
        <time>2015-08-17T09:05:50.963Z</time>
      </trkpt>
      <trkpt lat="45.9385" lon="4.78034">
        <ele>175.399993896</ele>
        <time>2015-08-17T09:05:53.961Z</time>
      </trkpt>
      <trkpt lat="45.93873" lon="4.78031">
        <ele>173.5</ele>
        <time>2015-08-17T09:05:59.966Z</time>
      </trkpt>
      <trkpt lat="45.93886" lon="4.78021">
        <ele>172.300003052</ele>
        <time>2015-08-17T09:06:03.957Z</time>
      </trkpt>
      <trkpt lat="45.93912" lon="4.77995">
        <ele>169.699996948</ele>
        <time>2015-08-17T09:06:12.933Z</time>
      </trkpt>
      <trkpt lat="45.93946" lon="4.77978">
        <ele>164.600006104</ele>
        <time>2015-08-17T09:06:25.965Z</time>
      </trkpt>
      <trkpt lat="45.93953" lon="4.77965">
        <ele>163.199996948</ele>
        <time>2015-08-17T09:06:30.937Z</time>
      </trkpt>
      <trkpt lat="45.93972" lon="4.77951">
        <ele>161.399993896</ele>
        <time>2015-08-17T09:06:39.956Z</time>
      </trkpt>
      <trkpt lat="45.93985" lon="4.77945">
        <ele>161.600006104</ele>
        <time>2015-08-17T09:06:43.928Z</time>
      </trkpt>
      <trkpt lat="45.94012" lon="4.7794">
        <ele>161.699996948</ele>
        <time>2015-08-17T09:06:56.96Z</time>
      </trkpt>
      <trkpt lat="45.94021" lon="4.77949">
        <ele>162.300003052</ele>
        <time>2015-08-17T09:07:03.927Z</time>
      </trkpt>
      <trkpt lat="45.94022" lon="4.77961">
        <ele>166</ele>
        <time>2015-08-17T09:07:08.961Z</time>
      </trkpt>
      <trkpt lat="45.94003" lon="4.78039">
        <ele>188.199996948</ele>
        <time>2015-08-17T09:07:30.967Z</time>
      </trkpt>
      <trkpt lat="45.94002" lon="4.7807">
        <ele>192.800003052</ele>
        <time>2015-08-17T09:07:36.967Z</time>
      </trkpt>
      <trkpt lat="45.93992" lon="4.78117">
        <ele>202.5</ele>
        <time>2015-08-17T09:07:46.927Z</time>
      </trkpt>
      <trkpt lat="45.93992" lon="4.78128">
        <ele>204</ele>
        <time>2015-08-17T09:07:48.967Z</time>
      </trkpt>
      <trkpt lat="45.93983" lon="4.78162">
        <ele>208.300003052</ele>
        <time>2015-08-17T09:07:54.936Z</time>
      </trkpt>
      <trkpt lat="45.93977" lon="4.78169">
        <ele>209.100006104</ele>
        <time>2015-08-17T09:07:55.961Z</time>
      </trkpt>
      <trkpt lat="45.93968" lon="4.78192">
        <ele>211.100006104</ele>
        <time>2015-08-17T09:07:58.928Z</time>
      </trkpt>
      <trkpt lat="45.93969" lon="4.782">
        <ele>211.600006104</ele>
        <time>2015-08-17T09:07:59.964Z</time>
      </trkpt>
      <trkpt lat="45.93956" lon="4.78283">
        <ele>215.600006104</ele>
        <time>2015-08-17T09:08:08.927Z</time>
      </trkpt>
      <trkpt lat="45.93957" lon="4.78291">
        <ele>215.899993896</ele>
        <time>2015-08-17T09:08:09.97Z</time>
      </trkpt>
      <trkpt lat="45.93956" lon="4.783">
        <ele>216.199996948</ele>
        <time>2015-08-17T09:08:10.927Z</time>
      </trkpt>
      <trkpt lat="45.93946" lon="4.78315">
        <ele>215.399993896</ele>
        <time>2015-08-17T09:08:12.939Z</time>
      </trkpt>
      <trkpt lat="45.9394" lon="4.7833">
        <ele>214.5</ele>
        <time>2015-08-17T09:08:14.929Z</time>
      </trkpt>
      <trkpt lat="45.93933" lon="4.78418">
        <ele>212.899993896</ele>
        <time>2015-08-17T09:08:25.97Z</time>
      </trkpt>
      <trkpt lat="45.93932" lon="4.78486">
        <ele>213.100006104</ele>
        <time>2015-08-17T09:08:33.976Z</time>
      </trkpt>
      <trkpt lat="45.93927" lon="4.78549">
        <ele>212.800003052</ele>
        <time>2015-08-17T09:08:42.969Z</time>
      </trkpt>
      <trkpt lat="45.93932" lon="4.78571">
        <ele>212.399993896</ele>
        <time>2015-08-17T09:08:45.942Z</time>
      </trkpt>
      <trkpt lat="45.93934" lon="4.78621">
        <ele>211.899993896</ele>
        <time>2015-08-17T09:08:52.963Z</time>
      </trkpt>
      <trkpt lat="45.93931" lon="4.78646">
        <ele>211.600006104</ele>
        <time>2015-08-17T09:08:55.926Z</time>
      </trkpt>
      <trkpt lat="45.93935" lon="4.78776">
        <ele>211.300003052</ele>
        <time>2015-08-17T09:09:09.925Z</time>
      </trkpt>
      <trkpt lat="45.93943" lon="4.78788">
        <ele>210.899993896</ele>
        <time>2015-08-17T09:09:10.928Z</time>
      </trkpt>
      <trkpt lat="45.93938" lon="4.78826">
        <ele>210.899993896</ele>
        <time>2015-08-17T09:09:14.927Z</time>
      </trkpt>
      <trkpt lat="45.93938" lon="4.78869">
        <ele>210.800003052</ele>
        <time>2015-08-17T09:09:20.018Z</time>
      </trkpt>
      <trkpt lat="45.93941" lon="4.78876">
        <ele>210.600006104</ele>
        <time>2015-08-17T09:09:20.925Z</time>
      </trkpt>
      <trkpt lat="45.9394" lon="4.78893">
        <ele>210.199996948</ele>
        <time>2015-08-17T09:09:22.927Z</time>
      </trkpt>
      <trkpt lat="45.93945" lon="4.78935">
        <ele>210.300003052</ele>
        <time>2015-08-17T09:09:27.98Z</time>
      </trkpt>
      <trkpt lat="45.93942" lon="4.78942">
        <ele>210.600006104</ele>
        <time>2015-08-17T09:09:28.927Z</time>
      </trkpt>
      <trkpt lat="45.93947" lon="4.78993">
        <ele>210.399993896</ele>
        <time>2015-08-17T09:09:34.927Z</time>
      </trkpt>
      <trkpt lat="45.93945" lon="4.79114">
        <ele>207.5</ele>
        <time>2015-08-17T09:09:49.961Z</time>
      </trkpt>
      <trkpt lat="45.93942" lon="4.79122">
        <ele>206.899993896</ele>
        <time>2015-08-17T09:09:50.931Z</time>
      </trkpt>
      <trkpt lat="45.93941" lon="4.79161">
        <ele>205.899993896</ele>
        <time>2015-08-17T09:09:55.976Z</time>
      </trkpt>
      <trkpt lat="45.93947" lon="4.79275">
        <ele>206.800003052</ele>
        <time>2015-08-17T09:10:10.928Z</time>
      </trkpt>
      <trkpt lat="45.93946" lon="4.79316">
        <ele>207.5</ele>
        <time>2015-08-17T09:10:16.93Z</time>
      </trkpt>
      <trkpt lat="45.9395" lon="4.79323">
        <ele>207.399993896</ele>
        <time>2015-08-17T09:10:17.975Z</time>
      </trkpt>
      <trkpt lat="45.93952" lon="4.79371">
        <ele>207.199996948</ele>
        <time>2015-08-17T09:10:24.931Z</time>
      </trkpt>
      <trkpt lat="45.93951" lon="4.79418">
        <ele>206.699996948</ele>
        <time>2015-08-17T09:10:31.96Z</time>
      </trkpt>
      <trkpt lat="45.93947" lon="4.79432">
        <ele>207.100006104</ele>
        <time>2015-08-17T09:10:33.96Z</time>
      </trkpt>
      <trkpt lat="45.93949" lon="4.79541">
        <ele>208.199996948</ele>
        <time>2015-08-17T09:10:50.93Z</time>
      </trkpt>
      <trkpt lat="45.93956" lon="4.79611">
        <ele>210.300003052</ele>
        <time>2015-08-17T09:11:02.928Z</time>
      </trkpt>
      <trkpt lat="45.93958" lon="4.79674">
        <ele>211.800003052</ele>
        <time>2015-08-17T09:11:12.93Z</time>
      </trkpt>
      <trkpt lat="45.93963" lon="4.79706">
        <ele>211.600006104</ele>
        <time>2015-08-17T09:11:18.932Z</time>
      </trkpt>
      <trkpt lat="45.93966" lon="4.7975">
        <ele>212.100006104</ele>
        <time>2015-08-17T09:11:25.983Z</time>
      </trkpt>
      <trkpt lat="45.93969" lon="4.7977">
        <ele>211.899993896</ele>
        <time>2015-08-17T09:11:28.933Z</time>
      </trkpt>
      <trkpt lat="45.93969" lon="4.79789">
        <ele>211.899993896</ele>
        <time>2015-08-17T09:11:31.972Z</time>
      </trkpt>
      <trkpt lat="45.93959" lon="4.79862">
        <ele>210.399993896</ele>
        <time>2015-08-17T09:11:40.929Z</time>
      </trkpt>
      <trkpt lat="45.93946" lon="4.79919">
        <ele>211.399993896</ele>
        <time>2015-08-17T09:11:48.926Z</time>
      </trkpt>
      <trkpt lat="45.93939" lon="4.79972">
        <ele>212.899993896</ele>
        <time>2015-08-17T09:11:55.961Z</time>
      </trkpt>
      <trkpt lat="45.93932" lon="4.80006">
        <ele>212.100006104</ele>
        <time>2015-08-17T09:11:59.959Z</time>
      </trkpt>
      <trkpt lat="45.93928" lon="4.80059">
        <ele>212.399993896</ele>
        <time>2015-08-17T09:12:06.026Z</time>
      </trkpt>
      <trkpt lat="45.93936" lon="4.80122">
        <ele>211.899993896</ele>
        <time>2015-08-17T09:12:12.931Z</time>
      </trkpt>
      <trkpt lat="45.93938" lon="4.80158">
        <ele>210.800003052</ele>
        <time>2015-08-17T09:12:16.927Z</time>
      </trkpt>
      <trkpt lat="45.93947" lon="4.80202">
        <ele>209.5</ele>
        <time>2015-08-17T09:12:21.963Z</time>
      </trkpt>
      <trkpt lat="45.93958" lon="4.80242">
        <ele>208.399993896</ele>
        <time>2015-08-17T09:12:26.947Z</time>
      </trkpt>
      <trkpt lat="45.93981" lon="4.80303">
        <ele>208</ele>
        <time>2015-08-17T09:12:36.962Z</time>
      </trkpt>
      <trkpt lat="45.9399" lon="4.80352">
        <ele>211.699996948</ele>
        <time>2015-08-17T09:12:45.97Z</time>
      </trkpt>
      <trkpt lat="45.94012" lon="4.80427">
        <ele>213</ele>
        <time>2015-08-17T09:13:01.927Z</time>
      </trkpt>
      <trkpt lat="45.94014" lon="4.80443">
        <ele>213.699996948</ele>
        <time>2015-08-17T09:13:05.946Z</time>
      </trkpt>
      <trkpt lat="45.94013" lon="4.80474">
        <ele>214.899993896</ele>
        <time>2015-08-17T09:13:11.924Z</time>
      </trkpt>
      <trkpt lat="45.94015" lon="4.80502">
        <ele>216.100006104</ele>
        <time>2015-08-17T09:13:18.934Z</time>
      </trkpt>
      <trkpt lat="45.94017" lon="4.80608">
        <ele>218.5</ele>
        <time>2015-08-17T09:13:44.928Z</time>
      </trkpt>
      <trkpt lat="45.94033" lon="4.80711">
        <ele>225</ele>
        <time>2015-08-17T09:14:09.927Z</time>
      </trkpt>
      <trkpt lat="45.94031" lon="4.80751">
        <ele>227.800003052</ele>
        <time>2015-08-17T09:14:17.963Z</time>
      </trkpt>
      <trkpt lat="45.94037" lon="4.8082">
        <ele>232.399993896</ele>
        <time>2015-08-17T09:14:32.991Z</time>
      </trkpt>
      <trkpt lat="45.9405" lon="4.80883">
        <ele>234.600006104</ele>
        <time>2015-08-17T09:14:46.927Z</time>
      </trkpt>
      <trkpt lat="45.94058" lon="4.80955">
        <ele>238.5</ele>
        <time>2015-08-17T09:15:03.925Z</time>
      </trkpt>
      <trkpt lat="45.94088" lon="4.81081">
        <ele>244.399993896</ele>
        <time>2015-08-17T09:15:33.963Z</time>
      </trkpt>
      <trkpt lat="45.94104" lon="4.81106">
        <ele>244.300003052</ele>
        <time>2015-08-17T09:15:41.927Z</time>
      </trkpt>
      <trkpt lat="45.94109" lon="4.81119">
        <ele>244.300003052</ele>
        <time>2015-08-17T09:15:44.926Z</time>
      </trkpt>
      <trkpt lat="45.94118" lon="4.81129">
        <ele>244.899993896</ele>
        <time>2015-08-17T09:15:48.969Z</time>
      </trkpt>
      <trkpt lat="45.94134" lon="4.81162">
        <ele>244.300003052</ele>
        <time>2015-08-17T09:15:57.974Z</time>
      </trkpt>
      <trkpt lat="45.9415" lon="4.81204">
        <ele>243.600006104</ele>
        <time>2015-08-17T09:16:10.927Z</time>
      </trkpt>
      <trkpt lat="45.94161" lon="4.81273">
        <ele>242.800003052</ele>
        <time>2015-08-17T09:16:30.047Z</time>
      </trkpt>
      <trkpt lat="45.94161" lon="4.81288">
        <ele>243.100006104</ele>
        <time>2015-08-17T09:16:33.962Z</time>
      </trkpt>
      <trkpt lat="45.94164" lon="4.81303">
        <ele>244.100006104</ele>
        <time>2015-08-17T09:16:38.983Z</time>
      </trkpt>
      <trkpt lat="45.94157" lon="4.81328">
        <ele>245.5</ele>
        <time>2015-08-17T09:16:44.962Z</time>
      </trkpt>
      <trkpt lat="45.94158" lon="4.81392">
        <ele>250.100006104</ele>
        <time>2015-08-17T09:16:59.927Z</time>
      </trkpt>
      <trkpt lat="45.94148" lon="4.81478">
        <ele>260.200012207</ele>
        <time>2015-08-17T09:17:20.959Z</time>
      </trkpt>
      <trkpt lat="45.94149" lon="4.81513">
        <ele>262.899993896</ele>
        <time>2015-08-17T09:17:29.927Z</time>
      </trkpt>
      <trkpt lat="45.94153" lon="4.81539">
        <ele>265.799987793</ele>
        <time>2015-08-17T09:17:36.041Z</time>
      </trkpt>
      <trkpt lat="45.94152" lon="4.81556">
        <ele>268.100006104</ele>
        <time>2015-08-17T09:17:39.963Z</time>
      </trkpt>
      <trkpt lat="45.94166" lon="4.81641">
        <ele>275.799987793</ele>
        <time>2015-08-17T09:17:57.971Z</time>
      </trkpt>
      <trkpt lat="45.94172" lon="4.81703">
        <ele>279.100006104</ele>
        <time>2015-08-17T09:18:09.958Z</time>
      </trkpt>
      <trkpt lat="45.94171" lon="4.81715">
        <ele>277.899993896</ele>
        <time>2015-08-17T09:18:10.926Z</time>
      </trkpt>
      <trkpt lat="45.94173" lon="4.81748">
        <ele>274.700012207</ele>
        <time>2015-08-17T09:18:14.937Z</time>
      </trkpt>
      <trkpt lat="45.94184" lon="4.81768">
        <ele>273.799987793</ele>
        <time>2015-08-17T09:18:18.997Z</time>
      </trkpt>
      <trkpt lat="45.94201" lon="4.81837">
        <ele>272.299987793</ele>
        <time>2015-08-17T09:18:31.927Z</time>
      </trkpt>
      <trkpt lat="45.94208" lon="4.81884">
        <ele>267.600006104</ele>
        <time>2015-08-17T09:18:37.943Z</time>
      </trkpt>
      <trkpt lat="45.94216" lon="4.81911">
        <ele>265.200012207</ele>
        <time>2015-08-17T09:18:41.929Z</time>
      </trkpt>
      <trkpt lat="45.94234" lon="4.81997">
        <ele>267.200012207</ele>
        <time>2015-08-17T09:18:53.926Z</time>
      </trkpt>
      <trkpt lat="45.94236" lon="4.82018">
        <ele>267.100006104</ele>
        <time>2015-08-17T09:18:56.959Z</time>
      </trkpt>
      <trkpt lat="45.94248" lon="4.8207">
        <ele>266.700012207</ele>
        <time>2015-08-17T09:19:03.931Z</time>
      </trkpt>
      <trkpt lat="45.94257" lon="4.82145">
        <ele>268.399993896</ele>
        <time>2015-08-17T09:19:12.973Z</time>
      </trkpt>
      <trkpt lat="45.94268" lon="4.82185">
        <ele>269.5</ele>
        <time>2015-08-17T09:19:17.926Z</time>
      </trkpt>
      <trkpt lat="45.94274" lon="4.82223">
        <ele>269.399993896</ele>
        <time>2015-08-17T09:19:22.958Z</time>
      </trkpt>
      <trkpt lat="45.94274" lon="4.82256">
        <ele>270.399993896</ele>
        <time>2015-08-17T09:19:26.957Z</time>
      </trkpt>
      <trkpt lat="45.9428" lon="4.82329">
        <ele>268.700012207</ele>
        <time>2015-08-17T09:19:35.939Z</time>
      </trkpt>
      <trkpt lat="45.94288" lon="4.82477">
        <ele>267.600006104</ele>
        <time>2015-08-17T09:19:55.952Z</time>
      </trkpt>
      <trkpt lat="45.94285" lon="4.82681">
        <ele>270.5</ele>
        <time>2015-08-17T09:20:22.958Z</time>
      </trkpt>
      <trkpt lat="45.94287" lon="4.8272">
        <ele>269.899993896</ele>
        <time>2015-08-17T09:20:27.92Z</time>
      </trkpt>
      <trkpt lat="45.94282" lon="4.829">
        <ele>272.899993896</ele>
        <time>2015-08-17T09:20:51.934Z</time>
      </trkpt>
      <trkpt lat="45.94277" lon="4.82948">
        <ele>273.100006104</ele>
        <time>2015-08-17T09:20:57.927Z</time>
      </trkpt>
      <trkpt lat="45.9428" lon="4.82969">
        <ele>273</ele>
        <time>2015-08-17T09:21:00.97Z</time>
      </trkpt>
      <trkpt lat="45.94289" lon="4.82996">
        <ele>272.600006104</ele>
        <time>2015-08-17T09:21:04.961Z</time>
      </trkpt>
      <trkpt lat="45.94311" lon="4.831">
        <ele>272.399993896</ele>
        <time>2015-08-17T09:21:18.973Z</time>
      </trkpt>
      <trkpt lat="45.94343" lon="4.83187">
        <ele>270</ele>
        <time>2015-08-17T09:21:30.96Z</time>
      </trkpt>
      <trkpt lat="45.94352" lon="4.83217">
        <ele>269</ele>
        <time>2015-08-17T09:21:34.957Z</time>
      </trkpt>
      <trkpt lat="45.94394" lon="4.8333">
        <ele>265.5</ele>
        <time>2015-08-17T09:21:49.922Z</time>
      </trkpt>
      <trkpt lat="45.9444" lon="4.83437">
        <ele>263.700012207</ele>
        <time>2015-08-17T09:22:04.965Z</time>
      </trkpt>
      <trkpt lat="45.94511" lon="4.83555">
        <ele>260.299987793</ele>
        <time>2015-08-17T09:22:22.957Z</time>
      </trkpt>
      <trkpt lat="45.94523" lon="4.83583">
        <ele>259.299987793</ele>
        <time>2015-08-17T09:22:26.957Z</time>
      </trkpt>
      <trkpt lat="45.94531" lon="4.83624">
        <ele>258.799987793</ele>
        <time>2015-08-17T09:22:31.927Z</time>
      </trkpt>
      <trkpt lat="45.94581" lon="4.83964">
        <ele>267.200012207</ele>
        <time>2015-08-17T09:23:16.922Z</time>
      </trkpt>
      <trkpt lat="45.94584" lon="4.83995">
        <ele>265.5</ele>
        <time>2015-08-17T09:23:21.927Z</time>
      </trkpt>
      <trkpt lat="45.94608" lon="4.84113">
        <ele>267.299987793</ele>
        <time>2015-08-17T09:23:41.927Z</time>
      </trkpt>
      <trkpt lat="45.94633" lon="4.84275">
        <ele>266.5</ele>
        <time>2015-08-17T09:24:04.959Z</time>
      </trkpt>
      <trkpt lat="45.94652" lon="4.84424">
        <ele>269.600006104</ele>
        <time>2015-08-17T09:24:24.963Z</time>
      </trkpt>
      <trkpt lat="45.94661" lon="4.84516">
        <ele>269.200012207</ele>
        <time>2015-08-17T09:24:36.969Z</time>
      </trkpt>
      <trkpt lat="45.94673" lon="4.8477">
        <ele>271.200012207</ele>
        <time>2015-08-17T09:25:09.929Z</time>
      </trkpt>
      <trkpt lat="45.94718" lon="4.85257">
        <ele>279.100006104</ele>
        <time>2015-08-17T09:26:09.923Z</time>
      </trkpt>
      <trkpt lat="45.94744" lon="4.85479">
        <ele>279.200012207</ele>
        <time>2015-08-17T09:26:39.924Z</time>
      </trkpt>
      <trkpt lat="45.94761" lon="4.85586">
        <ele>281.700012207</ele>
        <time>2015-08-17T09:26:58.927Z</time>
      </trkpt>
      <trkpt lat="45.94798" lon="4.85724">
        <ele>278.600006104</ele>
        <time>2015-08-17T09:27:25.938Z</time>
      </trkpt>
      <trkpt lat="45.94809" lon="4.85777">
        <ele>278.299987793</ele>
        <time>2015-08-17T09:27:33.967Z</time>
      </trkpt>
      <trkpt lat="45.9484" lon="4.85886">
        <ele>276.100006104</ele>
        <time>2015-08-17T09:27:47.96Z</time>
      </trkpt>
      <trkpt lat="45.94876" lon="4.86033">
        <ele>276</ele>
        <time>2015-08-17T09:28:05.975Z</time>
      </trkpt>
      <trkpt lat="45.94893" lon="4.86091">
        <ele>275.799987793</ele>
        <time>2015-08-17T09:28:12.929Z</time>
      </trkpt>
      <trkpt lat="45.9491" lon="4.86134">
        <ele>277.200012207</ele>
        <time>2015-08-17T09:28:18.927Z</time>
      </trkpt>
      <trkpt lat="45.94943" lon="4.86185">
        <ele>275.5</ele>
        <time>2015-08-17T09:28:26.946Z</time>
      </trkpt>
      <trkpt lat="45.95" lon="4.86249">
        <ele>272.399993896</ele>
        <time>2015-08-17T09:28:37.956Z</time>
      </trkpt>
      <trkpt lat="45.95256" lon="4.8656">
        <ele>262.299987793</ele>
        <time>2015-08-17T09:29:27.958Z</time>
      </trkpt>
      <trkpt lat="45.95283" lon="4.86602">
        <ele>260.600006104</ele>
        <time>2015-08-17T09:29:34.924Z</time>
      </trkpt>
      <trkpt lat="45.95306" lon="4.86645">
        <ele>261</ele>
        <time>2015-08-17T09:29:42.958Z</time>
      </trkpt>
      <trkpt lat="45.95337" lon="4.86712">
        <ele>262</ele>
        <time>2015-08-17T09:29:54.958Z</time>
      </trkpt>
      <trkpt lat="45.95413" lon="4.86864">
        <ele>263.799987793</ele>
        <time>2015-08-17T09:30:19.926Z</time>
      </trkpt>
      <trkpt lat="45.95503" lon="4.87057">
        <ele>269.100006104</ele>
        <time>2015-08-17T09:30:50.96Z</time>
      </trkpt>
      <trkpt lat="45.95549" lon="4.87149">
        <ele>268.399993896</ele>
        <time>2015-08-17T09:31:05.959Z</time>
      </trkpt>
      <trkpt lat="45.95587" lon="4.87229">
        <ele>267.5</ele>
        <time>2015-08-17T09:31:19.964Z</time>
      </trkpt>
      <trkpt lat="45.95635" lon="4.87316">
        <ele>268.600006104</ele>
        <time>2015-08-17T09:31:38.956Z</time>
      </trkpt>
      <trkpt lat="45.95708" lon="4.87474">
        <ele>274.799987793</ele>
        <time>2015-08-17T09:32:09.968Z</time>
      </trkpt>
      <trkpt lat="45.95786" lon="4.87627">
        <ele>276.200012207</ele>
        <time>2015-08-17T09:32:42.926Z</time>
      </trkpt>
      <trkpt lat="45.95804" lon="4.87668">
        <ele>278.5</ele>
        <time>2015-08-17T09:32:51.925Z</time>
      </trkpt>
      <trkpt lat="45.95812" lon="4.87698">
        <ele>280.299987793</ele>
        <time>2015-08-17T09:32:57.926Z</time>
      </trkpt>
      <trkpt lat="45.95826" lon="4.87772">
        <ele>285.100006104</ele>
        <time>2015-08-17T09:33:11.956Z</time>
      </trkpt>
      <trkpt lat="45.9584" lon="4.87936">
        <ele>292.200012207</ele>
        <time>2015-08-17T09:33:41.959Z</time>
      </trkpt>
      <trkpt lat="45.95839" lon="4.87979">
        <ele>293</ele>
        <time>2015-08-17T09:33:48.953Z</time>
      </trkpt>
      <trkpt lat="45.95852" lon="4.88247">
        <ele>294.799987793</ele>
        <time>2015-08-17T09:34:27.924Z</time>
      </trkpt>
      <trkpt lat="45.95857" lon="4.88396">
        <ele>294.700012207</ele>
        <time>2015-08-17T09:34:44.977Z</time>
      </trkpt>
      <trkpt lat="45.95868" lon="4.88599">
        <ele>293.299987793</ele>
        <time>2015-08-17T09:35:08.957Z</time>
      </trkpt>
      <trkpt lat="45.95872" lon="4.88764">
        <ele>296.299987793</ele>
        <time>2015-08-17T09:35:28.957Z</time>
      </trkpt>
      <trkpt lat="45.95879" lon="4.88968">
        <ele>293.799987793</ele>
        <time>2015-08-17T09:35:53.913Z</time>
      </trkpt>
      <trkpt lat="45.95894" lon="4.8904">
        <ele>292.600006104</ele>
        <time>2015-08-17T09:36:02.957Z</time>
      </trkpt>
      <trkpt lat="45.95895" lon="4.89055">
        <ele>292.700012207</ele>
        <time>2015-08-17T09:36:04.963Z</time>
      </trkpt>
      <trkpt lat="45.95893" lon="4.8907">
        <ele>293.399993896</ele>
        <time>2015-08-17T09:36:06.962Z</time>
      </trkpt>
      <trkpt lat="45.95883" lon="4.89087">
        <ele>294.399993896</ele>
        <time>2015-08-17T09:36:10.924Z</time>
      </trkpt>
      <trkpt lat="45.95875" lon="4.89096">
        <ele>296</ele>
        <time>2015-08-17T09:36:13.923Z</time>
      </trkpt>
      <trkpt lat="45.95871" lon="4.89106">
        <ele>295.899993896</ele>
        <time>2015-08-17T09:36:15.955Z</time>
      </trkpt>
      <trkpt lat="45.9587" lon="4.89128">
        <ele>295.700012207</ele>
        <time>2015-08-17T09:36:18.927Z</time>
      </trkpt>
      <trkpt lat="45.95876" lon="4.89194">
        <ele>294.100006104</ele>
        <time>2015-08-17T09:36:27.957Z</time>
      </trkpt>
      <trkpt lat="45.9588" lon="4.893">
        <ele>291.299987793</ele>
        <time>2015-08-17T09:36:41.959Z</time>
      </trkpt>
      <trkpt lat="45.95881" lon="4.89494">
        <ele>288.200012207</ele>
        <time>2015-08-17T09:37:06.945Z</time>
      </trkpt>
      <trkpt lat="45.95885" lon="4.89629">
        <ele>288.600006104</ele>
        <time>2015-08-17T09:37:24.927Z</time>
      </trkpt>
      <trkpt lat="45.95884" lon="4.89721">
        <ele>288.600006104</ele>
        <time>2015-08-17T09:37:36.926Z</time>
      </trkpt>
      <trkpt lat="45.95886" lon="4.89772">
        <ele>289.100006104</ele>
        <time>2015-08-17T09:37:43.957Z</time>
      </trkpt>
      <trkpt lat="45.95884" lon="4.89877">
        <ele>291</ele>
        <time>2015-08-17T09:37:58.955Z</time>
      </trkpt>
      <trkpt lat="45.95886" lon="4.89958">
        <ele>290.600006104</ele>
        <time>2015-08-17T09:38:09.924Z</time>
      </trkpt>
      <trkpt lat="45.95884" lon="4.90019">
        <ele>290.799987793</ele>
        <time>2015-08-17T09:38:17.923Z</time>
      </trkpt>
      <trkpt lat="45.95886" lon="4.90104">
        <ele>291</ele>
        <time>2015-08-17T09:38:27.925Z</time>
      </trkpt>
      <trkpt lat="45.95881" lon="4.90312">
        <ele>292.399993896</ele>
        <time>2015-08-17T09:38:52.959Z</time>
      </trkpt>
      <trkpt lat="45.95883" lon="4.90345">
        <ele>292.299987793</ele>
        <time>2015-08-17T09:38:56.958Z</time>
      </trkpt>
      <trkpt lat="45.9588" lon="4.90428">
        <ele>292.700012207</ele>
        <time>2015-08-17T09:39:06.986Z</time>
      </trkpt>
      <trkpt lat="45.95867" lon="4.90628">
        <ele>294.200012207</ele>
        <time>2015-08-17T09:39:31.926Z</time>
      </trkpt>
      <trkpt lat="45.95866" lon="4.90786">
        <ele>300.200012207</ele>
        <time>2015-08-17T09:39:52.956Z</time>
      </trkpt>
      <trkpt lat="45.95856" lon="4.90952">
        <ele>306</ele>
        <time>2015-08-17T09:40:16.973Z</time>
      </trkpt>
      <trkpt lat="45.95854" lon="4.91032">
        <ele>307.200012207</ele>
        <time>2015-08-17T09:40:27.117Z</time>
      </trkpt>
      <trkpt lat="45.95856" lon="4.91075">
        <ele>307.600006104</ele>
        <time>2015-08-17T09:40:31.925Z</time>
      </trkpt>
      <trkpt lat="45.95849" lon="4.91116">
        <ele>307.5</ele>
        <time>2015-08-17T09:40:36.959Z</time>
      </trkpt>
      <trkpt lat="45.95849" lon="4.91185">
        <ele>307</ele>
        <time>2015-08-17T09:40:45.923Z</time>
      </trkpt>
      <trkpt lat="45.95845" lon="4.91233">
        <ele>308.100006104</ele>
        <time>2015-08-17T09:40:51.923Z</time>
      </trkpt>
      <trkpt lat="45.95845" lon="4.91274">
        <ele>308.200012207</ele>
        <time>2015-08-17T09:40:57.925Z</time>
      </trkpt>
      <trkpt lat="45.95841" lon="4.91321">
        <ele>308.899993896</ele>
        <time>2015-08-17T09:41:03.916Z</time>
      </trkpt>
      <trkpt lat="45.95835" lon="4.91552">
        <ele>308.399993896</ele>
        <time>2015-08-17T09:41:34.923Z</time>
      </trkpt>
      <trkpt lat="45.95837" lon="4.91574">
        <ele>308.200012207</ele>
        <time>2015-08-17T09:41:37.957Z</time>
      </trkpt>
      <trkpt lat="45.95832" lon="4.91659">
        <ele>307.299987793</ele>
        <time>2015-08-17T09:41:50.936Z</time>
      </trkpt>
      <trkpt lat="45.95834" lon="4.91705">
        <ele>304.299987793</ele>
        <time>2015-08-17T09:41:56.956Z</time>
      </trkpt>
      <trkpt lat="45.95861" lon="4.91905">
        <ele>305.899993896</ele>
        <time>2015-08-17T09:42:24.968Z</time>
      </trkpt>
      <trkpt lat="45.95859" lon="4.91961">
        <ele>308</ele>
        <time>2015-08-17T09:42:32.924Z</time>
      </trkpt>
      <trkpt lat="45.95892" lon="4.92075">
        <ele>309.299987793</ele>
        <time>2015-08-17T09:42:45.969Z</time>
      </trkpt>
      <trkpt lat="45.95898" lon="4.92129">
        <ele>308.600006104</ele>
        <time>2015-08-17T09:42:51.957Z</time>
      </trkpt>
      <trkpt lat="45.95908" lon="4.92172">
        <ele>307.700012207</ele>
        <time>2015-08-17T09:42:55.961Z</time>
      </trkpt>
      <trkpt lat="45.95927" lon="4.92291">
        <ele>310.100006104</ele>
        <time>2015-08-17T09:43:09.959Z</time>
      </trkpt>
      <trkpt lat="45.95941" lon="4.92356">
        <ele>310.600006104</ele>
        <time>2015-08-17T09:43:17.962Z</time>
      </trkpt>
      <trkpt lat="45.9596" lon="4.92486">
        <ele>311.399993896</ele>
        <time>2015-08-17T09:43:31.96Z</time>
      </trkpt>
      <trkpt lat="45.95978" lon="4.92553">
        <ele>306.100006104</ele>
        <time>2015-08-17T09:43:37.925Z</time>
      </trkpt>
      <trkpt lat="45.95995" lon="4.92605">
        <ele>305.600006104</ele>
        <time>2015-08-17T09:43:43.923Z</time>
      </trkpt>
      <trkpt lat="45.96029" lon="4.9273">
        <ele>299.399993896</ele>
        <time>2015-08-17T09:43:57.941Z</time>
      </trkpt>
      <trkpt lat="45.96083" lon="4.92896">
        <ele>292.799987793</ele>
        <time>2015-08-17T09:44:18.957Z</time>
      </trkpt>
      <trkpt lat="45.96108" lon="4.92988">
        <ele>292.700012207</ele>
        <time>2015-08-17T09:44:30.959Z</time>
      </trkpt>
      <trkpt lat="45.96159" lon="4.93153">
        <ele>291.399993896</ele>
        <time>2015-08-17T09:44:52.955Z</time>
      </trkpt>
      <trkpt lat="45.96172" lon="4.93208">
        <ele>292.899993896</ele>
        <time>2015-08-17T09:45:00.959Z</time>
      </trkpt>
      <trkpt lat="45.96201" lon="4.93293">
        <ele>294.600006104</ele>
        <time>2015-08-17T09:45:13.922Z</time>
      </trkpt>
      <trkpt lat="45.96211" lon="4.93311">
        <ele>293.799987793</ele>
        <time>2015-08-17T09:45:16.976Z</time>
      </trkpt>
      <trkpt lat="45.96242" lon="4.93349">
        <ele>292.299987793</ele>
        <time>2015-08-17T09:45:24.958Z</time>
      </trkpt>
      <trkpt lat="45.96256" lon="4.93361">
        <ele>291.399993896</ele>
        <time>2015-08-17T09:45:27.926Z</time>
      </trkpt>
      <trkpt lat="45.96348" lon="4.93416">
        <ele>286.200012207</ele>
        <time>2015-08-17T09:45:45.921Z</time>
      </trkpt>
      <trkpt lat="45.96411" lon="4.93467">
        <ele>287.700012207</ele>
        <time>2015-08-17T09:46:00.965Z</time>
      </trkpt>
      <trkpt lat="45.96431" lon="4.93492">
        <ele>287.600006104</ele>
        <time>2015-08-17T09:46:05.919Z</time>
      </trkpt>
      <trkpt lat="45.96458" lon="4.93535">
        <ele>287.100006104</ele>
        <time>2015-08-17T09:46:13.925Z</time>
      </trkpt>
      <trkpt lat="45.96515" lon="4.93617">
        <ele>285.299987793</ele>
        <time>2015-08-17T09:46:30.924Z</time>
      </trkpt>
      <trkpt lat="45.96531" lon="4.93634">
        <ele>285</ele>
        <time>2015-08-17T09:46:34.922Z</time>
      </trkpt>
      <trkpt lat="45.966" lon="4.93725">
        <ele>287.799987793</ele>
        <time>2015-08-17T09:46:53.924Z</time>
      </trkpt>
      <trkpt lat="45.96637" lon="4.93762">
        <ele>288</ele>
        <time>2015-08-17T09:47:01.921Z</time>
      </trkpt>
      <trkpt lat="45.96651" lon="4.93782">
        <ele>289.299987793</ele>
        <time>2015-08-17T09:47:05.919Z</time>
      </trkpt>
      <trkpt lat="45.96658" lon="4.93806">
        <ele>290.299987793</ele>
        <time>2015-08-17T09:47:09.922Z</time>
      </trkpt>
      <trkpt lat="45.96672" lon="4.93835">
        <ele>291.899993896</ele>
        <time>2015-08-17T09:47:14.957Z</time>
      </trkpt>
      <trkpt lat="45.96691" lon="4.93863">
        <ele>293.799987793</ele>
        <time>2015-08-17T09:47:19.901Z</time>
      </trkpt>
      <trkpt lat="45.96759" lon="4.93942">
        <ele>292.200012207</ele>
        <time>2015-08-17T09:47:35.92Z</time>
      </trkpt>
      <trkpt lat="45.96772" lon="4.93961">
        <ele>291.700012207</ele>
        <time>2015-08-17T09:47:39.922Z</time>
      </trkpt>
      <trkpt lat="45.9678" lon="4.93967">
        <ele>291.600006104</ele>
        <time>2015-08-17T09:47:42.927Z</time>
      </trkpt>
      <trkpt lat="45.96782" lon="4.93967">
        <ele>291.799987793</ele>
        <time>2015-08-17T09:47:49.921Z</time>
      </trkpt>
      <trkpt lat="45.96781" lon="4.93972">
        <ele>291.700012207</ele>
        <time>2015-08-17T09:48:45.92Z</time>
      </trkpt>
      <trkpt lat="45.96783" lon="4.93982">
        <ele>291.899993896</ele>
        <time>2015-08-17T09:49:06.012Z</time>
      </trkpt>
      <trkpt lat="45.96801" lon="4.94007">
        <ele>292.600006104</ele>
        <time>2015-08-17T09:49:14.923Z</time>
      </trkpt>
      <trkpt lat="45.96869" lon="4.94177">
        <ele>292.600006104</ele>
        <time>2015-08-17T09:49:42.912Z</time>
      </trkpt>
      <trkpt lat="45.96963" lon="4.94438">
        <ele>289.200012207</ele>
        <time>2015-08-17T09:50:16.924Z</time>
      </trkpt>
      <trkpt lat="45.97031" lon="4.94611">
        <ele>292.5</ele>
        <time>2015-08-17T09:50:39.954Z</time>
      </trkpt>
      <trkpt lat="45.97203" lon="4.95078">
        <ele>297.700012207</ele>
        <time>2015-08-17T09:51:46.921Z</time>
      </trkpt>
      <trkpt lat="45.97253" lon="4.95208">
        <ele>300.5</ele>
        <time>2015-08-17T09:52:05.968Z</time>
      </trkpt>
      <trkpt lat="45.97282" lon="4.95271">
        <ele>301.700012207</ele>
        <time>2015-08-17T09:52:14.945Z</time>
      </trkpt>
      <trkpt lat="45.97302" lon="4.95305">
        <ele>301.5</ele>
        <time>2015-08-17T09:52:19.953Z</time>
      </trkpt>
      <trkpt lat="45.97348" lon="4.954">
        <ele>298.100006104</ele>
        <time>2015-08-17T09:52:32.926Z</time>
      </trkpt>
      <trkpt lat="45.97378" lon="4.95454">
        <ele>296.5</ele>
        <time>2015-08-17T09:52:40.924Z</time>
      </trkpt>
      <trkpt lat="45.97385" lon="4.95472">
        <ele>295.399993896</ele>
        <time>2015-08-17T09:52:42.923Z</time>
      </trkpt>
      <trkpt lat="45.97387" lon="4.95482">
        <ele>295</ele>
        <time>2015-08-17T09:52:43.96Z</time>
      </trkpt>
      <trkpt lat="45.9746" lon="4.95638">
        <ele>292.399993896</ele>
        <time>2015-08-17T09:53:04.927Z</time>
      </trkpt>
      <trkpt lat="45.97497" lon="4.95711">
        <ele>292.5</ele>
        <time>2015-08-17T09:53:14.922Z</time>
      </trkpt>
      <trkpt lat="45.97538" lon="4.95799">
        <ele>291.700012207</ele>
        <time>2015-08-17T09:53:26.942Z</time>
      </trkpt>
      <trkpt lat="45.97717" lon="4.96173">
        <ele>287.399993896</ele>
        <time>2015-08-17T09:54:12.926Z</time>
      </trkpt>
      <trkpt lat="45.97735" lon="4.96205">
        <ele>287.5</ele>
        <time>2015-08-17T09:54:17.954Z</time>
      </trkpt>
      <trkpt lat="45.97852" lon="4.96454">
        <ele>288.200012207</ele>
        <time>2015-08-17T09:54:53.957Z</time>
      </trkpt>
      <trkpt lat="45.98004" lon="4.9676">
        <ele>290.200012207</ele>
        <time>2015-08-17T09:55:40.929Z</time>
      </trkpt>
      <trkpt lat="45.98015" lon="4.96791">
        <ele>291</ele>
        <time>2015-08-17T09:55:45.98Z</time>
      </trkpt>
      <trkpt lat="45.98101" lon="4.97088">
        <ele>294.600006104</ele>
        <time>2015-08-17T09:56:22.034Z</time>
      </trkpt>
      <trkpt lat="45.98125" lon="4.97163">
        <ele>293.899993896</ele>
        <time>2015-08-17T09:56:32.047Z</time>
      </trkpt>
      <trkpt lat="45.98135" lon="4.97185">
        <ele>292.399993896</ele>
        <time>2015-08-17T09:56:34.95Z</time>
      </trkpt>
      <trkpt lat="45.98152" lon="4.97242">
        <ele>291.5</ele>
        <time>2015-08-17T09:56:41.954Z</time>
      </trkpt>
      <trkpt lat="45.98183" lon="4.97372">
        <ele>291.899993896</ele>
        <time>2015-08-17T09:56:59.957Z</time>
      </trkpt>
      <trkpt lat="45.98194" lon="4.97402">
        <ele>290</ele>
        <time>2015-08-17T09:57:03.97Z</time>
      </trkpt>
      <trkpt lat="45.98206" lon="4.97448">
        <ele>289.399993896</ele>
        <time>2015-08-17T09:57:09.953Z</time>
      </trkpt>
      <trkpt lat="45.98244" lon="4.97515">
        <ele>288.799987793</ele>
        <time>2015-08-17T09:57:21.954Z</time>
      </trkpt>
      <trkpt lat="45.98256" lon="4.97542">
        <ele>289.399993896</ele>
        <time>2015-08-17T09:57:26.921Z</time>
      </trkpt>
      <trkpt lat="45.98258" lon="4.97555">
        <ele>290.200012207</ele>
        <time>2015-08-17T09:57:28.956Z</time>
      </trkpt>
      <trkpt lat="45.98269" lon="4.97579">
        <ele>291.100006104</ele>
        <time>2015-08-17T09:57:32.965Z</time>
      </trkpt>
      <trkpt lat="45.98273" lon="4.97602">
        <ele>291.5</ele>
        <time>2015-08-17T09:57:35.911Z</time>
      </trkpt>
      <trkpt lat="45.98286" lon="4.97648">
        <ele>290.100006104</ele>
        <time>2015-08-17T09:57:41.921Z</time>
      </trkpt>
      <trkpt lat="45.98302" lon="4.97686">
        <ele>290.399993896</ele>
        <time>2015-08-17T09:57:46.98Z</time>
      </trkpt>
      <trkpt lat="45.98316" lon="4.97738">
        <ele>291.200012207</ele>
        <time>2015-08-17T09:57:52.99Z</time>
      </trkpt>
      <trkpt lat="45.9836" lon="4.97867">
        <ele>287.700012207</ele>
        <time>2015-08-17T09:58:05.926Z</time>
      </trkpt>
      <trkpt lat="45.98375" lon="4.97895">
        <ele>286</ele>
        <time>2015-08-17T09:58:08.986Z</time>
      </trkpt>
      <trkpt lat="45.98387" lon="4.97908">
        <ele>285.200012207</ele>
        <time>2015-08-17T09:58:11.008Z</time>
      </trkpt>
      <trkpt lat="45.98431" lon="4.97928">
        <ele>283.5</ele>
        <time>2015-08-17T09:58:17.926Z</time>
      </trkpt>
      <trkpt lat="45.98438" lon="4.9794">
        <ele>282.5</ele>
        <time>2015-08-17T09:58:19.92Z</time>
      </trkpt>
      <trkpt lat="45.9844" lon="4.97954">
        <ele>282</ele>
        <time>2015-08-17T09:58:21.91Z</time>
      </trkpt>
      <trkpt lat="45.98436" lon="4.98003">
        <ele>280.299987793</ele>
        <time>2015-08-17T09:58:28.951Z</time>
      </trkpt>
      <trkpt lat="45.98437" lon="4.98041">
        <ele>279.600006104</ele>
        <time>2015-08-17T09:58:32.924Z</time>
      </trkpt>
      <trkpt lat="45.98448" lon="4.98111">
        <ele>280.399993896</ele>
        <time>2015-08-17T09:58:39.996Z</time>
      </trkpt>
      <trkpt lat="45.98489" lon="4.98259">
        <ele>282.799987793</ele>
        <time>2015-08-17T09:58:57.957Z</time>
      </trkpt>
      <trkpt lat="45.98563" lon="4.98478">
        <ele>284.600006104</ele>
        <time>2015-08-17T09:59:25.968Z</time>
      </trkpt>
      <trkpt lat="45.98618" lon="4.98671">
        <ele>288.200012207</ele>
        <time>2015-08-17T09:59:51.954Z</time>
      </trkpt>
      <trkpt lat="45.98669" lon="4.98816">
        <ele>294.399993896</ele>
        <time>2015-08-17T10:00:13.952Z</time>
      </trkpt>
      <trkpt lat="45.98686" lon="4.98878">
        <ele>296.299987793</ele>
        <time>2015-08-17T10:00:23.961Z</time>
      </trkpt>
      <trkpt lat="45.98712" lon="4.98949">
        <ele>293.299987793</ele>
        <time>2015-08-17T10:00:33.962Z</time>
      </trkpt>
      <trkpt lat="45.98737" lon="4.98997">
        <ele>289.5</ele>
        <time>2015-08-17T10:00:40.924Z</time>
      </trkpt>
      <trkpt lat="45.98777" lon="4.9905">
        <ele>288.600006104</ele>
        <time>2015-08-17T10:00:49.956Z</time>
      </trkpt>
      <trkpt lat="45.98868" lon="4.99138">
        <ele>281.100006104</ele>
        <time>2015-08-17T10:01:07.959Z</time>
      </trkpt>
      <trkpt lat="45.98901" lon="4.99178">
        <ele>279.700012207</ele>
        <time>2015-08-17T10:01:14.925Z</time>
      </trkpt>
      <trkpt lat="45.98917" lon="4.99204">
        <ele>279.399993896</ele>
        <time>2015-08-17T10:01:18.932Z</time>
      </trkpt>
      <trkpt lat="45.98954" lon="4.99281">
        <ele>278.600006104</ele>
        <time>2015-08-17T10:01:29.98Z</time>
      </trkpt>
      <trkpt lat="45.99052" lon="4.99501">
        <ele>278.899993896</ele>
        <time>2015-08-17T10:01:58.923Z</time>
      </trkpt>
      <trkpt lat="45.99073" lon="4.99555">
        <ele>278</ele>
        <time>2015-08-17T10:02:05.971Z</time>
      </trkpt>
      <trkpt lat="45.99095" lon="4.996">
        <ele>278.100006104</ele>
        <time>2015-08-17T10:02:11.955Z</time>
      </trkpt>
      <trkpt lat="45.99114" lon="4.9965">
        <ele>279.100006104</ele>
        <time>2015-08-17T10:02:17.954Z</time>
      </trkpt>
      <trkpt lat="45.99315" lon="5.00106">
        <ele>282.100006104</ele>
        <time>2015-08-17T10:03:24.927Z</time>
      </trkpt>
      <trkpt lat="45.99335" lon="5.00145">
        <ele>282.200012207</ele>
        <time>2015-08-17T10:03:30.924Z</time>
      </trkpt>
      <trkpt lat="45.99347" lon="5.0018">
        <ele>281.799987793</ele>
        <time>2015-08-17T10:03:36.093Z</time>
      </trkpt>
      <trkpt lat="45.99396" lon="5.00296">
        <ele>279.5</ele>
        <time>2015-08-17T10:03:51.954Z</time>
      </trkpt>
      <trkpt lat="45.9945" lon="5.0041">
        <ele>277.299987793</ele>
        <time>2015-08-17T10:04:07.955Z</time>
      </trkpt>
      <trkpt lat="45.99467" lon="5.00452">
        <ele>276.100006104</ele>
        <time>2015-08-17T10:04:13.954Z</time>
      </trkpt>
      <trkpt lat="45.99549" lon="5.00624">
        <ele>273.799987793</ele>
        <time>2015-08-17T10:04:36.926Z</time>
      </trkpt>
      <trkpt lat="45.99688" lon="5.00945">
        <ele>272.799987793</ele>
        <time>2015-08-17T10:05:20.92Z</time>
      </trkpt>
      <trkpt lat="45.99745" lon="5.01059">
        <ele>270.299987793</ele>
        <time>2015-08-17T10:05:37.953Z</time>
      </trkpt>
      <trkpt lat="45.99775" lon="5.01135">
        <ele>272</ele>
        <time>2015-08-17T10:05:48.927Z</time>
      </trkpt>
      <trkpt lat="45.99819" lon="5.01233">
        <ele>273.5</ele>
        <time>2015-08-17T10:06:03.954Z</time>
      </trkpt>
      <trkpt lat="45.99854" lon="5.01301">
        <ele>274.5</ele>
        <time>2015-08-17T10:06:14.926Z</time>
      </trkpt>
      <trkpt lat="45.99924" lon="5.0147">
        <ele>276.700012207</ele>
        <time>2015-08-17T10:06:40.971Z</time>
      </trkpt>
      <trkpt lat="45.99945" lon="5.01529">
        <ele>277.5</ele>
        <time>2015-08-17T10:06:48.96Z</time>
      </trkpt>
      <trkpt lat="46.00035" lon="5.01826">
        <ele>278.100006104</ele>
        <time>2015-08-17T10:07:25.919Z</time>
      </trkpt>
      <trkpt lat="46.00073" lon="5.01967">
        <ele>276.799987793</ele>
        <time>2015-08-17T10:07:41.919Z</time>
      </trkpt>
      <trkpt lat="46.00126" lon="5.02151">
        <ele>275.100006104</ele>
        <time>2015-08-17T10:08:01.925Z</time>
      </trkpt>
      <trkpt lat="46.00132" lon="5.02187">
        <ele>275.799987793</ele>
        <time>2015-08-17T10:08:05.907Z</time>
      </trkpt>
      <trkpt lat="46.00127" lon="5.02231">
        <ele>276.299987793</ele>
        <time>2015-08-17T10:08:11.978Z</time>
      </trkpt>
      <trkpt lat="46.00147" lon="5.02253">
        <ele>276.200012207</ele>
        <time>2015-08-17T10:08:16.922Z</time>
      </trkpt>
      <trkpt lat="46.00164" lon="5.02283">
        <ele>275.799987793</ele>
        <time>2015-08-17T10:08:22.965Z</time>
      </trkpt>
      <trkpt lat="46.00204" lon="5.02427">
        <ele>277.399993896</ele>
        <time>2015-08-17T10:08:48.984Z</time>
      </trkpt>
      <trkpt lat="46.00212" lon="5.02446">
        <ele>277.100006104</ele>
        <time>2015-08-17T10:08:51.915Z</time>
      </trkpt>
      <trkpt lat="46.00261" lon="5.02623">
        <ele>279.100006104</ele>
        <time>2015-08-17T10:09:18.96Z</time>
      </trkpt>
      <trkpt lat="46.00269" lon="5.02636">
        <ele>279</ele>
        <time>2015-08-17T10:09:20.958Z</time>
      </trkpt>
      <trkpt lat="46.00347" lon="5.02725">
        <ele>279.200012207</ele>
        <time>2015-08-17T10:09:43.948Z</time>
      </trkpt>
      <trkpt lat="46.00372" lon="5.02713">
        <ele>278.399993896</ele>
        <time>2015-08-17T10:09:49.963Z</time>
      </trkpt>
      <trkpt lat="46.00383" lon="5.02718">
        <ele>278.5</ele>
        <time>2015-08-17T10:09:52.955Z</time>
      </trkpt>
      <trkpt lat="46.00391" lon="5.02732">
        <ele>278.399993896</ele>
        <time>2015-08-17T10:09:55.967Z</time>
      </trkpt>
      <trkpt lat="46.00459" lon="5.02814">
        <ele>277.899993896</ele>
        <time>2015-08-17T10:10:13.959Z</time>
      </trkpt>
      <trkpt lat="46.00479" lon="5.02841">
        <ele>277.700012207</ele>
        <time>2015-08-17T10:10:19.92Z</time>
      </trkpt>
      <trkpt lat="46.00495" lon="5.02856">
        <ele>277.799987793</ele>
        <time>2015-08-17T10:10:23.917Z</time>
      </trkpt>
      <trkpt lat="46.0053" lon="5.029">
        <ele>279.700012207</ele>
        <time>2015-08-17T10:10:34.921Z</time>
      </trkpt>
      <trkpt lat="46.0056" lon="5.02953">
        <ele>282.200012207</ele>
        <time>2015-08-17T10:10:44.952Z</time>
      </trkpt>
      <trkpt lat="46.00589" lon="5.02992">
        <ele>281.399993896</ele>
        <time>2015-08-17T10:10:51.903Z</time>
      </trkpt>
      <trkpt lat="46.00618" lon="5.0301">
        <ele>280.600006104</ele>
        <time>2015-08-17T10:10:57.097Z</time>
      </trkpt>
      <trkpt lat="46.00648" lon="5.03022">
        <ele>280.600006104</ele>
        <time>2015-08-17T10:11:02.957Z</time>
      </trkpt>
      <trkpt lat="46.00699" lon="5.0303">
        <ele>278.700012207</ele>
        <time>2015-08-17T10:11:11.907Z</time>
      </trkpt>
      <trkpt lat="46.00756" lon="5.0303">
        <ele>275.100006104</ele>
        <time>2015-08-17T10:11:20.956Z</time>
      </trkpt>
      <trkpt lat="46.00791" lon="5.03039">
        <ele>274.299987793</ele>
        <time>2015-08-17T10:11:26.953Z</time>
      </trkpt>
      <trkpt lat="46.00813" lon="5.03056">
        <ele>271.399993896</ele>
        <time>2015-08-17T10:11:29.92Z</time>
      </trkpt>
      <trkpt lat="46.00818" lon="5.03056">
        <ele>271.100006104</ele>
        <time>2015-08-17T10:11:30.97Z</time>
      </trkpt>
      <trkpt lat="46.00926" lon="5.03138">
        <ele>267.600006104</ele>
        <time>2015-08-17T10:11:53.919Z</time>
      </trkpt>
      <trkpt lat="46.00955" lon="5.03155">
        <ele>266.700012207</ele>
        <time>2015-08-17T10:11:59.907Z</time>
      </trkpt>
      <trkpt lat="46.00978" lon="5.03175">
        <ele>267.5</ele>
        <time>2015-08-17T10:12:04.985Z</time>
      </trkpt>
      <trkpt lat="46.01061" lon="5.03233">
        <ele>270.399993896</ele>
        <time>2015-08-17T10:12:21.921Z</time>
      </trkpt>
      <trkpt lat="46.01154" lon="5.03288">
        <ele>274.399993896</ele>
        <time>2015-08-17T10:12:40.954Z</time>
      </trkpt>
      <trkpt lat="46.01204" lon="5.03323">
        <ele>277</ele>
        <time>2015-08-17T10:12:51.919Z</time>
      </trkpt>
      <trkpt lat="46.01228" lon="5.03337">
        <ele>278.200012207</ele>
        <time>2015-08-17T10:12:56.956Z</time>
      </trkpt>
      <trkpt lat="46.01235" lon="5.03337">
        <ele>278.700012207</ele>
        <time>2015-08-17T10:12:57.921Z</time>
      </trkpt>
      <trkpt lat="46.0124" lon="5.03342">
        <ele>279.399993896</ele>
        <time>2015-08-17T10:12:58.971Z</time>
      </trkpt>
      <trkpt lat="46.01285" lon="5.03366">
        <ele>279.399993896</ele>
        <time>2015-08-17T10:13:07.921Z</time>
      </trkpt>
      <trkpt lat="46.01323" lon="5.03378">
        <ele>280</ele>
        <time>2015-08-17T10:13:15.918Z</time>
      </trkpt>
      <trkpt lat="46.01434" lon="5.03399">
        <ele>279.299987793</ele>
        <time>2015-08-17T10:13:37.952Z</time>
      </trkpt>
      <trkpt lat="46.01506" lon="5.03416">
        <ele>278</ele>
        <time>2015-08-17T10:13:49.954Z</time>
      </trkpt>
      <trkpt lat="46.01532" lon="5.03419">
        <ele>276.299987793</ele>
        <time>2015-08-17T10:13:53.955Z</time>
      </trkpt>
      <trkpt lat="46.01569" lon="5.03431">
        <ele>276.399993896</ele>
        <time>2015-08-17T10:13:59.967Z</time>
      </trkpt>
      <trkpt lat="46.0158" lon="5.03431">
        <ele>274.5</ele>
        <time>2015-08-17T10:14:01.961Z</time>
      </trkpt>
      <trkpt lat="46.01596" lon="5.03439">
        <ele>274.100006104</ele>
        <time>2015-08-17T10:14:04.915Z</time>
      </trkpt>
      <trkpt lat="46.0169" lon="5.0347">
        <ele>270</ele>
        <time>2015-08-17T10:14:20.919Z</time>
      </trkpt>
      <trkpt lat="46.01804" lon="5.03502">
        <ele>273.600006104</ele>
        <time>2015-08-17T10:14:40.915Z</time>
      </trkpt>
      <trkpt lat="46.01863" lon="5.03514">
        <ele>275.200012207</ele>
        <time>2015-08-17T10:14:51.921Z</time>
      </trkpt>
      <trkpt lat="46.01896" lon="5.03527">
        <ele>274.299987793</ele>
        <time>2015-08-17T10:14:57.92Z</time>
      </trkpt>
      <trkpt lat="46.01974" lon="5.03544">
        <ele>271.899993896</ele>
        <time>2015-08-17T10:15:11.918Z</time>
      </trkpt>
      <trkpt lat="46.02078" lon="5.03561">
        <ele>273.600006104</ele>
        <time>2015-08-17T10:15:31.007Z</time>
      </trkpt>
      <trkpt lat="46.02194" lon="5.0357">
        <ele>272</ele>
        <time>2015-08-17T10:15:53.956Z</time>
      </trkpt>
      <trkpt lat="46.02245" lon="5.036">
        <ele>276.200012207</ele>
        <time>2015-08-17T10:16:08.98Z</time>
      </trkpt>
      <trkpt lat="46.02252" lon="5.03601">
        <ele>277</ele>
        <time>2015-08-17T10:16:11.178Z</time>
      </trkpt>
      <trkpt lat="46.02307" lon="5.03633">
        <ele>277.5</ele>
        <time>2015-08-17T10:16:23.358Z</time>
      </trkpt>
      <trkpt lat="46.02326" lon="5.0364">
        <ele>273.5</ele>
        <time>2015-08-17T10:16:25.928Z</time>
      </trkpt>
      <trkpt lat="46.0235" lon="5.03638">
        <ele>273.299987793</ele>
        <time>2015-08-17T10:16:28.93Z</time>
      </trkpt>
      <trkpt lat="46.02396" lon="5.03643">
        <ele>272.5</ele>
        <time>2015-08-17T10:16:37.96Z</time>
      </trkpt>
      <trkpt lat="46.02501" lon="5.03662">
        <ele>274.5</ele>
        <time>2015-08-17T10:16:59.96Z</time>
      </trkpt>
      <trkpt lat="46.02531" lon="5.03672">
        <ele>275.5</ele>
        <time>2015-08-17T10:17:05.963Z</time>
      </trkpt>
      <trkpt lat="46.02623" lon="5.03687">
        <ele>272.200012207</ele>
        <time>2015-08-17T10:17:22.993Z</time>
      </trkpt>
      <trkpt lat="46.0281" lon="5.0373">
        <ele>275.299987793</ele>
        <time>2015-08-17T10:18:01.96Z</time>
      </trkpt>
      <trkpt lat="46.02831" lon="5.03738">
        <ele>275.299987793</ele>
        <time>2015-08-17T10:18:06.038Z</time>
      </trkpt>
      <trkpt lat="46.02845" lon="5.0374">
        <ele>275</ele>
        <time>2015-08-17T10:18:08.93Z</time>
      </trkpt>
      <trkpt lat="46.02866" lon="5.03748">
        <ele>275.100006104</ele>
        <time>2015-08-17T10:18:13.983Z</time>
      </trkpt>
      <trkpt lat="46.03131" lon="5.03807">
        <ele>272.299987793</ele>
        <time>2015-08-17T10:19:09.906Z</time>
      </trkpt>
      <trkpt lat="46.03165" lon="5.03821">
        <ele>275</ele>
        <time>2015-08-17T10:19:15.918Z</time>
      </trkpt>
      <trkpt lat="46.03217" lon="5.03827">
        <ele>279.299987793</ele>
        <time>2015-08-17T10:19:25.906Z</time>
      </trkpt>
      <trkpt lat="46.03291" lon="5.03804">
        <ele>273</ele>
        <time>2015-08-17T10:19:38.952Z</time>
      </trkpt>
      <trkpt lat="46.03323" lon="5.03799">
        <ele>275</ele>
        <time>2015-08-17T10:19:45.906Z</time>
      </trkpt>
      <trkpt lat="46.03343" lon="5.03801">
        <ele>278.100006104</ele>
        <time>2015-08-17T10:19:49.947Z</time>
      </trkpt>
      <trkpt lat="46.03382" lon="5.03792">
        <ele>277</ele>
        <time>2015-08-17T10:19:56.987Z</time>
      </trkpt>
      <trkpt lat="46.03399" lon="5.03791">
        <ele>277</ele>
        <time>2015-08-17T10:19:59.918Z</time>
      </trkpt>
      <trkpt lat="46.03427" lon="5.03781">
        <ele>275.5</ele>
        <time>2015-08-17T10:20:04.992Z</time>
      </trkpt>
      <trkpt lat="46.03477" lon="5.03758">
        <ele>273.899993896</ele>
        <time>2015-08-17T10:20:13.917Z</time>
      </trkpt>
      <trkpt lat="46.03586" lon="5.03735">
        <ele>266.299987793</ele>
        <time>2015-08-17T10:20:35.92Z</time>
      </trkpt>
      <trkpt lat="46.03632" lon="5.03738">
        <ele>267.700012207</ele>
        <time>2015-08-17T10:20:45.007Z</time>
      </trkpt>
      <trkpt lat="46.03748" lon="5.03728">
        <ele>267.899993896</ele>
        <time>2015-08-17T10:21:07.92Z</time>
      </trkpt>
      <trkpt lat="46.03877" lon="5.03724">
        <ele>272.799987793</ele>
        <time>2015-08-17T10:21:33.906Z</time>
      </trkpt>
      <trkpt lat="46.03921" lon="5.03714">
        <ele>275.700012207</ele>
        <time>2015-08-17T10:21:43.023Z</time>
      </trkpt>
      <trkpt lat="46.03992" lon="5.03679">
        <ele>271.100006104</ele>
        <time>2015-08-17T10:21:58.018Z</time>
      </trkpt>
      <trkpt lat="46.04065" lon="5.03651">
        <ele>266.200012207</ele>
        <time>2015-08-17T10:22:12.01Z</time>
      </trkpt>
      <trkpt lat="46.04137" lon="5.03628">
        <ele>266.200012207</ele>
        <time>2015-08-17T10:22:25.965Z</time>
      </trkpt>
      <trkpt lat="46.04264" lon="5.0358">
        <ele>269.799987793</ele>
        <time>2015-08-17T10:22:50.921Z</time>
      </trkpt>
      <trkpt lat="46.04288" lon="5.03568">
        <ele>271</ele>
        <time>2015-08-17T10:22:55.96Z</time>
      </trkpt>
      <trkpt lat="46.04346" lon="5.03518">
        <ele>271.200012207</ele>
        <time>2015-08-17T10:23:08.919Z</time>
      </trkpt>
      <trkpt lat="46.04395" lon="5.03467">
        <ele>274.399993896</ele>
        <time>2015-08-17T10:23:22.959Z</time>
      </trkpt>
      <trkpt lat="46.04417" lon="5.0345">
        <ele>275.200012207</ele>
        <time>2015-08-17T10:23:27.96Z</time>
      </trkpt>
      <trkpt lat="46.04538" lon="5.03324">
        <ele>272.700012207</ele>
        <time>2015-08-17T10:23:57.919Z</time>
      </trkpt>
      <trkpt lat="46.04548" lon="5.0332">
        <ele>272.399993896</ele>
        <time>2015-08-17T10:24:00.921Z</time>
      </trkpt>
      <trkpt lat="46.04556" lon="5.03323">
        <ele>272.700012207</ele>
        <time>2015-08-17T10:24:02.96Z</time>
      </trkpt>
      <trkpt lat="46.04603" lon="5.03363">
        <ele>273.399993896</ele>
        <time>2015-08-17T10:24:13.96Z</time>
      </trkpt>
      <trkpt lat="46.04633" lon="5.03381">
        <ele>271.5</ele>
        <time>2015-08-17T10:24:19.975Z</time>
      </trkpt>
      <trkpt lat="46.04662" lon="5.03404">
        <ele>270.700012207</ele>
        <time>2015-08-17T10:24:25.96Z</time>
      </trkpt>
      <trkpt lat="46.04685" lon="5.03425">
        <ele>270.399993896</ele>
        <time>2015-08-17T10:24:29.96Z</time>
      </trkpt>
      <trkpt lat="46.04793" lon="5.03549">
        <ele>266.600006104</ele>
        <time>2015-08-17T10:24:45.919Z</time>
      </trkpt>
      <trkpt lat="46.04834" lon="5.03609">
        <ele>265.5</ele>
        <time>2015-08-17T10:24:51.918Z</time>
      </trkpt>
      <trkpt lat="46.04849" lon="5.03624">
        <ele>264.600006104</ele>
        <time>2015-08-17T10:24:53.963Z</time>
      </trkpt>
      <trkpt lat="46.04864" lon="5.03635">
        <ele>264.700012207</ele>
        <time>2015-08-17T10:24:55.963Z</time>
      </trkpt>
      <trkpt lat="46.04894" lon="5.03635">
        <ele>266.799987793</ele>
        <time>2015-08-17T10:24:59.963Z</time>
      </trkpt>
      <trkpt lat="46.0495" lon="5.03616">
        <ele>272.899993896</ele>
        <time>2015-08-17T10:25:22.96Z</time>
      </trkpt>
      <trkpt lat="46.04953" lon="5.03612">
        <ele>272.100006104</ele>
        <time>2015-08-17T10:25:23.923Z</time>
      </trkpt>
      <trkpt lat="46.0496" lon="5.03587">
        <ele>274.899993896</ele>
        <time>2015-08-17T10:25:30.923Z</time>
      </trkpt>
      <trkpt lat="46.04957" lon="5.03576">
        <ele>275.600006104</ele>
        <time>2015-08-17T10:25:34.963Z</time>
      </trkpt>
      <trkpt lat="46.04947" lon="5.03569">
        <ele>277.299987793</ele>
        <time>2015-08-17T10:25:39.952Z</time>
      </trkpt>
      <trkpt lat="46.04913" lon="5.03559">
        <ele>280.299987793</ele>
        <time>2015-08-17T10:26:12.957Z</time>
      </trkpt>
      <trkpt lat="46.0491" lon="5.03571">
        <ele>281</ele>
        <time>2015-08-17T10:26:53.963Z</time>
      </trkpt>
      <trkpt lat="46.04913" lon="5.0358">
        <ele>280.899993896</ele>
        <time>2015-08-17T10:27:56.981Z</time>
      </trkpt>
      <trkpt lat="46.04913" lon="5.0359">
        <ele>281.200012207</ele>
        <time>2015-08-17T10:28:37.923Z</time>
      </trkpt>
      <trkpt lat="46.04921" lon="5.03586">
        <ele>281.600006104</ele>
        <time>2015-08-17T10:29:07.035Z</time>
      </trkpt>
      <trkpt lat="46.04923" lon="5.03588">
        <ele>281.600006104</ele>
        <time>2015-08-17T10:29:07.902Z</time>
      </trkpt>
      <trkpt lat="46.04915" lon="5.03582">
        <ele>281.899993896</ele>
        <time>2015-08-17T10:29:41.919Z</time>
      </trkpt>
      <trkpt lat="46.04923" lon="5.03576">
        <ele>282.200012207</ele>
        <time>2015-08-17T10:30:07.919Z</time>
      </trkpt>
      <trkpt lat="46.04914" lon="5.03573">
        <ele>282.399993896</ele>
        <time>2015-08-17T10:30:19.939Z</time>
      </trkpt>
      <trkpt lat="46.04932" lon="5.03564">
        <ele>282.100006104</ele>
        <time>2015-08-17T10:30:39.955Z</time>
      </trkpt>
      <trkpt lat="46.04955" lon="5.0357">
        <ele>281</ele>
        <time>2015-08-17T10:30:49.933Z</time>
      </trkpt>
      <trkpt lat="46.04974" lon="5.03554">
        <ele>279.5</ele>
        <time>2015-08-17T10:30:56.975Z</time>
      </trkpt>
      <trkpt lat="46.05014" lon="5.03539">
        <ele>281.299987793</ele>
        <time>2015-08-17T10:31:08.919Z</time>
      </trkpt>
      <trkpt lat="46.05043" lon="5.03522">
        <ele>282.200012207</ele>
        <time>2015-08-17T10:31:16.992Z</time>
      </trkpt>
      <trkpt lat="46.05145" lon="5.03446">
        <ele>275.399993896</ele>
        <time>2015-08-17T10:31:44.919Z</time>
      </trkpt>
      <trkpt lat="46.05179" lon="5.03428">
        <ele>274.100006104</ele>
        <time>2015-08-17T10:31:53.905Z</time>
      </trkpt>
      <trkpt lat="46.05231" lon="5.03394">
        <ele>274.5</ele>
        <time>2015-08-17T10:32:06.964Z</time>
      </trkpt>
      <trkpt lat="46.05248" lon="5.03374">
        <ele>274.5</ele>
        <time>2015-08-17T10:32:11.961Z</time>
      </trkpt>
      <trkpt lat="46.0527" lon="5.03332">
        <ele>272.799987793</ele>
        <time>2015-08-17T10:32:19.919Z</time>
      </trkpt>
      <trkpt lat="46.05367" lon="5.03174">
        <ele>273.299987793</ele>
        <time>2015-08-17T10:32:50.919Z</time>
      </trkpt>
      <trkpt lat="46.054" lon="5.03117">
        <ele>270.899993896</ele>
        <time>2015-08-17T10:33:00.915Z</time>
      </trkpt>
      <trkpt lat="46.05494" lon="5.02966">
        <ele>271.399993896</ele>
        <time>2015-08-17T10:33:28.916Z</time>
      </trkpt>
      <trkpt lat="46.05507" lon="5.02952">
        <ele>271.399993896</ele>
        <time>2015-08-17T10:33:31.952Z</time>
      </trkpt>
      <trkpt lat="46.05522" lon="5.02944">
        <ele>271.700012207</ele>
        <time>2015-08-17T10:33:34.904Z</time>
      </trkpt>
      <trkpt lat="46.05541" lon="5.02941">
        <ele>271.399993896</ele>
        <time>2015-08-17T10:33:38.919Z</time>
      </trkpt>
      <trkpt lat="46.05567" lon="5.02944">
        <ele>271</ele>
        <time>2015-08-17T10:33:45.003Z</time>
      </trkpt>
      <trkpt lat="46.05631" lon="5.02964">
        <ele>272.100006104</ele>
        <time>2015-08-17T10:33:58.914Z</time>
      </trkpt>
      <trkpt lat="46.05726" lon="5.02987">
        <ele>272.100006104</ele>
        <time>2015-08-17T10:34:18.922Z</time>
      </trkpt>
      <trkpt lat="46.05845" lon="5.02997">
        <ele>272.100006104</ele>
        <time>2015-08-17T10:34:41.951Z</time>
      </trkpt>
      <trkpt lat="46.05941" lon="5.02997">
        <ele>273.799987793</ele>
        <time>2015-08-17T10:35:00.919Z</time>
      </trkpt>
      <trkpt lat="46.0605" lon="5.02982">
        <ele>270.200012207</ele>
        <time>2015-08-17T10:35:22.917Z</time>
      </trkpt>
      <trkpt lat="46.06315" lon="5.02986">
        <ele>263.600006104</ele>
        <time>2015-08-17T10:36:10.904Z</time>
      </trkpt>
      <trkpt lat="46.06352" lon="5.02982">
        <ele>260.200012207</ele>
        <time>2015-08-17T10:36:16.916Z</time>
      </trkpt>
      <trkpt lat="46.06404" lon="5.02982">
        <ele>258.700012207</ele>
        <time>2015-08-17T10:36:24.917Z</time>
      </trkpt>
      <trkpt lat="46.06444" lon="5.02975">
        <ele>258.299987793</ele>
        <time>2015-08-17T10:36:32.028Z</time>
      </trkpt>
      <trkpt lat="46.06462" lon="5.02969">
        <ele>257.5</ele>
        <time>2015-08-17T10:36:34.917Z</time>
      </trkpt>
      <trkpt lat="46.06513" lon="5.0296">
        <ele>259.5</ele>
        <time>2015-08-17T10:36:43.961Z</time>
      </trkpt>
      <trkpt lat="46.06538" lon="5.02952">
        <ele>260</ele>
        <time>2015-08-17T10:36:48.921Z</time>
      </trkpt>
      <trkpt lat="46.06619" lon="5.02917">
        <ele>257.799987793</ele>
        <time>2015-08-17T10:37:03.951Z</time>
      </trkpt>
      <trkpt lat="46.06691" lon="5.02874">
        <ele>254.5</ele>
        <time>2015-08-17T10:37:16.917Z</time>
      </trkpt>
      <trkpt lat="46.06749" lon="5.02847">
        <ele>250.899993896</ele>
        <time>2015-08-17T10:37:25.958Z</time>
      </trkpt>
      <trkpt lat="46.06788" lon="5.02819">
        <ele>248.699996948</ele>
        <time>2015-08-17T10:37:33.961Z</time>
      </trkpt>
      <trkpt lat="46.06854" lon="5.0279">
        <ele>248.5</ele>
        <time>2015-08-17T10:37:45.956Z</time>
      </trkpt>
      <trkpt lat="46.06875" lon="5.02778">
        <ele>248.5</ele>
        <time>2015-08-17T10:37:49.953Z</time>
      </trkpt>
      <trkpt lat="46.0689" lon="5.02777">
        <ele>248.399993896</ele>
        <time>2015-08-17T10:37:53.919Z</time>
      </trkpt>
      <trkpt lat="46.06887" lon="5.02818">
        <ele>248.699996948</ele>
        <time>2015-08-17T10:38:00.909Z</time>
      </trkpt>
      <trkpt lat="46.06888" lon="5.02862">
        <ele>249.699996948</ele>
        <time>2015-08-17T10:38:05.96Z</time>
      </trkpt>
      <trkpt lat="46.06898" lon="5.02967">
        <ele>249.899993896</ele>
        <time>2015-08-17T10:38:18.921Z</time>
      </trkpt>
      <trkpt lat="46.06907" lon="5.03036">
        <ele>251.300003052</ele>
        <time>2015-08-17T10:38:27.958Z</time>
      </trkpt>
      <trkpt lat="46.06908" lon="5.03128">
        <ele>250.800003052</ele>
        <time>2015-08-17T10:38:40.043Z</time>
      </trkpt>
      <trkpt lat="46.06924" lon="5.03249">
        <ele>251.899993896</ele>
        <time>2015-08-17T10:38:54.919Z</time>
      </trkpt>
      <trkpt lat="46.0693" lon="5.03277">
        <ele>252.399993896</ele>
        <time>2015-08-17T10:38:57.961Z</time>
      </trkpt>
      <trkpt lat="46.06939" lon="5.03354">
        <ele>254</ele>
        <time>2015-08-17T10:39:06.919Z</time>
      </trkpt>
      <trkpt lat="46.06941" lon="5.03422">
        <ele>255</ele>
        <time>2015-08-17T10:39:14.905Z</time>
      </trkpt>
      <trkpt lat="46.06953" lon="5.03472">
        <ele>255.300003052</ele>
        <time>2015-08-17T10:39:20.914Z</time>
      </trkpt>
      <trkpt lat="46.06978" lon="5.03532">
        <ele>256.600006104</ele>
        <time>2015-08-17T10:39:28.912Z</time>
      </trkpt>
      <trkpt lat="46.06986" lon="5.03558">
        <ele>257.399993896</ele>
        <time>2015-08-17T10:39:32.918Z</time>
      </trkpt>
      <trkpt lat="46.0703" lon="5.03659">
        <ele>263.299987793</ele>
        <time>2015-08-17T10:39:51.917Z</time>
      </trkpt>
      <trkpt lat="46.07089" lon="5.0383">
        <ele>272.100006104</ele>
        <time>2015-08-17T10:40:29.961Z</time>
      </trkpt>
      <trkpt lat="46.07097" lon="5.03847">
        <ele>273.100006104</ele>
        <time>2015-08-17T10:40:33.919Z</time>
      </trkpt>
      <trkpt lat="46.07112" lon="5.03897">
        <ele>274.600006104</ele>
        <time>2015-08-17T10:40:42.936Z</time>
      </trkpt>
      <trkpt lat="46.07147" lon="5.03984">
        <ele>276</ele>
        <time>2015-08-17T10:41:00.921Z</time>
      </trkpt>
      <trkpt lat="46.07155" lon="5.04011">
        <ele>276.299987793</ele>
        <time>2015-08-17T10:41:05.955Z</time>
      </trkpt>
      <trkpt lat="46.07167" lon="5.04041">
        <ele>276.399993896</ele>
        <time>2015-08-17T10:41:10.917Z</time>
      </trkpt>
      <trkpt lat="46.0718" lon="5.04087">
        <ele>277.899993896</ele>
        <time>2015-08-17T10:41:18.056Z</time>
      </trkpt>
      <trkpt lat="46.07192" lon="5.04117">
        <ele>278.5</ele>
        <time>2015-08-17T10:41:22.916Z</time>
      </trkpt>
      <trkpt lat="46.07205" lon="5.0416">
        <ele>278.799987793</ele>
        <time>2015-08-17T10:41:29.916Z</time>
      </trkpt>
      <trkpt lat="46.07239" lon="5.04247">
        <ele>272.5</ele>
        <time>2015-08-17T10:41:43.917Z</time>
      </trkpt>
      <trkpt lat="46.07275" lon="5.04365">
        <ele>268.299987793</ele>
        <time>2015-08-17T10:42:04.917Z</time>
      </trkpt>
      <trkpt lat="46.07277" lon="5.04378">
        <ele>267.600006104</ele>
        <time>2015-08-17T10:42:09.915Z</time>
      </trkpt>
      <trkpt lat="46.07306" lon="5.04411">
        <ele>268.200012207</ele>
        <time>2015-08-17T10:42:17.919Z</time>
      </trkpt>
      <trkpt lat="46.07324" lon="5.04425">
        <ele>268.100006104</ele>
        <time>2015-08-17T10:42:21.912Z</time>
      </trkpt>
      <trkpt lat="46.07421" lon="5.04529">
        <ele>268</ele>
        <time>2015-08-17T10:42:45.913Z</time>
      </trkpt>
      <trkpt lat="46.07458" lon="5.04588">
        <ele>275.5</ele>
        <time>2015-08-17T10:42:58.964Z</time>
      </trkpt>
      <trkpt lat="46.0753" lon="5.04686">
        <ele>283.899993896</ele>
        <time>2015-08-17T10:43:18.963Z</time>
      </trkpt>
      <trkpt lat="46.07561" lon="5.0472">
        <ele>286.200012207</ele>
        <time>2015-08-17T10:43:26.989Z</time>
      </trkpt>
      <trkpt lat="46.07617" lon="5.04791">
        <ele>289.299987793</ele>
        <time>2015-08-17T10:43:39.95Z</time>
      </trkpt>
      <trkpt lat="46.07667" lon="5.04849">
        <ele>291.700012207</ele>
        <time>2015-08-17T10:43:50.917Z</time>
      </trkpt>
      <trkpt lat="46.07728" lon="5.04908">
        <ele>291.899993896</ele>
        <time>2015-08-17T10:44:04.914Z</time>
      </trkpt>
      <trkpt lat="46.07796" lon="5.04991">
        <ele>296.100006104</ele>
        <time>2015-08-17T10:44:19.981Z</time>
      </trkpt>
      <trkpt lat="46.07859" lon="5.05061">
        <ele>299.700012207</ele>
        <time>2015-08-17T10:44:32.918Z</time>
      </trkpt>
      <trkpt lat="46.07868" lon="5.05079">
        <ele>298.100006104</ele>
        <time>2015-08-17T10:44:34.917Z</time>
      </trkpt>
      <trkpt lat="46.07887" lon="5.05101">
        <ele>296.799987793</ele>
        <time>2015-08-17T10:44:37.95Z</time>
      </trkpt>
      <trkpt lat="46.07926" lon="5.05131">
        <ele>293.100006104</ele>
        <time>2015-08-17T10:44:41.915Z</time>
      </trkpt>
      <trkpt lat="46.07959" lon="5.05165">
        <ele>291.899993896</ele>
        <time>2015-08-17T10:44:46.914Z</time>
      </trkpt>
      <trkpt lat="46.08061" lon="5.05257">
        <ele>276.399993896</ele>
        <time>2015-08-17T10:45:06.922Z</time>
      </trkpt>
      <trkpt lat="46.08093" lon="5.05291">
        <ele>271.100006104</ele>
        <time>2015-08-17T10:45:13.982Z</time>
      </trkpt>
      <trkpt lat="46.08101" lon="5.05294">
        <ele>267.799987793</ele>
        <time>2015-08-17T10:45:14.919Z</time>
      </trkpt>
      <trkpt lat="46.08116" lon="5.05313">
        <ele>262.600006104</ele>
        <time>2015-08-17T10:45:19.92Z</time>
      </trkpt>
      <trkpt lat="46.08116" lon="5.05325">
        <ele>259.899993896</ele>
        <time>2015-08-17T10:45:26.003Z</time>
      </trkpt>
      <trkpt lat="46.08114" lon="5.05327">
        <ele>259</ele>
        <time>2015-08-17T10:45:26.914Z</time>
      </trkpt>
      <trkpt lat="46.0812" lon="5.05315">
        <ele>247.600006104</ele>
        <time>2015-08-17T10:45:40.919Z</time>
      </trkpt>
      <trkpt lat="46.08111" lon="5.05319">
        <ele>243.100006104</ele>
        <time>2015-08-17T10:45:51.008Z</time>
      </trkpt>
      <trkpt lat="46.08068" lon="5.05418">
        <ele>235</ele>
        <time>2015-08-17T10:46:09.957Z</time>
      </trkpt>
      <trkpt lat="46.08044" lon="5.05502">
        <ele>229.699996948</ele>
        <time>2015-08-17T10:46:22.915Z</time>
      </trkpt>
      <trkpt lat="46.08026" lon="5.05558">
        <ele>228.399993896</ele>
        <time>2015-08-17T10:46:31.915Z</time>
      </trkpt>
      <trkpt lat="46.08014" lon="5.05583">
        <ele>226.100006104</ele>
        <time>2015-08-17T10:46:36.956Z</time>
      </trkpt>
      <trkpt lat="46.08011" lon="5.05602">
        <ele>224.899993896</ele>
        <time>2015-08-17T10:46:39.953Z</time>
      </trkpt>
      <trkpt lat="46.08015" lon="5.05653">
        <ele>223.5</ele>
        <time>2015-08-17T10:46:49.903Z</time>
      </trkpt>
      <trkpt lat="46.08011" lon="5.05715">
        <ele>223.600006104</ele>
        <time>2015-08-17T10:47:01.923Z</time>
      </trkpt>
      <trkpt lat="46.08021" lon="5.05795">
        <ele>225</ele>
        <time>2015-08-17T10:47:16.913Z</time>
      </trkpt>
      <trkpt lat="46.08022" lon="5.05852">
        <ele>226.100006104</ele>
        <time>2015-08-17T10:47:28.018Z</time>
      </trkpt>
      <trkpt lat="46.08025" lon="5.05891">
        <ele>227.300003052</ele>
        <time>2015-08-17T10:47:34.915Z</time>
      </trkpt>
      <trkpt lat="46.08035" lon="5.05936">
        <ele>228.699996948</ele>
        <time>2015-08-17T10:47:42.966Z</time>
      </trkpt>
      <trkpt lat="46.08043" lon="5.06007">
        <ele>231.399993896</ele>
        <time>2015-08-17T10:47:55.917Z</time>
      </trkpt>
      <trkpt lat="46.08047" lon="5.06019">
        <ele>231.800003052</ele>
        <time>2015-08-17T10:47:57.933Z</time>
      </trkpt>
      <trkpt lat="46.0805" lon="5.06045">
        <ele>232.600006104</ele>
        <time>2015-08-17T10:48:01.967Z</time>
      </trkpt>
      <trkpt lat="46.08049" lon="5.06098">
        <ele>236.5</ele>
        <time>2015-08-17T10:48:09.903Z</time>
      </trkpt>
      <trkpt lat="46.08059" lon="5.06184">
        <ele>241.199996948</ele>
        <time>2015-08-17T10:48:22.957Z</time>
      </trkpt>
      <trkpt lat="46.08054" lon="5.06249">
        <ele>245.899993896</ele>
        <time>2015-08-17T10:48:32.955Z</time>
      </trkpt>
      <trkpt lat="46.0806" lon="5.06283">
        <ele>246.699996948</ele>
        <time>2015-08-17T10:48:37.917Z</time>
      </trkpt>
      <trkpt lat="46.08069" lon="5.06303">
        <ele>248.5</ele>
        <time>2015-08-17T10:48:40.959Z</time>
      </trkpt>
      <trkpt lat="46.08112" lon="5.06358">
        <ele>254.800003052</ele>
        <time>2015-08-17T10:48:51.952Z</time>
      </trkpt>
      <trkpt lat="46.08127" lon="5.06384">
        <ele>257.600006104</ele>
        <time>2015-08-17T10:48:56.915Z</time>
      </trkpt>
      <trkpt lat="46.08137" lon="5.06409">
        <ele>261.5</ele>
        <time>2015-08-17T10:49:00.919Z</time>
      </trkpt>
      <trkpt lat="46.08154" lon="5.06476">
        <ele>268.600006104</ele>
        <time>2015-08-17T10:49:11.902Z</time>
      </trkpt>
      <trkpt lat="46.08158" lon="5.06507">
        <ele>269</ele>
        <time>2015-08-17T10:49:16.93Z</time>
      </trkpt>
      <trkpt lat="46.08156" lon="5.06554">
        <ele>269.600006104</ele>
        <time>2015-08-17T10:49:23.922Z</time>
      </trkpt>
      <trkpt lat="46.08157" lon="5.06689">
        <ele>269.799987793</ele>
        <time>2015-08-17T10:49:43.918Z</time>
      </trkpt>
      <trkpt lat="46.08166" lon="5.06757">
        <ele>270.100006104</ele>
        <time>2015-08-17T10:49:53.964Z</time>
      </trkpt>
      <trkpt lat="46.08172" lon="5.06784">
        <ele>269.899993896</ele>
        <time>2015-08-17T10:49:58.968Z</time>
      </trkpt>
      <trkpt lat="46.08173" lon="5.06838">
        <ele>269.299987793</ele>
        <time>2015-08-17T10:50:06.924Z</time>
      </trkpt>
      <trkpt lat="46.08171" lon="5.06884">
        <ele>265.700012207</ele>
        <time>2015-08-17T10:50:13.969Z</time>
      </trkpt>
      <trkpt lat="46.08173" lon="5.06948">
        <ele>263.399993896</ele>
        <time>2015-08-17T10:50:22.919Z</time>
      </trkpt>
      <trkpt lat="46.08169" lon="5.06989">
        <ele>262.600006104</ele>
        <time>2015-08-17T10:50:28.956Z</time>
      </trkpt>
      <trkpt lat="46.08158" lon="5.0704">
        <ele>261.100006104</ele>
        <time>2015-08-17T10:50:38.917Z</time>
      </trkpt>
      <trkpt lat="46.0815" lon="5.07112">
        <ele>260.399993896</ele>
        <time>2015-08-17T10:50:50.917Z</time>
      </trkpt>
      <trkpt lat="46.08135" lon="5.07182">
        <ele>257.299987793</ele>
        <time>2015-08-17T10:50:59.95Z</time>
      </trkpt>
      <trkpt lat="46.0813" lon="5.0724">
        <ele>257.799987793</ele>
        <time>2015-08-17T10:51:06.918Z</time>
      </trkpt>
      <trkpt lat="46.08136" lon="5.07275">
        <ele>260.100006104</ele>
        <time>2015-08-17T10:51:11.953Z</time>
      </trkpt>
      <trkpt lat="46.08172" lon="5.07397">
        <ele>263.299987793</ele>
        <time>2015-08-17T10:51:27.952Z</time>
      </trkpt>
      <trkpt lat="46.08196" lon="5.07494">
        <ele>264.5</ele>
        <time>2015-08-17T10:51:40.916Z</time>
      </trkpt>
      <trkpt lat="46.08237" lon="5.07628">
        <ele>266.700012207</ele>
        <time>2015-08-17T10:52:00.954Z</time>
      </trkpt>
      <trkpt lat="46.0824" lon="5.07644">
        <ele>267.100006104</ele>
        <time>2015-08-17T10:52:02.955Z</time>
      </trkpt>
      <trkpt lat="46.08259" lon="5.077">
        <ele>267.200012207</ele>
        <time>2015-08-17T10:52:10.95Z</time>
      </trkpt>
      <trkpt lat="46.08286" lon="5.07796">
        <ele>268</ele>
        <time>2015-08-17T10:52:22.951Z</time>
      </trkpt>
      <trkpt lat="46.08308" lon="5.07891">
        <ele>267.200012207</ele>
        <time>2015-08-17T10:52:34.949Z</time>
      </trkpt>
      <trkpt lat="46.08311" lon="5.0792">
        <ele>267.100006104</ele>
        <time>2015-08-17T10:52:38.971Z</time>
      </trkpt>
      <trkpt lat="46.08376" lon="5.08215">
        <ele>266.200012207</ele>
        <time>2015-08-17T10:53:13.897Z</time>
      </trkpt>
      <trkpt lat="46.08392" lon="5.08263">
        <ele>266.5</ele>
        <time>2015-08-17T10:53:19.916Z</time>
      </trkpt>
      <trkpt lat="46.08418" lon="5.08381">
        <ele>267.700012207</ele>
        <time>2015-08-17T10:53:34.952Z</time>
      </trkpt>
      <trkpt lat="46.08429" lon="5.08418">
        <ele>267.700012207</ele>
        <time>2015-08-17T10:53:38.97Z</time>
      </trkpt>
      <trkpt lat="46.08476" lon="5.08642">
        <ele>264.5</ele>
        <time>2015-08-17T10:54:06.953Z</time>
      </trkpt>
      <trkpt lat="46.08483" lon="5.08655">
        <ele>264.899993896</ele>
        <time>2015-08-17T10:54:08.953Z</time>
      </trkpt>
      <trkpt lat="46.08492" lon="5.08664">
        <ele>266.299987793</ele>
        <time>2015-08-17T10:54:10.948Z</time>
      </trkpt>
      <trkpt lat="46.08552" lon="5.08703">
        <ele>271.700012207</ele>
        <time>2015-08-17T10:54:23.902Z</time>
      </trkpt>
      <trkpt lat="46.08577" lon="5.08732">
        <ele>274.600006104</ele>
        <time>2015-08-17T10:54:30.972Z</time>
      </trkpt>
      <trkpt lat="46.08615" lon="5.08795">
        <ele>276.899993896</ele>
        <time>2015-08-17T10:54:42.954Z</time>
      </trkpt>
      <trkpt lat="46.08651" lon="5.08843">
        <ele>277.299987793</ele>
        <time>2015-08-17T10:54:51.913Z</time>
      </trkpt>
      <trkpt lat="46.08696" lon="5.08916">
        <ele>278.5</ele>
        <time>2015-08-17T10:55:06.995Z</time>
      </trkpt>
      <trkpt lat="46.08794" lon="5.09053">
        <ele>279.200012207</ele>
        <time>2015-08-17T10:55:31.916Z</time>
      </trkpt>
      <trkpt lat="46.08811" lon="5.09084">
        <ele>279.100006104</ele>
        <time>2015-08-17T10:55:37.003Z</time>
      </trkpt>
      <trkpt lat="46.08855" lon="5.09141">
        <ele>276.299987793</ele>
        <time>2015-08-17T10:55:46.946Z</time>
      </trkpt>
      <trkpt lat="46.08903" lon="5.09212">
        <ele>276.299987793</ele>
        <time>2015-08-17T10:56:06.101Z</time>
      </trkpt>
      <trkpt lat="46.08957" lon="5.09302">
        <ele>274.399993896</ele>
        <time>2015-08-17T10:56:20.161Z</time>
      </trkpt>
      <trkpt lat="46.08983" lon="5.09377">
        <ele>272.100006104</ele>
        <time>2015-08-17T10:56:30.187Z</time>
      </trkpt>
      <trkpt lat="46.08983" lon="5.0941">
        <ele>271.700012207</ele>
        <time>2015-08-17T10:56:34.105Z</time>
      </trkpt>
      <trkpt lat="46.08992" lon="5.09492">
        <ele>270.200012207</ele>
        <time>2015-08-17T10:56:43.054Z</time>
      </trkpt>
      <trkpt lat="46.08999" lon="5.09516">
        <ele>269.700012207</ele>
        <time>2015-08-17T10:56:46.105Z</time>
      </trkpt>
      <trkpt lat="46.09021" lon="5.09648">
        <ele>268</ele>
        <time>2015-08-17T10:57:01.065Z</time>
      </trkpt>
      <trkpt lat="46.09026" lon="5.09692">
        <ele>267.5</ele>
        <time>2015-08-17T10:57:07.067Z</time>
      </trkpt>
      <trkpt lat="46.09048" lon="5.09815">
        <ele>262.299987793</ele>
        <time>2015-08-17T10:57:21.063Z</time>
      </trkpt>
      <trkpt lat="46.09057" lon="5.09896">
        <ele>259.899993896</ele>
        <time>2015-08-17T10:57:31.066Z</time>
      </trkpt>
      <trkpt lat="46.0907" lon="5.09964">
        <ele>252.800003052</ele>
        <time>2015-08-17T10:57:36.117Z</time>
      </trkpt>
      <trkpt lat="46.0912" lon="5.1007">
        <ele>248.100006104</ele>
        <time>2015-08-17T10:57:51.065Z</time>
      </trkpt>
      <trkpt lat="46.09216" lon="5.10255">
        <ele>247.5</ele>
        <time>2015-08-17T10:58:18.101Z</time>
      </trkpt>
      <trkpt lat="46.09247" lon="5.103">
        <ele>259.200012207</ele>
        <time>2015-08-17T10:58:24.11Z</time>
      </trkpt>
      <trkpt lat="46.09271" lon="5.10346">
        <ele>262.600006104</ele>
        <time>2015-08-17T10:58:32.102Z</time>
      </trkpt>
      <trkpt lat="46.09292" lon="5.10396">
        <ele>266</ele>
        <time>2015-08-17T10:58:40.113Z</time>
      </trkpt>
      <trkpt lat="46.09346" lon="5.10515">
        <ele>268.200012207</ele>
        <time>2015-08-17T10:58:58.118Z</time>
      </trkpt>
      <trkpt lat="46.09377" lon="5.10573">
        <ele>267.5</ele>
        <time>2015-08-17T10:59:07.065Z</time>
      </trkpt>
      <trkpt lat="46.09432" lon="5.10693">
        <ele>268.5</ele>
        <time>2015-08-17T10:59:25.065Z</time>
      </trkpt>
      <trkpt lat="46.09473" lon="5.10774">
        <ele>270.299987793</ele>
        <time>2015-08-17T10:59:38.107Z</time>
      </trkpt>
      <trkpt lat="46.09519" lon="5.10875">
        <ele>274.200012207</ele>
        <time>2015-08-17T10:59:54.11Z</time>
      </trkpt>
      <trkpt lat="46.09535" lon="5.10916">
        <ele>274.200012207</ele>
        <time>2015-08-17T11:00:00.115Z</time>
      </trkpt>
      <trkpt lat="46.09539" lon="5.10938">
        <ele>273.799987793</ele>
        <time>2015-08-17T11:00:03.045Z</time>
      </trkpt>
      <trkpt lat="46.09542" lon="5.10976">
        <ele>271.899993896</ele>
        <time>2015-08-17T11:00:08.11Z</time>
      </trkpt>
      <trkpt lat="46.09529" lon="5.11087">
        <ele>265.600006104</ele>
        <time>2015-08-17T11:00:25.066Z</time>
      </trkpt>
      <trkpt lat="46.09527" lon="5.11134">
        <ele>264.600006104</ele>
        <time>2015-08-17T11:00:31.062Z</time>
      </trkpt>
      <trkpt lat="46.0953" lon="5.11169">
        <ele>263</ele>
        <time>2015-08-17T11:00:35.064Z</time>
      </trkpt>
      <trkpt lat="46.09535" lon="5.11196">
        <ele>262</ele>
        <time>2015-08-17T11:00:38.141Z</time>
      </trkpt>
      <trkpt lat="46.09567" lon="5.11303">
        <ele>259</ele>
        <time>2015-08-17T11:00:49.057Z</time>
      </trkpt>
      <trkpt lat="46.09617" lon="5.11459">
        <ele>260.200012207</ele>
        <time>2015-08-17T11:01:08.113Z</time>
      </trkpt>
      <trkpt lat="46.09629" lon="5.11481">
        <ele>262.899993896</ele>
        <time>2015-08-17T11:01:11.044Z</time>
      </trkpt>
      <trkpt lat="46.0966" lon="5.11512">
        <ele>266.5</ele>
        <time>2015-08-17T11:01:17.066Z</time>
      </trkpt>
      <trkpt lat="46.09702" lon="5.11562">
        <ele>274.100006104</ele>
        <time>2015-08-17T11:01:27.064Z</time>
      </trkpt>
      <trkpt lat="46.09707" lon="5.11575">
        <ele>275</ele>
        <time>2015-08-17T11:01:29.065Z</time>
      </trkpt>
      <trkpt lat="46.09719" lon="5.11654">
        <ele>277.899993896</ele>
        <time>2015-08-17T11:01:43.067Z</time>
      </trkpt>
      <trkpt lat="46.09732" lon="5.1171">
        <ele>280.100006104</ele>
        <time>2015-08-17T11:01:55.066Z</time>
      </trkpt>
      <trkpt lat="46.0976" lon="5.11771">
        <ele>281.799987793</ele>
        <time>2015-08-17T11:02:10.142Z</time>
      </trkpt>
      <trkpt lat="46.09764" lon="5.1179">
        <ele>280.899993896</ele>
        <time>2015-08-17T11:02:14.07Z</time>
      </trkpt>
      <trkpt lat="46.09766" lon="5.11925">
        <ele>274.200012207</ele>
        <time>2015-08-17T11:02:33.047Z</time>
      </trkpt>
      <trkpt lat="46.09772" lon="5.11996">
        <ele>272.299987793</ele>
        <time>2015-08-17T11:02:41.045Z</time>
      </trkpt>
      <trkpt lat="46.09771" lon="5.12035">
        <ele>271.600006104</ele>
        <time>2015-08-17T11:02:45.067Z</time>
      </trkpt>
      <trkpt lat="46.09782" lon="5.12113">
        <ele>271.100006104</ele>
        <time>2015-08-17T11:02:55.067Z</time>
      </trkpt>
      <trkpt lat="46.09782" lon="5.12144">
        <ele>269.899993896</ele>
        <time>2015-08-17T11:02:59.066Z</time>
      </trkpt>
      <trkpt lat="46.09773" lon="5.12166">
        <ele>268.100006104</ele>
        <time>2015-08-17T11:03:02.122Z</time>
      </trkpt>
      <trkpt lat="46.09766" lon="5.12176">
        <ele>267</ele>
        <time>2015-08-17T11:03:04.161Z</time>
      </trkpt>
      <trkpt lat="46.09752" lon="5.12188">
        <ele>265.600006104</ele>
        <time>2015-08-17T11:03:08.055Z</time>
      </trkpt>
      <trkpt lat="46.0975" lon="5.12192">
        <ele>265.299987793</ele>
        <time>2015-08-17T11:03:09.109Z</time>
      </trkpt>
      <trkpt lat="46.09751" lon="5.1221">
        <ele>263</ele>
        <time>2015-08-17T11:03:11.104Z</time>
      </trkpt>
      <trkpt lat="46.09778" lon="5.12272">
        <ele>262.100006104</ele>
        <time>2015-08-17T11:03:22.104Z</time>
      </trkpt>
      <trkpt lat="46.098" lon="5.12311">
        <ele>263.899993896</ele>
        <time>2015-08-17T11:03:29.052Z</time>
      </trkpt>
      <trkpt lat="46.09807" lon="5.12339">
        <ele>264.299987793</ele>
        <time>2015-08-17T11:03:33.07Z</time>
      </trkpt>
      <trkpt lat="46.09815" lon="5.12385">
        <ele>264.200012207</ele>
        <time>2015-08-17T11:03:39.054Z</time>
      </trkpt>
      <trkpt lat="46.09817" lon="5.12413">
        <ele>263.799987793</ele>
        <time>2015-08-17T11:03:43.067Z</time>
      </trkpt>
      <trkpt lat="46.09812" lon="5.1247">
        <ele>263.5</ele>
        <time>2015-08-17T11:03:55.12Z</time>
      </trkpt>
      <trkpt lat="46.0982" lon="5.12486">
        <ele>264.399993896</ele>
        <time>2015-08-17T11:03:59.067Z</time>
      </trkpt>
      <trkpt lat="46.09827" lon="5.12516">
        <ele>264</ele>
        <time>2015-08-17T11:04:04.074Z</time>
      </trkpt>
      <trkpt lat="46.09836" lon="5.12539">
        <ele>263.799987793</ele>
        <time>2015-08-17T11:04:07.105Z</time>
      </trkpt>
      <trkpt lat="46.09882" lon="5.12596">
        <ele>264.799987793</ele>
        <time>2015-08-17T11:04:17.114Z</time>
      </trkpt>
      <trkpt lat="46.09894" lon="5.12621">
        <ele>264.600006104</ele>
        <time>2015-08-17T11:04:21.111Z</time>
      </trkpt>
      <trkpt lat="46.09902" lon="5.12644">
        <ele>264.299987793</ele>
        <time>2015-08-17T11:04:24.063Z</time>
      </trkpt>
      <trkpt lat="46.09907" lon="5.12673">
        <ele>263.700012207</ele>
        <time>2015-08-17T11:04:28.065Z</time>
      </trkpt>
      <trkpt lat="46.09917" lon="5.1271">
        <ele>262.600006104</ele>
        <time>2015-08-17T11:04:33.101Z</time>
      </trkpt>
      <trkpt lat="46.09933" lon="5.12789">
        <ele>262</ele>
        <time>2015-08-17T11:04:44.201Z</time>
      </trkpt>
      <trkpt lat="46.09933" lon="5.12802">
        <ele>261.5</ele>
        <time>2015-08-17T11:04:46.113Z</time>
      </trkpt>
      <trkpt lat="46.09939" lon="5.12821">
        <ele>261</ele>
        <time>2015-08-17T11:04:49.102Z</time>
      </trkpt>
      <trkpt lat="46.09943" lon="5.12856">
        <ele>260.299987793</ele>
        <time>2015-08-17T11:04:56.065Z</time>
      </trkpt>
      <trkpt lat="46.09948" lon="5.12865">
        <ele>260.399993896</ele>
        <time>2015-08-17T11:05:00.131Z</time>
      </trkpt>
      <trkpt lat="46.09948" lon="5.129">
        <ele>260.200012207</ele>
        <time>2015-08-17T11:05:15.105Z</time>
      </trkpt>
      <trkpt lat="46.09937" lon="5.12927">
        <ele>256.700012207</ele>
        <time>2015-08-17T11:05:28.065Z</time>
      </trkpt>
      <trkpt lat="46.09958" lon="5.12966">
        <ele>256.100006104</ele>
        <time>2015-08-17T11:11:53.045Z</time>
      </trkpt>
      <trkpt lat="46.09953" lon="5.12953">
        <ele>256</ele>
        <time>2015-08-17T11:14:39.065Z</time>
      </trkpt>
      <trkpt lat="46.09955" lon="5.12939">
        <ele>256.899993896</ele>
        <time>2015-08-17T11:24:18.064Z</time>
      </trkpt>
      <trkpt lat="46.09973" lon="5.12907">
        <ele>258.700012207</ele>
        <time>2015-08-17T11:24:35.065Z</time>
      </trkpt>
      <trkpt lat="46.09954" lon="5.12935">
        <ele>261.100006104</ele>
        <time>2015-08-17T11:25:07.153Z</time>
      </trkpt>
      <trkpt lat="46.09951" lon="5.12945">
        <ele>261.600006104</ele>
        <time>2015-08-17T11:27:11.125Z</time>
      </trkpt>
      <trkpt lat="46.09952" lon="5.12955">
        <ele>261.899993896</ele>
        <time>2015-08-17T11:27:12.05Z</time>
      </trkpt>
      <trkpt lat="46.09948" lon="5.12953">
        <ele>262</ele>
        <time>2015-08-17T11:27:16.344Z</time>
      </trkpt>
      <trkpt lat="46.09946" lon="5.12941">
        <ele>262.5</ele>
        <time>2015-08-17T11:27:17.077Z</time>
      </trkpt>
      <trkpt lat="46.09951" lon="5.12929">
        <ele>263.5</ele>
        <time>2015-08-17T11:27:20.068Z</time>
      </trkpt>
      <trkpt lat="46.09944" lon="5.12934">
        <ele>264.100006104</ele>
        <time>2015-08-17T11:27:25.106Z</time>
      </trkpt>
      <trkpt lat="46.09934" lon="5.12925">
        <ele>264.200012207</ele>
        <time>2015-08-17T11:27:31.104Z</time>
      </trkpt>
      <trkpt lat="46.09916" lon="5.12929">
        <ele>265.299987793</ele>
        <time>2015-08-17T11:27:36.107Z</time>
      </trkpt>
      <trkpt lat="46.09899" lon="5.12925">
        <ele>265.700012207</ele>
        <time>2015-08-17T11:27:40.1Z</time>
      </trkpt>
      <trkpt lat="46.09894" lon="5.12919">
        <ele>266</ele>
        <time>2015-08-17T11:27:41.134Z</time>
      </trkpt>
      <trkpt lat="46.0987" lon="5.12921">
        <ele>266.100006104</ele>
        <time>2015-08-17T11:27:45.157Z</time>
      </trkpt>
      <trkpt lat="46.098" lon="5.12902">
        <ele>264.700012207</ele>
        <time>2015-08-17T11:27:54.063Z</time>
      </trkpt>
      <trkpt lat="46.09765" lon="5.12902">
        <ele>264.200012207</ele>
        <time>2015-08-17T11:27:58.113Z</time>
      </trkpt>
      <trkpt lat="46.09578" lon="5.12918">
        <ele>262.200012207</ele>
        <time>2015-08-17T11:28:17.062Z</time>
      </trkpt>
      <trkpt lat="46.09331" lon="5.12948">
        <ele>264.700012207</ele>
        <time>2015-08-17T11:28:53.078Z</time>
      </trkpt>
      <trkpt lat="46.09203" lon="5.12956">
        <ele>269.399993896</ele>
        <time>2015-08-17T11:29:17.064Z</time>
      </trkpt>
      <trkpt lat="46.09108" lon="5.13002">
        <ele>273</ele>
        <time>2015-08-17T11:29:35.063Z</time>
      </trkpt>
      <trkpt lat="46.08943" lon="5.13093">
        <ele>273.100006104</ele>
        <time>2015-08-17T11:30:07.064Z</time>
      </trkpt>
      <trkpt lat="46.08799" lon="5.13163">
        <ele>275.799987793</ele>
        <time>2015-08-17T11:30:37.064Z</time>
      </trkpt>
      <trkpt lat="46.08768" lon="5.1318">
        <ele>274.700012207</ele>
        <time>2015-08-17T11:30:43.06Z</time>
      </trkpt>
      <trkpt lat="46.08744" lon="5.13189">
        <ele>274.200012207</ele>
        <time>2015-08-17T11:30:48.097Z</time>
      </trkpt>
      <trkpt lat="46.08732" lon="5.13189">
        <ele>274</ele>
        <time>2015-08-17T11:30:50.105Z</time>
      </trkpt>
      <trkpt lat="46.08694" lon="5.132">
        <ele>273.700012207</ele>
        <time>2015-08-17T11:30:57.064Z</time>
      </trkpt>
      <trkpt lat="46.08688" lon="5.13199">
        <ele>273.700012207</ele>
        <time>2015-08-17T11:30:58.113Z</time>
      </trkpt>
      <trkpt lat="46.08633" lon="5.13215">
        <ele>273.799987793</ele>
        <time>2015-08-17T11:31:08.1Z</time>
      </trkpt>
      <trkpt lat="46.08602" lon="5.13231">
        <ele>274.200012207</ele>
        <time>2015-08-17T11:31:14.109Z</time>
      </trkpt>
      <trkpt lat="46.08564" lon="5.13244">
        <ele>274.399993896</ele>
        <time>2015-08-17T11:31:20.116Z</time>
      </trkpt>
      <trkpt lat="46.08559" lon="5.13251">
        <ele>274.399993896</ele>
        <time>2015-08-17T11:31:21.05Z</time>
      </trkpt>
      <trkpt lat="46.08545" lon="5.13255">
        <ele>274.700012207</ele>
        <time>2015-08-17T11:31:23.06Z</time>
      </trkpt>
      <trkpt lat="46.08483" lon="5.13283">
        <ele>276</ele>
        <time>2015-08-17T11:31:34.119Z</time>
      </trkpt>
      <trkpt lat="46.08479" lon="5.13292">
        <ele>278.200012207</ele>
        <time>2015-08-17T11:31:35.071Z</time>
      </trkpt>
      <trkpt lat="46.08386" lon="5.13345">
        <ele>283.799987793</ele>
        <time>2015-08-17T11:31:52.105Z</time>
      </trkpt>
      <trkpt lat="46.08373" lon="5.13358">
        <ele>284.299987793</ele>
        <time>2015-08-17T11:31:55.066Z</time>
      </trkpt>
      <trkpt lat="46.08235" lon="5.1344">
        <ele>281.899993896</ele>
        <time>2015-08-17T11:32:22.065Z</time>
      </trkpt>
      <trkpt lat="46.08105" lon="5.13532">
        <ele>281.100006104</ele>
        <time>2015-08-17T11:32:50.068Z</time>
      </trkpt>
      <trkpt lat="46.08088" lon="5.1354">
        <ele>280.899993896</ele>
        <time>2015-08-17T11:32:53.104Z</time>
      </trkpt>
      <trkpt lat="46.08077" lon="5.13542">
        <ele>281.100006104</ele>
        <time>2015-08-17T11:32:55.116Z</time>
      </trkpt>
      <trkpt lat="46.08035" lon="5.13566">
        <ele>281.5</ele>
        <time>2015-08-17T11:33:03.097Z</time>
      </trkpt>
      <trkpt lat="46.08019" lon="5.13571">
        <ele>281.600006104</ele>
        <time>2015-08-17T11:33:06.107Z</time>
      </trkpt>
      <trkpt lat="46.07966" lon="5.13605">
        <ele>282.100006104</ele>
        <time>2015-08-17T11:33:15.117Z</time>
      </trkpt>
      <trkpt lat="46.07948" lon="5.1362">
        <ele>282.200012207</ele>
        <time>2015-08-17T11:33:19.11Z</time>
      </trkpt>
      <trkpt lat="46.07898" lon="5.13646">
        <ele>282</ele>
        <time>2015-08-17T11:33:27.136Z</time>
      </trkpt>
      <trkpt lat="46.07885" lon="5.13674">
        <ele>283.200012207</ele>
        <time>2015-08-17T11:33:31.161Z</time>
      </trkpt>
      <trkpt lat="46.07803" lon="5.13737">
        <ele>282.600006104</ele>
        <time>2015-08-17T11:33:48.064Z</time>
      </trkpt>
      <trkpt lat="46.07761" lon="5.13763">
        <ele>281.299987793</ele>
        <time>2015-08-17T11:33:56.065Z</time>
      </trkpt>
      <trkpt lat="46.0771" lon="5.13802">
        <ele>280.5</ele>
        <time>2015-08-17T11:34:06.064Z</time>
      </trkpt>
      <trkpt lat="46.07608" lon="5.13873">
        <ele>284.399993896</ele>
        <time>2015-08-17T11:34:25.142Z</time>
      </trkpt>
      <trkpt lat="46.07566" lon="5.13909">
        <ele>283.700012207</ele>
        <time>2015-08-17T11:34:33.19Z</time>
      </trkpt>
      <trkpt lat="46.07451" lon="5.13995">
        <ele>286.399993896</ele>
        <time>2015-08-17T11:34:56.054Z</time>
      </trkpt>
      <trkpt lat="46.07398" lon="5.14018">
        <ele>287.700012207</ele>
        <time>2015-08-17T11:35:05.133Z</time>
      </trkpt>
      <trkpt lat="46.07351" lon="5.14044">
        <ele>288.5</ele>
        <time>2015-08-17T11:35:13.099Z</time>
      </trkpt>
      <trkpt lat="46.07264" lon="5.14077">
        <ele>291.799987793</ele>
        <time>2015-08-17T11:35:28.066Z</time>
      </trkpt>
      <trkpt lat="46.07241" lon="5.14091">
        <ele>292.5</ele>
        <time>2015-08-17T11:35:32.053Z</time>
      </trkpt>
      <trkpt lat="46.07171" lon="5.14125">
        <ele>292.799987793</ele>
        <time>2015-08-17T11:35:46.066Z</time>
      </trkpt>
      <trkpt lat="46.0713" lon="5.1414">
        <ele>293.799987793</ele>
        <time>2015-08-17T11:35:54.066Z</time>
      </trkpt>
      <trkpt lat="46.07125" lon="5.14138">
        <ele>293.100006104</ele>
        <time>2015-08-17T11:35:55.147Z</time>
      </trkpt>
      <trkpt lat="46.0707" lon="5.14176">
        <ele>297.899993896</ele>
        <time>2015-08-17T11:36:06.063Z</time>
      </trkpt>
      <trkpt lat="46.07031" lon="5.14197">
        <ele>298.5</ele>
        <time>2015-08-17T11:36:14.067Z</time>
      </trkpt>
      <trkpt lat="46.06987" lon="5.14231">
        <ele>294.299987793</ele>
        <time>2015-08-17T11:36:23.1Z</time>
      </trkpt>
      <trkpt lat="46.06906" lon="5.14284">
        <ele>288.100006104</ele>
        <time>2015-08-17T11:36:39.099Z</time>
      </trkpt>
      <trkpt lat="46.06736" lon="5.1438">
        <ele>283.899993896</ele>
        <time>2015-08-17T11:37:10.074Z</time>
      </trkpt>
      <trkpt lat="46.06621" lon="5.14433">
        <ele>284.700012207</ele>
        <time>2015-08-17T11:37:29.104Z</time>
      </trkpt>
      <trkpt lat="46.0658" lon="5.14461">
        <ele>282.700012207</ele>
        <time>2015-08-17T11:37:36.087Z</time>
      </trkpt>
      <trkpt lat="46.06373" lon="5.14576">
        <ele>284.399993896</ele>
        <time>2015-08-17T11:38:13.171Z</time>
      </trkpt>
      <trkpt lat="46.06358" lon="5.14588">
        <ele>284</ele>
        <time>2015-08-17T11:38:16.061Z</time>
      </trkpt>
      <trkpt lat="46.06276" lon="5.14634">
        <ele>283.100006104</ele>
        <time>2015-08-17T11:38:32.073Z</time>
      </trkpt>
      <trkpt lat="46.06085" lon="5.14714">
        <ele>287.5</ele>
        <time>2015-08-17T11:39:07.1Z</time>
      </trkpt>
      <trkpt lat="46.05849" lon="5.14803">
        <ele>280.799987793</ele>
        <time>2015-08-17T11:39:44.07Z</time>
      </trkpt>
      <trkpt lat="46.05795" lon="5.14815">
        <ele>282.600006104</ele>
        <time>2015-08-17T11:39:53.107Z</time>
      </trkpt>
      <trkpt lat="46.05756" lon="5.14816">
        <ele>283.100006104</ele>
        <time>2015-08-17T11:40:00.097Z</time>
      </trkpt>
      <trkpt lat="46.057" lon="5.14795">
        <ele>282.899993896</ele>
        <time>2015-08-17T11:40:10.068Z</time>
      </trkpt>
      <trkpt lat="46.0566" lon="5.14798">
        <ele>282.799987793</ele>
        <time>2015-08-17T11:40:16.077Z</time>
      </trkpt>
      <trkpt lat="46.05609" lon="5.14814">
        <ele>283</ele>
        <time>2015-08-17T11:40:25.11Z</time>
      </trkpt>
      <trkpt lat="46.05547" lon="5.14821">
        <ele>283.399993896</ele>
        <time>2015-08-17T11:40:37.132Z</time>
      </trkpt>
      <trkpt lat="46.05445" lon="5.1482">
        <ele>282</ele>
        <time>2015-08-17T11:40:54.098Z</time>
      </trkpt>
      <trkpt lat="46.05438" lon="5.14818">
        <ele>281.899993896</ele>
        <time>2015-08-17T11:40:55.065Z</time>
      </trkpt>
      <trkpt lat="46.0542" lon="5.14802">
        <ele>281.200012207</ele>
        <time>2015-08-17T11:40:58.116Z</time>
      </trkpt>
      <trkpt lat="46.05404" lon="5.14767">
        <ele>280.600006104</ele>
        <time>2015-08-17T11:41:03.137Z</time>
      </trkpt>
      <trkpt lat="46.05399" lon="5.14762">
        <ele>280.299987793</ele>
        <time>2015-08-17T11:41:04.109Z</time>
      </trkpt>
      <trkpt lat="46.05386" lon="5.14761">
        <ele>279.600006104</ele>
        <time>2015-08-17T11:41:06.1Z</time>
      </trkpt>
      <trkpt lat="46.05376" lon="5.14769">
        <ele>279.899993896</ele>
        <time>2015-08-17T11:41:08.103Z</time>
      </trkpt>
      <trkpt lat="46.0536" lon="5.14767">
        <ele>280</ele>
        <time>2015-08-17T11:41:11.063Z</time>
      </trkpt>
      <trkpt lat="46.05286" lon="5.14728">
        <ele>281.100006104</ele>
        <time>2015-08-17T11:41:24.105Z</time>
      </trkpt>
      <trkpt lat="46.05088" lon="5.14644">
        <ele>284.100006104</ele>
        <time>2015-08-17T11:41:58.197Z</time>
      </trkpt>
      <trkpt lat="46.05044" lon="5.1462">
        <ele>284.100006104</ele>
        <time>2015-08-17T11:42:08.071Z</time>
      </trkpt>
      <trkpt lat="46.05021" lon="5.14591">
        <ele>283.5</ele>
        <time>2015-08-17T11:42:14.07Z</time>
      </trkpt>
      <trkpt lat="46.05015" lon="5.1458">
        <ele>284.200012207</ele>
        <time>2015-08-17T11:42:16.065Z</time>
      </trkpt>
      <trkpt lat="46.04872" lon="5.14404">
        <ele>282</ele>
        <time>2015-08-17T11:42:47.249Z</time>
      </trkpt>
      <trkpt lat="46.04806" lon="5.14334">
        <ele>282.600006104</ele>
        <time>2015-08-17T11:43:00.059Z</time>
      </trkpt>
      <trkpt lat="46.04608" lon="5.14154">
        <ele>285.299987793</ele>
        <time>2015-08-17T11:43:38.063Z</time>
      </trkpt>
      <trkpt lat="46.04276" lon="5.13843">
        <ele>284.5</ele>
        <time>2015-08-17T11:44:36.062Z</time>
      </trkpt>
      <trkpt lat="46.04248" lon="5.13814">
        <ele>283.799987793</ele>
        <time>2015-08-17T11:44:41.1Z</time>
      </trkpt>
      <trkpt lat="46.04197" lon="5.13747">
        <ele>284.100006104</ele>
        <time>2015-08-17T11:44:51.109Z</time>
      </trkpt>
      <trkpt lat="46.04163" lon="5.13696">
        <ele>285.600006104</ele>
        <time>2015-08-17T11:44:58.062Z</time>
      </trkpt>
      <trkpt lat="46.04134" lon="5.13643">
        <ele>286.100006104</ele>
        <time>2015-08-17T11:45:05.106Z</time>
      </trkpt>
      <trkpt lat="46.0408" lon="5.13513">
        <ele>288.200012207</ele>
        <time>2015-08-17T11:45:21.112Z</time>
      </trkpt>
      <trkpt lat="46.04073" lon="5.13488">
        <ele>287.899993896</ele>
        <time>2015-08-17T11:45:24.048Z</time>
      </trkpt>
      <trkpt lat="46.04036" lon="5.13393">
        <ele>285.899993896</ele>
        <time>2015-08-17T11:45:36.048Z</time>
      </trkpt>
      <trkpt lat="46.04024" lon="5.13367">
        <ele>285.799987793</ele>
        <time>2015-08-17T11:45:40.064Z</time>
      </trkpt>
      <trkpt lat="46.04013" lon="5.13332">
        <ele>286</ele>
        <time>2015-08-17T11:45:45.12Z</time>
      </trkpt>
      <trkpt lat="46.04001" lon="5.13239">
        <ele>285</ele>
        <time>2015-08-17T11:45:59.062Z</time>
      </trkpt>
      <trkpt lat="46.04002" lon="5.13229">
        <ele>284.799987793</ele>
        <time>2015-08-17T11:46:00.143Z</time>
      </trkpt>
      <trkpt lat="46.03992" lon="5.13197">
        <ele>283.5</ele>
        <time>2015-08-17T11:46:04.142Z</time>
      </trkpt>
      <trkpt lat="46.03973" lon="5.1315">
        <ele>281.700012207</ele>
        <time>2015-08-17T11:46:10.096Z</time>
      </trkpt>
      <trkpt lat="46.03962" lon="5.13142">
        <ele>283.200012207</ele>
        <time>2015-08-17T11:46:11.059Z</time>
      </trkpt>
      <trkpt lat="46.03938" lon="5.13112">
        <ele>282.200012207</ele>
        <time>2015-08-17T11:46:14.063Z</time>
      </trkpt>
      <trkpt lat="46.03918" lon="5.13057">
        <ele>280.799987793</ele>
        <time>2015-08-17T11:46:20.053Z</time>
      </trkpt>
      <trkpt lat="46.03914" lon="5.13039">
        <ele>283</ele>
        <time>2015-08-17T11:46:22.063Z</time>
      </trkpt>
      <trkpt lat="46.03899" lon="5.12997">
        <ele>284.399993896</ele>
        <time>2015-08-17T11:46:27.101Z</time>
      </trkpt>
      <trkpt lat="46.03885" lon="5.12965">
        <ele>285.200012207</ele>
        <time>2015-08-17T11:46:31.095Z</time>
      </trkpt>
      <trkpt lat="46.0386" lon="5.12899">
        <ele>286.200012207</ele>
        <time>2015-08-17T11:46:40.052Z</time>
      </trkpt>
      <trkpt lat="46.0386" lon="5.12888">
        <ele>287.299987793</ele>
        <time>2015-08-17T11:46:42.134Z</time>
      </trkpt>
      <trkpt lat="46.0387" lon="5.12881">
        <ele>288.200012207</ele>
        <time>2015-08-17T11:46:44.111Z</time>
      </trkpt>
      <trkpt lat="46.03909" lon="5.12871">
        <ele>288.799987793</ele>
        <time>2015-08-17T11:46:51.062Z</time>
      </trkpt>
      <trkpt lat="46.03996" lon="5.12833">
        <ele>289.899993896</ele>
        <time>2015-08-17T11:47:07.111Z</time>
      </trkpt>
      <trkpt lat="46.04078" lon="5.12802">
        <ele>287.899993896</ele>
        <time>2015-08-17T11:47:20.108Z</time>
      </trkpt>
      <trkpt lat="46.04201" lon="5.12776">
        <ele>283.100006104</ele>
        <time>2015-08-17T11:47:42.107Z</time>
      </trkpt>
      <trkpt lat="46.04219" lon="5.12765">
        <ele>283.299987793</ele>
        <time>2015-08-17T11:47:46.104Z</time>
      </trkpt>
      <trkpt lat="46.04245" lon="5.12731">
        <ele>281.899993896</ele>
        <time>2015-08-17T11:47:51.123Z</time>
      </trkpt>
      <trkpt lat="46.04286" lon="5.1265">
        <ele>279.200012207</ele>
        <time>2015-08-17T11:48:02.098Z</time>
      </trkpt>
      <trkpt lat="46.04331" lon="5.12548">
        <ele>283</ele>
        <time>2015-08-17T11:48:15.072Z</time>
      </trkpt>
      <trkpt lat="46.04348" lon="5.12492">
        <ele>284.100006104</ele>
        <time>2015-08-17T11:48:21.061Z</time>
      </trkpt>
      <trkpt lat="46.04365" lon="5.1242">
        <ele>285.799987793</ele>
        <time>2015-08-17T11:48:29.064Z</time>
      </trkpt>
      <trkpt lat="46.04388" lon="5.12237">
        <ele>285</ele>
        <time>2015-08-17T11:48:48.095Z</time>
      </trkpt>
      <trkpt lat="46.04399" lon="5.12128">
        <ele>283.700012207</ele>
        <time>2015-08-17T11:49:00.121Z</time>
      </trkpt>
      <trkpt lat="46.04399" lon="5.12099">
        <ele>284.799987793</ele>
        <time>2015-08-17T11:49:03.047Z</time>
      </trkpt>
      <trkpt lat="46.04391" lon="5.12046">
        <ele>283.700012207</ele>
        <time>2015-08-17T11:49:09.058Z</time>
      </trkpt>
      <trkpt lat="46.0436" lon="5.11986">
        <ele>281.100006104</ele>
        <time>2015-08-17T11:49:17.058Z</time>
      </trkpt>
      <trkpt lat="46.04345" lon="5.11952">
        <ele>280.399993896</ele>
        <time>2015-08-17T11:49:21.065Z</time>
      </trkpt>
      <trkpt lat="46.04338" lon="5.11914">
        <ele>279.600006104</ele>
        <time>2015-08-17T11:49:25.061Z</time>
      </trkpt>
      <trkpt lat="46.04339" lon="5.11881">
        <ele>279.600006104</ele>
        <time>2015-08-17T11:49:29.062Z</time>
      </trkpt>
      <trkpt lat="46.04348" lon="5.11819">
        <ele>280.100006104</ele>
        <time>2015-08-17T11:49:36.112Z</time>
      </trkpt>
      <trkpt lat="46.04354" lon="5.11792">
        <ele>280.399993896</ele>
        <time>2015-08-17T11:49:39.048Z</time>
      </trkpt>
      <trkpt lat="46.04374" lon="5.11749">
        <ele>279.5</ele>
        <time>2015-08-17T11:49:45.208Z</time>
      </trkpt>
      <trkpt lat="46.044" lon="5.11712">
        <ele>279.700012207</ele>
        <time>2015-08-17T11:49:51.049Z</time>
      </trkpt>
      <trkpt lat="46.04407" lon="5.11699">
        <ele>279.600006104</ele>
        <time>2015-08-17T11:49:53.048Z</time>
      </trkpt>
      <trkpt lat="46.04413" lon="5.11674">
        <ele>280.5</ele>
        <time>2015-08-17T11:49:56.107Z</time>
      </trkpt>
      <trkpt lat="46.04416" lon="5.11647">
        <ele>280.899993896</ele>
        <time>2015-08-17T11:49:59.06Z</time>
      </trkpt>
      <trkpt lat="46.04423" lon="5.11627">
        <ele>281.299987793</ele>
        <time>2015-08-17T11:50:02.105Z</time>
      </trkpt>
      <trkpt lat="46.04438" lon="5.11598">
        <ele>281.799987793</ele>
        <time>2015-08-17T11:50:07.109Z</time>
      </trkpt>
      <trkpt lat="46.04473" lon="5.11545">
        <ele>278.5</ele>
        <time>2015-08-17T11:50:18.057Z</time>
      </trkpt>
      <trkpt lat="46.04503" lon="5.11506">
        <ele>276</ele>
        <time>2015-08-17T11:50:26.065Z</time>
      </trkpt>
      <trkpt lat="46.04528" lon="5.11494">
        <ele>275.799987793</ele>
        <time>2015-08-17T11:50:30.054Z</time>
      </trkpt>
      <trkpt lat="46.04552" lon="5.1149">
        <ele>273.899993896</ele>
        <time>2015-08-17T11:50:34.05Z</time>
      </trkpt>
      <trkpt lat="46.04591" lon="5.11478">
        <ele>272.5</ele>
        <time>2015-08-17T11:50:41.1Z</time>
      </trkpt>
      <trkpt lat="46.04653" lon="5.11433">
        <ele>271.600006104</ele>
        <time>2015-08-17T11:50:52.049Z</time>
      </trkpt>
      <trkpt lat="46.04677" lon="5.1141">
        <ele>272.899993896</ele>
        <time>2015-08-17T11:50:57.133Z</time>
      </trkpt>
      <trkpt lat="46.04692" lon="5.11402">
        <ele>274</ele>
        <time>2015-08-17T11:51:00.053Z</time>
      </trkpt>
      <trkpt lat="46.04713" lon="5.11383">
        <ele>274.399993896</ele>
        <time>2015-08-17T11:51:05.107Z</time>
      </trkpt>
      <trkpt lat="46.04731" lon="5.11379">
        <ele>274.100006104</ele>
        <time>2015-08-17T11:51:09.048Z</time>
      </trkpt>
      <trkpt lat="46.04737" lon="5.11366">
        <ele>274.799987793</ele>
        <time>2015-08-17T11:51:12.058Z</time>
      </trkpt>
      <trkpt lat="46.04709" lon="5.11264">
        <ele>274.100006104</ele>
        <time>2015-08-17T11:51:25.06Z</time>
      </trkpt>
      <trkpt lat="46.04679" lon="5.11142">
        <ele>275.100006104</ele>
        <time>2015-08-17T11:51:42.092Z</time>
      </trkpt>
      <trkpt lat="46.04667" lon="5.11104">
        <ele>274.100006104</ele>
        <time>2015-08-17T11:51:47.109Z</time>
      </trkpt>
      <trkpt lat="46.04645" lon="5.1101">
        <ele>273.299987793</ele>
        <time>2015-08-17T11:52:01.103Z</time>
      </trkpt>
      <trkpt lat="46.04629" lon="5.10974">
        <ele>271.399993896</ele>
        <time>2015-08-17T11:52:06.059Z</time>
      </trkpt>
      <trkpt lat="46.04621" lon="5.10962">
        <ele>271.200012207</ele>
        <time>2015-08-17T11:52:08.051Z</time>
      </trkpt>
      <trkpt lat="46.04609" lon="5.10956">
        <ele>272.5</ele>
        <time>2015-08-17T11:52:09.06Z</time>
      </trkpt>
      <trkpt lat="46.04601" lon="5.10944">
        <ele>272.299987793</ele>
        <time>2015-08-17T11:52:11.102Z</time>
      </trkpt>
      <trkpt lat="46.04586" lon="5.10933">
        <ele>273</ele>
        <time>2015-08-17T11:52:13.056Z</time>
      </trkpt>
      <trkpt lat="46.04571" lon="5.10913">
        <ele>273</ele>
        <time>2015-08-17T11:52:16.1Z</time>
      </trkpt>
      <trkpt lat="46.04549" lon="5.10871">
        <ele>273.600006104</ele>
        <time>2015-08-17T11:52:22.095Z</time>
      </trkpt>
      <trkpt lat="46.04517" lon="5.10827">
        <ele>275.5</ele>
        <time>2015-08-17T11:52:31.06Z</time>
      </trkpt>
      <trkpt lat="46.04458" lon="5.10698">
        <ele>279.799987793</ele>
        <time>2015-08-17T11:52:51.106Z</time>
      </trkpt>
      <trkpt lat="46.04446" lon="5.10678">
        <ele>280.5</ele>
        <time>2015-08-17T11:52:54.068Z</time>
      </trkpt>
      <trkpt lat="46.04414" lon="5.10601">
        <ele>282.200012207</ele>
        <time>2015-08-17T11:53:05.11Z</time>
      </trkpt>
      <trkpt lat="46.04336" lon="5.10439">
        <ele>284.799987793</ele>
        <time>2015-08-17T11:53:29.106Z</time>
      </trkpt>
      <trkpt lat="46.04318" lon="5.10406">
        <ele>285.100006104</ele>
        <time>2015-08-17T11:53:34.046Z</time>
      </trkpt>
      <trkpt lat="46.04309" lon="5.1038">
        <ele>285.200012207</ele>
        <time>2015-08-17T11:53:38.069Z</time>
      </trkpt>
      <trkpt lat="46.04266" lon="5.10289">
        <ele>287.600006104</ele>
        <time>2015-08-17T11:53:52.066Z</time>
      </trkpt>
      <trkpt lat="46.04235" lon="5.10232">
        <ele>285.200012207</ele>
        <time>2015-08-17T11:54:01.101Z</time>
      </trkpt>
      <trkpt lat="46.04219" lon="5.10193">
        <ele>283.899993896</ele>
        <time>2015-08-17T11:54:07.098Z</time>
      </trkpt>
      <trkpt lat="46.04199" lon="5.10159">
        <ele>283.200012207</ele>
        <time>2015-08-17T11:54:12.06Z</time>
      </trkpt>
      <trkpt lat="46.04152" lon="5.10058">
        <ele>283</ele>
        <time>2015-08-17T11:54:28.049Z</time>
      </trkpt>
      <trkpt lat="46.04122" lon="5.09999">
        <ele>280.899993896</ele>
        <time>2015-08-17T11:54:37.117Z</time>
      </trkpt>
      <trkpt lat="46.04043" lon="5.0983">
        <ele>282.299987793</ele>
        <time>2015-08-17T11:55:01.23Z</time>
      </trkpt>
      <trkpt lat="46.04018" lon="5.09759">
        <ele>282.600006104</ele>
        <time>2015-08-17T11:55:09.113Z</time>
      </trkpt>
      <trkpt lat="46.04005" lon="5.09693">
        <ele>282.700012207</ele>
        <time>2015-08-17T11:55:16.05Z</time>
      </trkpt>
      <trkpt lat="46.03976" lon="5.0956">
        <ele>282.299987793</ele>
        <time>2015-08-17T11:55:31.099Z</time>
      </trkpt>
      <trkpt lat="46.03979" lon="5.09486">
        <ele>282.5</ele>
        <time>2015-08-17T11:55:40.065Z</time>
      </trkpt>
      <trkpt lat="46.03975" lon="5.09475">
        <ele>281.600006104</ele>
        <time>2015-08-17T11:55:41.104Z</time>
      </trkpt>
      <trkpt lat="46.03959" lon="5.09452">
        <ele>279.299987793</ele>
        <time>2015-08-17T11:55:43.06Z</time>
      </trkpt>
      <trkpt lat="46.03953" lon="5.09432">
        <ele>278.799987793</ele>
        <time>2015-08-17T11:55:45.066Z</time>
      </trkpt>
      <trkpt lat="46.0393" lon="5.09382">
        <ele>279.399993896</ele>
        <time>2015-08-17T11:55:50.114Z</time>
      </trkpt>
      <trkpt lat="46.03922" lon="5.09353">
        <ele>279</ele>
        <time>2015-08-17T11:55:53.066Z</time>
      </trkpt>
      <trkpt lat="46.03913" lon="5.0934">
        <ele>278.799987793</ele>
        <time>2015-08-17T11:55:55.066Z</time>
      </trkpt>
      <trkpt lat="46.03907" lon="5.09338">
        <ele>278.100006104</ele>
        <time>2015-08-17T11:55:56.113Z</time>
      </trkpt>
      <trkpt lat="46.03896" lon="5.0934">
        <ele>278.100006104</ele>
        <time>2015-08-17T11:55:58.119Z</time>
      </trkpt>
      <trkpt lat="46.03774" lon="5.09404">
        <ele>277.899993896</ele>
        <time>2015-08-17T11:56:17.048Z</time>
      </trkpt>
      <trkpt lat="46.03766" lon="5.09412">
        <ele>278</ele>
        <time>2015-08-17T11:56:21.06Z</time>
      </trkpt>
      <trkpt lat="46.03771" lon="5.09418">
        <ele>277.5</ele>
        <time>2015-08-17T11:56:58.06Z</time>
      </trkpt>
      <trkpt lat="46.03769" lon="5.09404">
        <ele>277.799987793</ele>
        <time>2015-08-17T11:58:07.06Z</time>
      </trkpt>
      <trkpt lat="46.03742" lon="5.09413">
        <ele>279</ele>
        <time>2015-08-17T11:58:22.114Z</time>
      </trkpt>
      <trkpt lat="46.03681" lon="5.09446">
        <ele>280.700012207</ele>
        <time>2015-08-17T11:58:35.094Z</time>
      </trkpt>
      <trkpt lat="46.03638" lon="5.09474">
        <ele>281.700012207</ele>
        <time>2015-08-17T11:58:44.062Z</time>
      </trkpt>
      <trkpt lat="46.03627" lon="5.09478">
        <ele>281.899993896</ele>
        <time>2015-08-17T11:58:46.06Z</time>
      </trkpt>
      <trkpt lat="46.03605" lon="5.09477">
        <ele>281.5</ele>
        <time>2015-08-17T11:58:50.054Z</time>
      </trkpt>
      <trkpt lat="46.03577" lon="5.09467">
        <ele>280</ele>
        <time>2015-08-17T11:58:55.109Z</time>
      </trkpt>
      <trkpt lat="46.03378" lon="5.09373">
        <ele>280.200012207</ele>
        <time>2015-08-17T11:59:31.14Z</time>
      </trkpt>
      <trkpt lat="46.0336" lon="5.09368">
        <ele>279.899993896</ele>
        <time>2015-08-17T11:59:34.08Z</time>
      </trkpt>
      <trkpt lat="46.03311" lon="5.09343">
        <ele>280.5</ele>
        <time>2015-08-17T11:59:52.098Z</time>
      </trkpt>
      <trkpt lat="46.03301" lon="5.09341">
        <ele>280.600006104</ele>
        <time>2015-08-17T11:59:56.101Z</time>
      </trkpt>
      <trkpt lat="46.03289" lon="5.09332">
        <ele>281.200012207</ele>
        <time>2015-08-17T12:00:00.065Z</time>
      </trkpt>
      <trkpt lat="46.03091" lon="5.09245">
        <ele>278.399993896</ele>
        <time>2015-08-17T12:00:36.118Z</time>
      </trkpt>
      <trkpt lat="46.03006" lon="5.09203">
        <ele>277.299987793</ele>
        <time>2015-08-17T12:00:49.059Z</time>
      </trkpt>
      <trkpt lat="46.02832" lon="5.09128">
        <ele>275.200012207</ele>
        <time>2015-08-17T12:01:15.057Z</time>
      </trkpt>
      <trkpt lat="46.02725" lon="5.09076">
        <ele>272.399993896</ele>
        <time>2015-08-17T12:01:31.06Z</time>
      </trkpt>
      <trkpt lat="46.02702" lon="5.09058">
        <ele>271.5</ele>
        <time>2015-08-17T12:01:35.057Z</time>
      </trkpt>
      <trkpt lat="46.02645" lon="5.08977">
        <ele>268.600006104</ele>
        <time>2015-08-17T12:01:48.104Z</time>
      </trkpt>
      <trkpt lat="46.02539" lon="5.08863">
        <ele>266.399993896</ele>
        <time>2015-08-17T12:02:12.06Z</time>
      </trkpt>
      <trkpt lat="46.02529" lon="5.08857">
        <ele>266.299987793</ele>
        <time>2015-08-17T12:02:14.062Z</time>
      </trkpt>
      <trkpt lat="46.02465" lon="5.08801">
        <ele>266.100006104</ele>
        <time>2015-08-17T12:02:30.1Z</time>
      </trkpt>
      <trkpt lat="46.02458" lon="5.08791">
        <ele>267</ele>
        <time>2015-08-17T12:02:33.101Z</time>
      </trkpt>
      <trkpt lat="46.02445" lon="5.08788">
        <ele>267.100006104</ele>
        <time>2015-08-17T12:02:36.104Z</time>
      </trkpt>
      <trkpt lat="46.02403" lon="5.08796">
        <ele>268.100006104</ele>
        <time>2015-08-17T12:02:45.104Z</time>
      </trkpt>
      <trkpt lat="46.02376" lon="5.08808">
        <ele>269.5</ele>
        <time>2015-08-17T12:02:50.063Z</time>
      </trkpt>
      <trkpt lat="46.02337" lon="5.08832">
        <ele>271.5</ele>
        <time>2015-08-17T12:02:58.044Z</time>
      </trkpt>
      <trkpt lat="46.02294" lon="5.0885">
        <ele>273.100006104</ele>
        <time>2015-08-17T12:03:06.066Z</time>
      </trkpt>
      <trkpt lat="46.0227" lon="5.08853">
        <ele>274.100006104</ele>
        <time>2015-08-17T12:03:11.06Z</time>
      </trkpt>
      <trkpt lat="46.02214" lon="5.0888">
        <ele>276.299987793</ele>
        <time>2015-08-17T12:03:22.107Z</time>
      </trkpt>
      <trkpt lat="46.02204" lon="5.08894">
        <ele>277.100006104</ele>
        <time>2015-08-17T12:03:25.057Z</time>
      </trkpt>
      <trkpt lat="46.02204" lon="5.08906">
        <ele>277.200012207</ele>
        <time>2015-08-17T12:03:27.098Z</time>
      </trkpt>
      <trkpt lat="46.02223" lon="5.08962">
        <ele>277.5</ele>
        <time>2015-08-17T12:03:35.1Z</time>
      </trkpt>
      <trkpt lat="46.02228" lon="5.08987">
        <ele>278.100006104</ele>
        <time>2015-08-17T12:03:38.063Z</time>
      </trkpt>
      <trkpt lat="46.02226" lon="5.09022">
        <ele>278.299987793</ele>
        <time>2015-08-17T12:03:41.06Z</time>
      </trkpt>
      <trkpt lat="46.02245" lon="5.09178">
        <ele>278.700012207</ele>
        <time>2015-08-17T12:03:57.058Z</time>
      </trkpt>
      <trkpt lat="46.02268" lon="5.09333">
        <ele>278.299987793</ele>
        <time>2015-08-17T12:04:16.117Z</time>
      </trkpt>
      <trkpt lat="46.02281" lon="5.09385">
        <ele>277.399993896</ele>
        <time>2015-08-17T12:04:23.06Z</time>
      </trkpt>
      <trkpt lat="46.02282" lon="5.09422">
        <ele>277.200012207</ele>
        <time>2015-08-17T12:04:29.059Z</time>
      </trkpt>
      <trkpt lat="46.02279" lon="5.09497">
        <ele>278.299987793</ele>
        <time>2015-08-17T12:04:40.103Z</time>
      </trkpt>
      <trkpt lat="46.0228" lon="5.09536">
        <ele>278.899993896</ele>
        <time>2015-08-17T12:04:45.055Z</time>
      </trkpt>
      <trkpt lat="46.02273" lon="5.09591">
        <ele>280.200012207</ele>
        <time>2015-08-17T12:04:51.059Z</time>
      </trkpt>
      <trkpt lat="46.02244" lon="5.09746">
        <ele>281.100006104</ele>
        <time>2015-08-17T12:05:10.102Z</time>
      </trkpt>
      <trkpt lat="46.02239" lon="5.09768">
        <ele>281.299987793</ele>
        <time>2015-08-17T12:05:13.057Z</time>
      </trkpt>
      <trkpt lat="46.02234" lon="5.09776">
        <ele>281.299987793</ele>
        <time>2015-08-17T12:05:14.161Z</time>
      </trkpt>
      <trkpt lat="46.02225" lon="5.09826">
        <ele>282.100006104</ele>
        <time>2015-08-17T12:05:22.101Z</time>
      </trkpt>
      <trkpt lat="46.02216" lon="5.09855">
        <ele>282.600006104</ele>
        <time>2015-08-17T12:05:27.166Z</time>
      </trkpt>
      <trkpt lat="46.02204" lon="5.09914">
        <ele>285.399993896</ele>
        <time>2015-08-17T12:05:37.059Z</time>
      </trkpt>
      <trkpt lat="46.02195" lon="5.0997">
        <ele>288.5</ele>
        <time>2015-08-17T12:05:45.057Z</time>
      </trkpt>
      <trkpt lat="46.02194" lon="5.10032">
        <ele>291.399993896</ele>
        <time>2015-08-17T12:05:54.101Z</time>
      </trkpt>
      <trkpt lat="46.02197" lon="5.10094">
        <ele>294.799987793</ele>
        <time>2015-08-17T12:06:03.106Z</time>
      </trkpt>
      <trkpt lat="46.02194" lon="5.10102">
        <ele>295.200012207</ele>
        <time>2015-08-17T12:06:04.06Z</time>
      </trkpt>
      <trkpt lat="46.02192" lon="5.10123">
        <ele>296.299987793</ele>
        <time>2015-08-17T12:06:07.102Z</time>
      </trkpt>
      <trkpt lat="46.02184" lon="5.10158">
        <ele>298.100006104</ele>
        <time>2015-08-17T12:06:12.058Z</time>
      </trkpt>
      <trkpt lat="46.02178" lon="5.10171">
        <ele>297.399993896</ele>
        <time>2015-08-17T12:06:13.064Z</time>
      </trkpt>
      <trkpt lat="46.02177" lon="5.10188">
        <ele>294.700012207</ele>
        <time>2015-08-17T12:06:14.062Z</time>
      </trkpt>
      <trkpt lat="46.02182" lon="5.10236">
        <ele>292</ele>
        <time>2015-08-17T12:06:18.064Z</time>
      </trkpt>
      <trkpt lat="46.02203" lon="5.103">
        <ele>290.299987793</ele>
        <time>2015-08-17T12:06:25.105Z</time>
      </trkpt>
      <trkpt lat="46.02217" lon="5.10324">
        <ele>290.299987793</ele>
        <time>2015-08-17T12:06:28.059Z</time>
      </trkpt>
      <trkpt lat="46.0223" lon="5.1036">
        <ele>289.799987793</ele>
        <time>2015-08-17T12:06:33.115Z</time>
      </trkpt>
      <trkpt lat="46.02234" lon="5.1038">
        <ele>289.200012207</ele>
        <time>2015-08-17T12:06:36.06Z</time>
      </trkpt>
      <trkpt lat="46.02235" lon="5.10414">
        <ele>287.200012207</ele>
        <time>2015-08-17T12:06:41.107Z</time>
      </trkpt>
      <trkpt lat="46.02227" lon="5.10432">
        <ele>286.399993896</ele>
        <time>2015-08-17T12:06:44.063Z</time>
      </trkpt>
      <trkpt lat="46.02206" lon="5.10455">
        <ele>285.600006104</ele>
        <time>2015-08-17T12:06:49.1Z</time>
      </trkpt>
      <trkpt lat="46.02167" lon="5.1049">
        <ele>285.399993896</ele>
        <time>2015-08-17T12:06:57.163Z</time>
      </trkpt>
      <trkpt lat="46.02104" lon="5.10564">
        <ele>284.100006104</ele>
        <time>2015-08-17T12:07:11.106Z</time>
      </trkpt>
      <trkpt lat="46.02083" lon="5.10595">
        <ele>286</ele>
        <time>2015-08-17T12:07:16.059Z</time>
      </trkpt>
      <trkpt lat="46.02077" lon="5.1061">
        <ele>286.399993896</ele>
        <time>2015-08-17T12:07:18.054Z</time>
      </trkpt>
      <trkpt lat="46.02071" lon="5.10633">
        <ele>285.299987793</ele>
        <time>2015-08-17T12:07:21.093Z</time>
      </trkpt>
      <trkpt lat="46.02071" lon="5.10666">
        <ele>285.899993896</ele>
        <time>2015-08-17T12:07:25.098Z</time>
      </trkpt>
      <trkpt lat="46.02074" lon="5.10699">
        <ele>286.700012207</ele>
        <time>2015-08-17T12:07:29.111Z</time>
      </trkpt>
      <trkpt lat="46.02118" lon="5.10859">
        <ele>285.299987793</ele>
        <time>2015-08-17T12:07:50.076Z</time>
      </trkpt>
      <trkpt lat="46.02121" lon="5.10883">
        <ele>284</ele>
        <time>2015-08-17T12:07:53.102Z</time>
      </trkpt>
      <trkpt lat="46.02121" lon="5.10898">
        <ele>283.200012207</ele>
        <time>2015-08-17T12:07:55.103Z</time>
      </trkpt>
      <trkpt lat="46.02114" lon="5.10919">
        <ele>282.899993896</ele>
        <time>2015-08-17T12:07:58.06Z</time>
      </trkpt>
      <trkpt lat="46.02073" lon="5.10972">
        <ele>281.700012207</ele>
        <time>2015-08-17T12:08:08.063Z</time>
      </trkpt>
      <trkpt lat="46.02022" lon="5.1105">
        <ele>282.799987793</ele>
        <time>2015-08-17T12:08:20.063Z</time>
      </trkpt>
      <trkpt lat="46.02006" lon="5.11086">
        <ele>283</ele>
        <time>2015-08-17T12:08:25.124Z</time>
      </trkpt>
      <trkpt lat="46.01985" lon="5.11122">
        <ele>283.100006104</ele>
        <time>2015-08-17T12:08:30.054Z</time>
      </trkpt>
      <trkpt lat="46.01872" lon="5.11258">
        <ele>282.799987793</ele>
        <time>2015-08-17T12:08:54.06Z</time>
      </trkpt>
      <trkpt lat="46.01811" lon="5.11339">
        <ele>284.100006104</ele>
        <time>2015-08-17T12:09:08.063Z</time>
      </trkpt>
      <trkpt lat="46.01787" lon="5.11378">
        <ele>286.600006104</ele>
        <time>2015-08-17T12:09:14.063Z</time>
      </trkpt>
      <trkpt lat="46.01759" lon="5.11415">
        <ele>289.100006104</ele>
        <time>2015-08-17T12:09:21.094Z</time>
      </trkpt>
      <trkpt lat="46.01735" lon="5.11455">
        <ele>292.700012207</ele>
        <time>2015-08-17T12:09:28.06Z</time>
      </trkpt>
      <trkpt lat="46.01683" lon="5.11531">
        <ele>294.600006104</ele>
        <time>2015-08-17T12:09:42.046Z</time>
      </trkpt>
      <trkpt lat="46.01555" lon="5.11731">
        <ele>290.100006104</ele>
        <time>2015-08-17T12:10:15.096Z</time>
      </trkpt>
      <trkpt lat="46.01489" lon="5.11818">
        <ele>289.5</ele>
        <time>2015-08-17T12:10:30.059Z</time>
      </trkpt>
      <trkpt lat="46.01385" lon="5.11973">
        <ele>294.5</ele>
        <time>2015-08-17T12:10:57.094Z</time>
      </trkpt>
      <trkpt lat="46.01356" lon="5.12021">
        <ele>297.700012207</ele>
        <time>2015-08-17T12:11:04.06Z</time>
      </trkpt>
      <trkpt lat="46.01277" lon="5.12179">
        <ele>297.899993896</ele>
        <time>2015-08-17T12:11:27.092Z</time>
      </trkpt>
      <trkpt lat="46.01242" lon="5.12243">
        <ele>295.5</ele>
        <time>2015-08-17T12:11:36.06Z</time>
      </trkpt>
      <trkpt lat="46.01195" lon="5.1232">
        <ele>295.899993896</ele>
        <time>2015-08-17T12:11:48.06Z</time>
      </trkpt>
      <trkpt lat="46.01103" lon="5.12478">
        <ele>294.700012207</ele>
        <time>2015-08-17T12:12:12.06Z</time>
      </trkpt>
      <trkpt lat="46.01019" lon="5.12635">
        <ele>289.299987793</ele>
        <time>2015-08-17T12:12:40.105Z</time>
      </trkpt>
      <trkpt lat="46.00986" lon="5.12709">
        <ele>290.799987793</ele>
        <time>2015-08-17T12:12:52.102Z</time>
      </trkpt>
      <trkpt lat="46.00975" lon="5.12726">
        <ele>290.899993896</ele>
        <time>2015-08-17T12:12:55.065Z</time>
      </trkpt>
      <trkpt lat="46.00962" lon="5.12737">
        <ele>292.100006104</ele>
        <time>2015-08-17T12:12:58.106Z</time>
      </trkpt>
      <trkpt lat="46.00956" lon="5.12751">
        <ele>292.200012207</ele>
        <time>2015-08-17T12:13:00.16Z</time>
      </trkpt>
      <trkpt lat="46.00945" lon="5.12761">
        <ele>295.200012207</ele>
        <time>2015-08-17T12:13:03.1Z</time>
      </trkpt>
      <trkpt lat="46.00915" lon="5.12824">
        <ele>297.5</ele>
        <time>2015-08-17T12:13:13.095Z</time>
      </trkpt>
      <trkpt lat="46.00901" lon="5.12838">
        <ele>297.799987793</ele>
        <time>2015-08-17T12:13:16.057Z</time>
      </trkpt>
      <trkpt lat="46.00885" lon="5.12865">
        <ele>298</ele>
        <time>2015-08-17T12:13:21.115Z</time>
      </trkpt>
      <trkpt lat="46.0087" lon="5.12905">
        <ele>298</ele>
        <time>2015-08-17T12:13:26.064Z</time>
      </trkpt>
      <trkpt lat="46.00855" lon="5.12935">
        <ele>298.200012207</ele>
        <time>2015-08-17T12:13:30.061Z</time>
      </trkpt>
      <trkpt lat="46.00822" lon="5.12985">
        <ele>298.5</ele>
        <time>2015-08-17T12:13:37.114Z</time>
      </trkpt>
      <trkpt lat="46.0081" lon="5.12998">
        <ele>298.700012207</ele>
        <time>2015-08-17T12:13:40.062Z</time>
      </trkpt>
      <trkpt lat="46.00799" lon="5.13019">
        <ele>298.100006104</ele>
        <time>2015-08-17T12:13:43.181Z</time>
      </trkpt>
      <trkpt lat="46.00777" lon="5.13046">
        <ele>298.600006104</ele>
        <time>2015-08-17T12:13:49.066Z</time>
      </trkpt>
      <trkpt lat="46.00774" lon="5.13053">
        <ele>298.5</ele>
        <time>2015-08-17T12:13:50.102Z</time>
      </trkpt>
      <trkpt lat="46.00766" lon="5.1306">
        <ele>299.700012207</ele>
        <time>2015-08-17T12:13:52.103Z</time>
      </trkpt>
      <trkpt lat="46.00748" lon="5.131">
        <ele>300.399993896</ele>
        <time>2015-08-17T12:13:58.098Z</time>
      </trkpt>
      <trkpt lat="46.00746" lon="5.13108">
        <ele>300.399993896</ele>
        <time>2015-08-17T12:13:59.06Z</time>
      </trkpt>
      <trkpt lat="46.00742" lon="5.13113">
        <ele>300.5</ele>
        <time>2015-08-17T12:14:00.136Z</time>
      </trkpt>
      <trkpt lat="46.00723" lon="5.1316">
        <ele>300.700012207</ele>
        <time>2015-08-17T12:14:08.063Z</time>
      </trkpt>
      <trkpt lat="46.00708" lon="5.13182">
        <ele>300.600006104</ele>
        <time>2015-08-17T12:14:13.095Z</time>
      </trkpt>
      <trkpt lat="46.00695" lon="5.13217">
        <ele>301.5</ele>
        <time>2015-08-17T12:14:18.057Z</time>
      </trkpt>
      <trkpt lat="46.00684" lon="5.13239">
        <ele>301.899993896</ele>
        <time>2015-08-17T12:14:22.059Z</time>
      </trkpt>
      <trkpt lat="46.00651" lon="5.13289">
        <ele>301.200012207</ele>
        <time>2015-08-17T12:14:29.103Z</time>
      </trkpt>
      <trkpt lat="46.00622" lon="5.13304">
        <ele>301.100006104</ele>
        <time>2015-08-17T12:14:33.094Z</time>
      </trkpt>
      <trkpt lat="46.00608" lon="5.13308">
        <ele>301</ele>
        <time>2015-08-17T12:14:34.061Z</time>
      </trkpt>
      <trkpt lat="46.00585" lon="5.13326">
        <ele>301.100006104</ele>
        <time>2015-08-17T12:14:39.096Z</time>
      </trkpt>
      <trkpt lat="46.00577" lon="5.13335">
        <ele>301.100006104</ele>
        <time>2015-08-17T12:14:41.096Z</time>
      </trkpt>
      <trkpt lat="46.0057" lon="5.13338">
        <ele>301.200012207</ele>
        <time>2015-08-17T12:14:42.06Z</time>
      </trkpt>
      <trkpt lat="46.00563" lon="5.13351">
        <ele>301.600006104</ele>
        <time>2015-08-17T12:14:44.104Z</time>
      </trkpt>
      <trkpt lat="46.00553" lon="5.13355">
        <ele>301.700012207</ele>
        <time>2015-08-17T12:14:45.061Z</time>
      </trkpt>
      <trkpt lat="46.00535" lon="5.13375">
        <ele>302</ele>
        <time>2015-08-17T12:14:49.05Z</time>
      </trkpt>
      <trkpt lat="46.00529" lon="5.13389">
        <ele>301.5</ele>
        <time>2015-08-17T12:14:51.058Z</time>
      </trkpt>
      <trkpt lat="46.00526" lon="5.134">
        <ele>300.899993896</ele>
        <time>2015-08-17T12:14:52.104Z</time>
      </trkpt>
      <trkpt lat="46.00518" lon="5.13414">
        <ele>301.100006104</ele>
        <time>2015-08-17T12:14:55.097Z</time>
      </trkpt>
      <trkpt lat="46.00516" lon="5.13424">
        <ele>300.700012207</ele>
        <time>2015-08-17T12:14:56.064Z</time>
      </trkpt>
      <trkpt lat="46.00502" lon="5.13446">
        <ele>301.100006104</ele>
        <time>2015-08-17T12:15:00.064Z</time>
      </trkpt>
      <trkpt lat="46.00485" lon="5.13481">
        <ele>302.799987793</ele>
        <time>2015-08-17T12:15:06.061Z</time>
      </trkpt>
      <trkpt lat="46.00471" lon="5.13503">
        <ele>303.600006104</ele>
        <time>2015-08-17T12:15:10.106Z</time>
      </trkpt>
      <trkpt lat="46.00454" lon="5.13553">
        <ele>305.5</ele>
        <time>2015-08-17T12:15:16.104Z</time>
      </trkpt>
      <trkpt lat="46.00447" lon="5.13583">
        <ele>306.200012207</ele>
        <time>2015-08-17T12:15:19.046Z</time>
      </trkpt>
      <trkpt lat="46.00425" lon="5.13632">
        <ele>308</ele>
        <time>2015-08-17T12:15:25.062Z</time>
      </trkpt>
      <trkpt lat="46.00407" lon="5.13684">
        <ele>309.299987793</ele>
        <time>2015-08-17T12:15:31.063Z</time>
      </trkpt>
      <trkpt lat="46.00405" lon="5.13696">
        <ele>308.5</ele>
        <time>2015-08-17T12:15:32.103Z</time>
      </trkpt>
      <trkpt lat="46.00376" lon="5.13773">
        <ele>309.600006104</ele>
        <time>2015-08-17T12:15:42.094Z</time>
      </trkpt>
      <trkpt lat="46.00373" lon="5.13796">
        <ele>307.5</ele>
        <time>2015-08-17T12:15:44.113Z</time>
      </trkpt>
      <trkpt lat="46.00364" lon="5.13817">
        <ele>308</ele>
        <time>2015-08-17T12:15:47.058Z</time>
      </trkpt>
      <trkpt lat="46.00359" lon="5.1385">
        <ele>305.399993896</ele>
        <time>2015-08-17T12:15:50.1Z</time>
      </trkpt>
      <trkpt lat="46.00342" lon="5.13915">
        <ele>302.700012207</ele>
        <time>2015-08-17T12:15:59.046Z</time>
      </trkpt>
      <trkpt lat="46.00328" lon="5.13998">
        <ele>299.399993896</ele>
        <time>2015-08-17T12:16:11.057Z</time>
      </trkpt>
      <trkpt lat="46.00317" lon="5.1403">
        <ele>298</ele>
        <time>2015-08-17T12:16:16.097Z</time>
      </trkpt>
      <trkpt lat="46.00303" lon="5.141">
        <ele>294</ele>
        <time>2015-08-17T12:16:25.093Z</time>
      </trkpt>
      <trkpt lat="46.00263" lon="5.14251">
        <ele>290.700012207</ele>
        <time>2015-08-17T12:16:43.056Z</time>
      </trkpt>
      <trkpt lat="46.00203" lon="5.14528">
        <ele>288.799987793</ele>
        <time>2015-08-17T12:17:19.045Z</time>
      </trkpt>
      <trkpt lat="46.00192" lon="5.14564">
        <ele>290.799987793</ele>
        <time>2015-08-17T12:17:24.117Z</time>
      </trkpt>
      <trkpt lat="46.00175" lon="5.14649">
        <ele>291.100006104</ele>
        <time>2015-08-17T12:17:36.091Z</time>
      </trkpt>
      <trkpt lat="46.00135" lon="5.14804">
        <ele>293.899993896</ele>
        <time>2015-08-17T12:17:57.096Z</time>
      </trkpt>
      <trkpt lat="46.00106" lon="5.14936">
        <ele>294.600006104</ele>
        <time>2015-08-17T12:18:15.087Z</time>
      </trkpt>
      <trkpt lat="46.00089" lon="5.15007">
        <ele>293.5</ele>
        <time>2015-08-17T12:18:25.083Z</time>
      </trkpt>
      <trkpt lat="46.00082" lon="5.15023">
        <ele>292.799987793</ele>
        <time>2015-08-17T12:18:28.06Z</time>
      </trkpt>
      <trkpt lat="46.00069" lon="5.15074">
        <ele>292.5</ele>
        <time>2015-08-17T12:18:36.092Z</time>
      </trkpt>
      <trkpt lat="46.00058" lon="5.15107">
        <ele>293.700012207</ele>
        <time>2015-08-17T12:18:42.094Z</time>
      </trkpt>
      <trkpt lat="46.00043" lon="5.15134">
        <ele>294.5</ele>
        <time>2015-08-17T12:18:47.059Z</time>
      </trkpt>
      <trkpt lat="46.0003" lon="5.1517">
        <ele>293.100006104</ele>
        <time>2015-08-17T12:18:52.111Z</time>
      </trkpt>
      <trkpt lat="46.00005" lon="5.15275">
        <ele>290.700012207</ele>
        <time>2015-08-17T12:19:08.103Z</time>
      </trkpt>
      <trkpt lat="46.00002" lon="5.15297">
        <ele>290.299987793</ele>
        <time>2015-08-17T12:19:11.047Z</time>
      </trkpt>
      <trkpt lat="45.99986" lon="5.15363">
        <ele>290.799987793</ele>
        <time>2015-08-17T12:19:21.11Z</time>
      </trkpt>
      <trkpt lat="45.99954" lon="5.15476">
        <ele>297.100006104</ele>
        <time>2015-08-17T12:19:40.096Z</time>
      </trkpt>
      <trkpt lat="45.99903" lon="5.15623">
        <ele>300.299987793</ele>
        <time>2015-08-17T12:20:05.096Z</time>
      </trkpt>
      <trkpt lat="45.99873" lon="5.1583">
        <ele>300.100006104</ele>
        <time>2015-08-17T12:20:32.103Z</time>
      </trkpt>
      <trkpt lat="45.99862" lon="5.15927">
        <ele>296.700012207</ele>
        <time>2015-08-17T12:20:46.101Z</time>
      </trkpt>
      <trkpt lat="45.99844" lon="5.1602">
        <ele>299.200012207</ele>
        <time>2015-08-17T12:20:59.059Z</time>
      </trkpt>
      <trkpt lat="45.99825" lon="5.16143">
        <ele>299.799987793</ele>
        <time>2015-08-17T12:21:14.114Z</time>
      </trkpt>
      <trkpt lat="45.99824" lon="5.16196">
        <ele>299.799987793</ele>
        <time>2015-08-17T12:21:21.045Z</time>
      </trkpt>
      <trkpt lat="45.9983" lon="5.16262">
        <ele>296.700012207</ele>
        <time>2015-08-17T12:21:30.091Z</time>
      </trkpt>
      <trkpt lat="45.9984" lon="5.16291">
        <ele>293.899993896</ele>
        <time>2015-08-17T12:21:34.101Z</time>
      </trkpt>
      <trkpt lat="45.99844" lon="5.16314">
        <ele>292.700012207</ele>
        <time>2015-08-17T12:21:37.052Z</time>
      </trkpt>
      <trkpt lat="45.99864" lon="5.16381">
        <ele>288.799987793</ele>
        <time>2015-08-17T12:21:47.045Z</time>
      </trkpt>
      <trkpt lat="45.99873" lon="5.1644">
        <ele>286.600006104</ele>
        <time>2015-08-17T12:21:56.101Z</time>
      </trkpt>
      <trkpt lat="45.9987" lon="5.16478">
        <ele>286.200012207</ele>
        <time>2015-08-17T12:22:02.06Z</time>
      </trkpt>
      <trkpt lat="45.99861" lon="5.16505">
        <ele>287.200012207</ele>
        <time>2015-08-17T12:22:08.06Z</time>
      </trkpt>
      <trkpt lat="45.99818" lon="5.16578">
        <ele>292.200012207</ele>
        <time>2015-08-17T12:22:24.1Z</time>
      </trkpt>
      <trkpt lat="45.99795" lon="5.16638">
        <ele>294.100006104</ele>
        <time>2015-08-17T12:22:33.056Z</time>
      </trkpt>
      <trkpt lat="45.99764" lon="5.16783">
        <ele>293.899993896</ele>
        <time>2015-08-17T12:22:47.056Z</time>
      </trkpt>
      <trkpt lat="45.99745" lon="5.16852">
        <ele>294.399993896</ele>
        <time>2015-08-17T12:22:54.125Z</time>
      </trkpt>
      <trkpt lat="45.9973" lon="5.16931">
        <ele>295.100006104</ele>
        <time>2015-08-17T12:23:03.045Z</time>
      </trkpt>
      <trkpt lat="45.99723" lon="5.16993">
        <ele>295.200012207</ele>
        <time>2015-08-17T12:23:14.104Z</time>
      </trkpt>
      <trkpt lat="45.99721" lon="5.16999">
        <ele>295.200012207</ele>
        <time>2015-08-17T12:23:15.055Z</time>
      </trkpt>
      <trkpt lat="45.99723" lon="5.17012">
        <ele>295.600006104</ele>
        <time>2015-08-17T12:23:17.062Z</time>
      </trkpt>
      <trkpt lat="45.99721" lon="5.17025">
        <ele>296.799987793</ele>
        <time>2015-08-17T12:23:20.059Z</time>
      </trkpt>
      <trkpt lat="45.99722" lon="5.17036">
        <ele>297.600006104</ele>
        <time>2015-08-17T12:23:23.097Z</time>
      </trkpt>
      <trkpt lat="45.99718" lon="5.17047">
        <ele>298.5</ele>
        <time>2015-08-17T12:23:28.42Z</time>
      </trkpt>
      <trkpt lat="45.9972" lon="5.17054">
        <ele>297.200012207</ele>
        <time>2015-08-17T12:23:29.062Z</time>
      </trkpt>
      <trkpt lat="45.99688" lon="5.1706">
        <ele>297.600006104</ele>
        <time>2015-08-17T12:23:45.056Z</time>
      </trkpt>
      <trkpt lat="45.99671" lon="5.17053">
        <ele>297.799987793</ele>
        <time>2015-08-17T12:23:48.167Z</time>
      </trkpt>
      <trkpt lat="45.99668" lon="5.17048">
        <ele>297.799987793</ele>
        <time>2015-08-17T12:23:49.075Z</time>
      </trkpt>
      <trkpt lat="45.99638" lon="5.17032">
        <ele>298.200012207</ele>
        <time>2015-08-17T12:23:56.109Z</time>
      </trkpt>
      <trkpt lat="45.99619" lon="5.17026">
        <ele>298.299987793</ele>
        <time>2015-08-17T12:23:59.054Z</time>
      </trkpt>
      <trkpt lat="45.9961" lon="5.17017">
        <ele>298.299987793</ele>
        <time>2015-08-17T12:24:01.034Z</time>
      </trkpt>
      <trkpt lat="45.99577" lon="5.17005">
        <ele>298.299987793</ele>
        <time>2015-08-17T12:24:05.202Z</time>
      </trkpt>
      <trkpt lat="45.99532" lon="5.16996">
        <ele>298.200012207</ele>
        <time>2015-08-17T12:24:10.101Z</time>
      </trkpt>
      <trkpt lat="45.99496" lon="5.16996">
        <ele>298.100006104</ele>
        <time>2015-08-17T12:24:13.052Z</time>
      </trkpt>
      <trkpt lat="45.99479" lon="5.16992">
        <ele>298</ele>
        <time>2015-08-17T12:24:15.07Z</time>
      </trkpt>
      <trkpt lat="45.9946" lon="5.16983">
        <ele>297.700012207</ele>
        <time>2015-08-17T12:24:17.095Z</time>
      </trkpt>
      <trkpt lat="45.99354" lon="5.16955">
        <ele>296.600006104</ele>
        <time>2015-08-17T12:24:31.037Z</time>
      </trkpt>
      <trkpt lat="45.99243" lon="5.16915">
        <ele>294</ele>
        <time>2015-08-17T12:24:53.055Z</time>
      </trkpt>
      <trkpt lat="45.99228" lon="5.16906">
        <ele>293.700012207</ele>
        <time>2015-08-17T12:24:58.118Z</time>
      </trkpt>
      <trkpt lat="45.99219" lon="5.16897">
        <ele>293.399993896</ele>
        <time>2015-08-17T12:25:01.096Z</time>
      </trkpt>
      <trkpt lat="45.99217" lon="5.16857">
        <ele>292.299987793</ele>
        <time>2015-08-17T12:25:08.059Z</time>
      </trkpt>
      <trkpt lat="45.99204" lon="5.16827">
        <ele>292.299987793</ele>
        <time>2015-08-17T12:25:14.105Z</time>
      </trkpt>
      <trkpt lat="45.9918" lon="5.16752">
        <ele>291.799987793</ele>
        <time>2015-08-17T12:25:28.091Z</time>
      </trkpt>
      <trkpt lat="45.99153" lon="5.16689">
        <ele>293.399993896</ele>
        <time>2015-08-17T12:25:40.058Z</time>
      </trkpt>
      <trkpt lat="45.99127" lon="5.16638">
        <ele>296.600006104</ele>
        <time>2015-08-17T12:25:50.06Z</time>
      </trkpt>
      <trkpt lat="45.99119" lon="5.16614">
        <ele>298.799987793</ele>
        <time>2015-08-17T12:25:55.098Z</time>
      </trkpt>
      <trkpt lat="45.99091" lon="5.16552">
        <ele>301.5</ele>
        <time>2015-08-17T12:26:07.055Z</time>
      </trkpt>
      <trkpt lat="45.99047" lon="5.16495">
        <ele>304.200012207</ele>
        <time>2015-08-17T12:26:20.06Z</time>
      </trkpt>
      <trkpt lat="45.99037" lon="5.16485">
        <ele>304.100006104</ele>
        <time>2015-08-17T12:26:22.125Z</time>
      </trkpt>
      <trkpt lat="45.99006" lon="5.16444">
        <ele>304</ele>
        <time>2015-08-17T12:26:30.061Z</time>
      </trkpt>
      <trkpt lat="45.99002" lon="5.16434">
        <ele>303.799987793</ele>
        <time>2015-08-17T12:26:32.107Z</time>
      </trkpt>
      <trkpt lat="45.98956" lon="5.16367">
        <ele>302.399993896</ele>
        <time>2015-08-17T12:26:47.116Z</time>
      </trkpt>
      <trkpt lat="45.98939" lon="5.16334">
        <ele>300.899993896</ele>
        <time>2015-08-17T12:26:53.095Z</time>
      </trkpt>
      <trkpt lat="45.98913" lon="5.16298">
        <ele>299.5</ele>
        <time>2015-08-17T12:26:58.05Z</time>
      </trkpt>
      <trkpt lat="45.98901" lon="5.16284">
        <ele>299</ele>
        <time>2015-08-17T12:27:00.038Z</time>
      </trkpt>
      <trkpt lat="45.98881" lon="5.16254">
        <ele>298.200012207</ele>
        <time>2015-08-17T12:27:04.059Z</time>
      </trkpt>
      <trkpt lat="45.98791" lon="5.16153">
        <ele>295.100006104</ele>
        <time>2015-08-17T12:27:17.061Z</time>
      </trkpt>
      <trkpt lat="45.98711" lon="5.16086">
        <ele>292.5</ele>
        <time>2015-08-17T12:27:29.057Z</time>
      </trkpt>
      <trkpt lat="45.9866" lon="5.16051">
        <ele>291.399993896</ele>
        <time>2015-08-17T12:27:36.135Z</time>
      </trkpt>
      <trkpt lat="45.98641" lon="5.16035">
        <ele>290.899993896</ele>
        <time>2015-08-17T12:27:39.077Z</time>
      </trkpt>
      <trkpt lat="45.98593" lon="5.15986">
        <ele>289.600006104</ele>
        <time>2015-08-17T12:27:47.06Z</time>
      </trkpt>
      <trkpt lat="45.98465" lon="5.15879">
        <ele>287.899993896</ele>
        <time>2015-08-17T12:28:05.091Z</time>
      </trkpt>
      <trkpt lat="45.98409" lon="5.15818">
        <ele>285.700012207</ele>
        <time>2015-08-17T12:28:15.121Z</time>
      </trkpt>
      <trkpt lat="45.98366" lon="5.15775">
        <ele>284.899993896</ele>
        <time>2015-08-17T12:28:22.054Z</time>
      </trkpt>
      <trkpt lat="45.98354" lon="5.15756">
        <ele>285</ele>
        <time>2015-08-17T12:28:25.093Z</time>
      </trkpt>
      <trkpt lat="45.98331" lon="5.15729">
        <ele>284.799987793</ele>
        <time>2015-08-17T12:28:29.089Z</time>
      </trkpt>
      <trkpt lat="45.98313" lon="5.15696">
        <ele>284.700012207</ele>
        <time>2015-08-17T12:28:33.128Z</time>
      </trkpt>
      <trkpt lat="45.98275" lon="5.15595">
        <ele>285</ele>
        <time>2015-08-17T12:28:44.057Z</time>
      </trkpt>
      <trkpt lat="45.98236" lon="5.15505">
        <ele>285</ele>
        <time>2015-08-17T12:28:55.09Z</time>
      </trkpt>
      <trkpt lat="45.98191" lon="5.15375">
        <ele>285.399993896</ele>
        <time>2015-08-17T12:29:11.089Z</time>
      </trkpt>
      <trkpt lat="45.98158" lon="5.15295">
        <ele>286.600006104</ele>
        <time>2015-08-17T12:29:22.055Z</time>
      </trkpt>
      <trkpt lat="45.98117" lon="5.15179">
        <ele>286.299987793</ele>
        <time>2015-08-17T12:29:37.111Z</time>
      </trkpt>
      <trkpt lat="45.9809" lon="5.15091">
        <ele>288</ele>
        <time>2015-08-17T12:29:49.098Z</time>
      </trkpt>
      <trkpt lat="45.98063" lon="5.15022">
        <ele>289.100006104</ele>
        <time>2015-08-17T12:30:00.231Z</time>
      </trkpt>
      <trkpt lat="45.98053" lon="5.14984">
        <ele>289.899993896</ele>
        <time>2015-08-17T12:30:07.043Z</time>
      </trkpt>
      <trkpt lat="45.9804" lon="5.14959">
        <ele>290.399993896</ele>
        <time>2015-08-17T12:30:12.069Z</time>
      </trkpt>
      <trkpt lat="45.98028" lon="5.1492">
        <ele>290.399993896</ele>
        <time>2015-08-17T12:30:18.042Z</time>
      </trkpt>
      <trkpt lat="45.97931" lon="5.14679">
        <ele>292.700012207</ele>
        <time>2015-08-17T12:30:48.055Z</time>
      </trkpt>
      <trkpt lat="45.97922" lon="5.14646">
        <ele>291.799987793</ele>
        <time>2015-08-17T12:30:53.098Z</time>
      </trkpt>
      <trkpt lat="45.97896" lon="5.14579">
        <ele>290.799987793</ele>
        <time>2015-08-17T12:31:02.058Z</time>
      </trkpt>
      <trkpt lat="45.97892" lon="5.14563">
        <ele>290.5</ele>
        <time>2015-08-17T12:31:04.037Z</time>
      </trkpt>
      <trkpt lat="45.9787" lon="5.14515">
        <ele>289.399993896</ele>
        <time>2015-08-17T12:31:11.103Z</time>
      </trkpt>
      <trkpt lat="45.97853" lon="5.14485">
        <ele>289.200012207</ele>
        <time>2015-08-17T12:31:15.119Z</time>
      </trkpt>
      <trkpt lat="45.97826" lon="5.14417">
        <ele>289.5</ele>
        <time>2015-08-17T12:31:24.055Z</time>
      </trkpt>
      <trkpt lat="45.97819" lon="5.14367">
        <ele>289</ele>
        <time>2015-08-17T12:31:30.056Z</time>
      </trkpt>
      <trkpt lat="45.97808" lon="5.14335">
        <ele>289.200012207</ele>
        <time>2015-08-17T12:31:34.091Z</time>
      </trkpt>
      <trkpt lat="45.97805" lon="5.14319">
        <ele>287.799987793</ele>
        <time>2015-08-17T12:31:35.055Z</time>
      </trkpt>
      <trkpt lat="45.97793" lon="5.14295">
        <ele>287.600006104</ele>
        <time>2015-08-17T12:31:38.09Z</time>
      </trkpt>
      <trkpt lat="45.97777" lon="5.14252">
        <ele>287.5</ele>
        <time>2015-08-17T12:31:43.054Z</time>
      </trkpt>
      <trkpt lat="45.97752" lon="5.14201">
        <ele>286.899993896</ele>
        <time>2015-08-17T12:31:50.095Z</time>
      </trkpt>
      <trkpt lat="45.97715" lon="5.14072">
        <ele>281.799987793</ele>
        <time>2015-08-17T12:32:07.06Z</time>
      </trkpt>
      <trkpt lat="45.97707" lon="5.14057">
        <ele>281.399993896</ele>
        <time>2015-08-17T12:32:09.098Z</time>
      </trkpt>
      <trkpt lat="45.97682" lon="5.13981">
        <ele>278.600006104</ele>
        <time>2015-08-17T12:32:18.098Z</time>
      </trkpt>
      <trkpt lat="45.97673" lon="5.13936">
        <ele>275.799987793</ele>
        <time>2015-08-17T12:32:23.042Z</time>
      </trkpt>
      <trkpt lat="45.97671" lon="5.13909">
        <ele>272.399993896</ele>
        <time>2015-08-17T12:32:25.211Z</time>
      </trkpt>
      <trkpt lat="45.97662" lon="5.13868">
        <ele>268.899993896</ele>
        <time>2015-08-17T12:32:29.107Z</time>
      </trkpt>
      <trkpt lat="45.97633" lon="5.13782">
        <ele>265.299987793</ele>
        <time>2015-08-17T12:32:39.152Z</time>
      </trkpt>
      <trkpt lat="45.97616" lon="5.13705">
        <ele>263.200012207</ele>
        <time>2015-08-17T12:32:48.066Z</time>
      </trkpt>
      <trkpt lat="45.97609" lon="5.13698">
        <ele>263</ele>
        <time>2015-08-17T12:32:49.112Z</time>
      </trkpt>
      <trkpt lat="45.97581" lon="5.13632">
        <ele>261.5</ele>
        <time>2015-08-17T12:32:57.157Z</time>
      </trkpt>
      <trkpt lat="45.97569" lon="5.1361">
        <ele>261.299987793</ele>
        <time>2015-08-17T12:33:00.049Z</time>
      </trkpt>
      <trkpt lat="45.9756" lon="5.1358">
        <ele>261.100006104</ele>
        <time>2015-08-17T12:33:04.056Z</time>
      </trkpt>
      <trkpt lat="45.97548" lon="5.13552">
        <ele>260.299987793</ele>
        <time>2015-08-17T12:33:08.049Z</time>
      </trkpt>
      <trkpt lat="45.97547" lon="5.13538">
        <ele>260</ele>
        <time>2015-08-17T12:33:10.071Z</time>
      </trkpt>
      <trkpt lat="45.97531" lon="5.13512">
        <ele>259.200012207</ele>
        <time>2015-08-17T12:33:14.045Z</time>
      </trkpt>
      <trkpt lat="45.9751" lon="5.13448">
        <ele>257.5</ele>
        <time>2015-08-17T12:33:24.043Z</time>
      </trkpt>
      <trkpt lat="45.97495" lon="5.13424">
        <ele>257</ele>
        <time>2015-08-17T12:33:28.034Z</time>
      </trkpt>
      <trkpt lat="45.97487" lon="5.13418">
        <ele>257.100006104</ele>
        <time>2015-08-17T12:33:29.094Z</time>
      </trkpt>
      <trkpt lat="45.97472" lon="5.134">
        <ele>256.700012207</ele>
        <time>2015-08-17T12:33:32.059Z</time>
      </trkpt>
      <trkpt lat="45.97454" lon="5.13362">
        <ele>257.600006104</ele>
        <time>2015-08-17T12:33:38.045Z</time>
      </trkpt>
      <trkpt lat="45.97423" lon="5.13311">
        <ele>261.600006104</ele>
        <time>2015-08-17T12:33:49.06Z</time>
      </trkpt>
      <trkpt lat="45.97408" lon="5.13263">
        <ele>261.700012207</ele>
        <time>2015-08-17T12:33:58.058Z</time>
      </trkpt>
      <trkpt lat="45.97392" lon="5.13228">
        <ele>262.5</ele>
        <time>2015-08-17T12:34:04.035Z</time>
      </trkpt>
      <trkpt lat="45.9738" lon="5.13191">
        <ele>262.799987793</ele>
        <time>2015-08-17T12:34:10.035Z</time>
      </trkpt>
      <trkpt lat="45.97374" lon="5.1316">
        <ele>262.600006104</ele>
        <time>2015-08-17T12:34:16.061Z</time>
      </trkpt>
      <trkpt lat="45.97374" lon="5.13155">
        <ele>262.700012207</ele>
        <time>2015-08-17T12:34:17.11Z</time>
      </trkpt>
      <trkpt lat="45.97381" lon="5.13149">
        <ele>263.799987793</ele>
        <time>2015-08-17T12:34:18.054Z</time>
      </trkpt>
      <trkpt lat="45.9741" lon="5.13012">
        <ele>271.5</ele>
        <time>2015-08-17T12:34:36.099Z</time>
      </trkpt>
      <trkpt lat="45.97442" lon="5.12852">
        <ele>281.5</ele>
        <time>2015-08-17T12:34:55.076Z</time>
      </trkpt>
      <trkpt lat="45.97456" lon="5.12791">
        <ele>284.399993896</ele>
        <time>2015-08-17T12:35:03.059Z</time>
      </trkpt>
      <trkpt lat="45.97504" lon="5.12638">
        <ele>291.600006104</ele>
        <time>2015-08-17T12:35:23.058Z</time>
      </trkpt>
      <trkpt lat="45.97586" lon="5.124">
        <ele>289.200012207</ele>
        <time>2015-08-17T12:35:52.093Z</time>
      </trkpt>
      <trkpt lat="45.97596" lon="5.12376">
        <ele>289.299987793</ele>
        <time>2015-08-17T12:35:55.056Z</time>
      </trkpt>
      <trkpt lat="45.97669" lon="5.12148">
        <ele>289</ele>
        <time>2015-08-17T12:36:23.056Z</time>
      </trkpt>
      <trkpt lat="45.97679" lon="5.12129">
        <ele>288.5</ele>
        <time>2015-08-17T12:36:26.1Z</time>
      </trkpt>
      <trkpt lat="45.97763" lon="5.11918">
        <ele>287.899993896</ele>
        <time>2015-08-17T12:36:56.076Z</time>
      </trkpt>
      <trkpt lat="45.97779" lon="5.11854">
        <ele>287.799987793</ele>
        <time>2015-08-17T12:37:03.093Z</time>
      </trkpt>
      <trkpt lat="45.97797" lon="5.11759">
        <ele>287</ele>
        <time>2015-08-17T12:37:13.094Z</time>
      </trkpt>
      <trkpt lat="45.97801" lon="5.11708">
        <ele>287.299987793</ele>
        <time>2015-08-17T12:37:19.095Z</time>
      </trkpt>
      <trkpt lat="45.97801" lon="5.11629">
        <ele>287.700012207</ele>
        <time>2015-08-17T12:37:28.035Z</time>
      </trkpt>
      <trkpt lat="45.97795" lon="5.11477">
        <ele>287.200012207</ele>
        <time>2015-08-17T12:37:46.108Z</time>
      </trkpt>
      <trkpt lat="45.97797" lon="5.11454">
        <ele>287.299987793</ele>
        <time>2015-08-17T12:37:49.108Z</time>
      </trkpt>
      <trkpt lat="45.97817" lon="5.11322">
        <ele>286.299987793</ele>
        <time>2015-08-17T12:38:05.101Z</time>
      </trkpt>
      <trkpt lat="45.97829" lon="5.11273">
        <ele>286.700012207</ele>
        <time>2015-08-17T12:38:12.053Z</time>
      </trkpt>
      <trkpt lat="45.97846" lon="5.11161">
        <ele>290</ele>
        <time>2015-08-17T12:38:27.093Z</time>
      </trkpt>
      <trkpt lat="45.97851" lon="5.1112">
        <ele>290.399993896</ele>
        <time>2015-08-17T12:38:32.057Z</time>
      </trkpt>
      <trkpt lat="45.97851" lon="5.11081">
        <ele>288.200012207</ele>
        <time>2015-08-17T12:38:36.054Z</time>
      </trkpt>
      <trkpt lat="45.97849" lon="5.11067">
        <ele>288.799987793</ele>
        <time>2015-08-17T12:38:38.059Z</time>
      </trkpt>
      <trkpt lat="45.9785" lon="5.11036">
        <ele>289.399993896</ele>
        <time>2015-08-17T12:38:42.045Z</time>
      </trkpt>
      <trkpt lat="45.97848" lon="5.11023">
        <ele>290.100006104</ele>
        <time>2015-08-17T12:38:44.059Z</time>
      </trkpt>
      <trkpt lat="45.97852" lon="5.10954">
        <ele>292</ele>
        <time>2015-08-17T12:38:54.098Z</time>
      </trkpt>
      <trkpt lat="45.97876" lon="5.10778">
        <ele>295.299987793</ele>
        <time>2015-08-17T12:39:16.135Z</time>
      </trkpt>
      <trkpt lat="45.97883" lon="5.10747">
        <ele>296</ele>
        <time>2015-08-17T12:39:20.096Z</time>
      </trkpt>
      <trkpt lat="45.97895" lon="5.10715">
        <ele>296.200012207</ele>
        <time>2015-08-17T12:39:24.104Z</time>
      </trkpt>
      <trkpt lat="45.97929" lon="5.10661">
        <ele>297.700012207</ele>
        <time>2015-08-17T12:39:33.054Z</time>
      </trkpt>
      <trkpt lat="45.97975" lon="5.10617">
        <ele>291</ele>
        <time>2015-08-17T12:39:43.042Z</time>
      </trkpt>
      <trkpt lat="45.98023" lon="5.1059">
        <ele>288</ele>
        <time>2015-08-17T12:39:52.125Z</time>
      </trkpt>
      <trkpt lat="45.9805" lon="5.10579">
        <ele>285.600006104</ele>
        <time>2015-08-17T12:39:59.056Z</time>
      </trkpt>
      <trkpt lat="45.98056" lon="5.10571">
        <ele>285.600006104</ele>
        <time>2015-08-17T12:40:02.102Z</time>
      </trkpt>
      <trkpt lat="45.98053" lon="5.1054">
        <ele>285.799987793</ele>
        <time>2015-08-17T12:40:09.056Z</time>
      </trkpt>
      <trkpt lat="45.98032" lon="5.1051">
        <ele>286.899993896</ele>
        <time>2015-08-17T12:40:16.12Z</time>
      </trkpt>
      <trkpt lat="45.98026" lon="5.10489">
        <ele>287.899993896</ele>
        <time>2015-08-17T12:40:19.054Z</time>
      </trkpt>
      <trkpt lat="45.98023" lon="5.10402">
        <ele>289.299987793</ele>
        <time>2015-08-17T12:40:30.095Z</time>
      </trkpt>
      <trkpt lat="45.98041" lon="5.10268">
        <ele>289.700012207</ele>
        <time>2015-08-17T12:40:48.102Z</time>
      </trkpt>
      <trkpt lat="45.98039" lon="5.10235">
        <ele>289.899993896</ele>
        <time>2015-08-17T12:40:52.109Z</time>
      </trkpt>
      <trkpt lat="45.98028" lon="5.10201">
        <ele>289.100006104</ele>
        <time>2015-08-17T12:40:56.118Z</time>
      </trkpt>
      <trkpt lat="45.97997" lon="5.1013">
        <ele>289.399993896</ele>
        <time>2015-08-17T12:41:04.1Z</time>
      </trkpt>
      <trkpt lat="45.97988" lon="5.10096">
        <ele>288.700012207</ele>
        <time>2015-08-17T12:41:07.055Z</time>
      </trkpt>
      <trkpt lat="45.97971" lon="5.10046">
        <ele>288.399993896</ele>
        <time>2015-08-17T12:41:13.053Z</time>
      </trkpt>
      <trkpt lat="45.97962" lon="5.09999">
        <ele>287.399993896</ele>
        <time>2015-08-17T12:41:20.046Z</time>
      </trkpt>
      <trkpt lat="45.97943" lon="5.09991">
        <ele>285.299987793</ele>
        <time>2015-08-17T12:45:59.104Z</time>
      </trkpt>
      <trkpt lat="45.97932" lon="5.09977">
        <ele>284.299987793</ele>
        <time>2015-08-17T12:47:32.055Z</time>
      </trkpt>
      <trkpt lat="45.9793" lon="5.09991">
        <ele>282.5</ele>
        <time>2015-08-17T12:48:12.054Z</time>
      </trkpt>
      <trkpt lat="45.97938" lon="5.09984">
        <ele>282.399993896</ele>
        <time>2015-08-17T12:48:59.07Z</time>
      </trkpt>
      <trkpt lat="45.97941" lon="5.09969">
        <ele>283.100006104</ele>
        <time>2015-08-17T12:49:10.053Z</time>
      </trkpt>
      <trkpt lat="45.97932" lon="5.09919">
        <ele>283.600006104</ele>
        <time>2015-08-17T12:49:19.04Z</time>
      </trkpt>
      <trkpt lat="45.97901" lon="5.09846">
        <ele>283.899993896</ele>
        <time>2015-08-17T12:49:30.11Z</time>
      </trkpt>
      <trkpt lat="45.97892" lon="5.09808">
        <ele>283.399993896</ele>
        <time>2015-08-17T12:49:36.192Z</time>
      </trkpt>
      <trkpt lat="45.97874" lon="5.09756">
        <ele>280.899993896</ele>
        <time>2015-08-17T12:49:43.052Z</time>
      </trkpt>
      <trkpt lat="45.97861" lon="5.09705">
        <ele>278.200012207</ele>
        <time>2015-08-17T12:49:50.094Z</time>
      </trkpt>
      <trkpt lat="45.97815" lon="5.09588">
        <ele>279.100006104</ele>
        <time>2015-08-17T12:50:08.121Z</time>
      </trkpt>
      <trkpt lat="45.97811" lon="5.09582">
        <ele>278.899993896</ele>
        <time>2015-08-17T12:50:09.052Z</time>
      </trkpt>
      <trkpt lat="45.9779" lon="5.09517">
        <ele>278.399993896</ele>
        <time>2015-08-17T12:50:19.052Z</time>
      </trkpt>
      <trkpt lat="45.97702" lon="5.09273">
        <ele>277.799987793</ele>
        <time>2015-08-17T12:50:50.103Z</time>
      </trkpt>
      <trkpt lat="45.97679" lon="5.09191">
        <ele>278.100006104</ele>
        <time>2015-08-17T12:51:00.256Z</time>
      </trkpt>
      <trkpt lat="45.97674" lon="5.09149">
        <ele>277.700012207</ele>
        <time>2015-08-17T12:51:05.052Z</time>
      </trkpt>
      <trkpt lat="45.97686" lon="5.09068">
        <ele>275.299987793</ele>
        <time>2015-08-17T12:51:16.088Z</time>
      </trkpt>
      <trkpt lat="45.97731" lon="5.08884">
        <ele>280.899993896</ele>
        <time>2015-08-17T12:51:44.104Z</time>
      </trkpt>
      <trkpt lat="45.97732" lon="5.0887">
        <ele>280.600006104</ele>
        <time>2015-08-17T12:51:46.089Z</time>
      </trkpt>
      <trkpt lat="45.97738" lon="5.08849">
        <ele>281.600006104</ele>
        <time>2015-08-17T12:51:49.053Z</time>
      </trkpt>
      <trkpt lat="45.97798" lon="5.08569">
        <ele>274.5</ele>
        <time>2015-08-17T12:52:22.088Z</time>
      </trkpt>
      <trkpt lat="45.97814" lon="5.08506">
        <ele>272.700012207</ele>
        <time>2015-08-17T12:52:30.097Z</time>
      </trkpt>
      <trkpt lat="45.97918" lon="5.08157">
        <ele>279.299987793</ele>
        <time>2015-08-17T12:53:23.101Z</time>
      </trkpt>
      <trkpt lat="45.97984" lon="5.07942">
        <ele>283.899993896</ele>
        <time>2015-08-17T12:53:56.175Z</time>
      </trkpt>
      <trkpt lat="45.97993" lon="5.07936">
        <ele>283.700012207</ele>
        <time>2015-08-17T12:53:59.089Z</time>
      </trkpt>
      <trkpt lat="45.98096" lon="5.0797">
        <ele>280.399993896</ele>
        <time>2015-08-17T12:54:18.05Z</time>
      </trkpt>
      <trkpt lat="45.98109" lon="5.07967">
        <ele>280</ele>
        <time>2015-08-17T12:54:20.055Z</time>
      </trkpt>
      <trkpt lat="45.98128" lon="5.07956">
        <ele>279.200012207</ele>
        <time>2015-08-17T12:54:23.094Z</time>
      </trkpt>
      <trkpt lat="45.98191" lon="5.07903">
        <ele>275.799987793</ele>
        <time>2015-08-17T12:54:38.052Z</time>
      </trkpt>
      <trkpt lat="45.98239" lon="5.07886">
        <ele>275.299987793</ele>
        <time>2015-08-17T12:54:47.086Z</time>
      </trkpt>
      <trkpt lat="45.98281" lon="5.07877">
        <ele>274.100006104</ele>
        <time>2015-08-17T12:54:55.18Z</time>
      </trkpt>
      <trkpt lat="45.98405" lon="5.0791">
        <ele>277.200012207</ele>
        <time>2015-08-17T12:55:18.048Z</time>
      </trkpt>
      <trkpt lat="45.98416" lon="5.07907">
        <ele>277</ele>
        <time>2015-08-17T12:55:20.044Z</time>
      </trkpt>
      <trkpt lat="45.98464" lon="5.0792">
        <ele>278.600006104</ele>
        <time>2015-08-17T12:55:30.109Z</time>
      </trkpt>
      <trkpt lat="45.98483" lon="5.07921">
        <ele>280.899993896</ele>
        <time>2015-08-17T12:55:33.051Z</time>
      </trkpt>
      <trkpt lat="45.98577" lon="5.07909">
        <ele>286.100006104</ele>
        <time>2015-08-17T12:55:53.053Z</time>
      </trkpt>
      <trkpt lat="45.98615" lon="5.07899">
        <ele>287.299987793</ele>
        <time>2015-08-17T12:55:59.039Z</time>
      </trkpt>
      <trkpt lat="45.98625" lon="5.07892">
        <ele>288.799987793</ele>
        <time>2015-08-17T12:56:01.05Z</time>
      </trkpt>
      <trkpt lat="45.98638" lon="5.07889">
        <ele>288.5</ele>
        <time>2015-08-17T12:56:03.05Z</time>
      </trkpt>
      <trkpt lat="45.98664" lon="5.07874">
        <ele>288.399993896</ele>
        <time>2015-08-17T12:56:08.097Z</time>
      </trkpt>
      <trkpt lat="45.98755" lon="5.07835">
        <ele>288.299987793</ele>
        <time>2015-08-17T12:56:22.187Z</time>
      </trkpt>
      <trkpt lat="45.98837" lon="5.07814">
        <ele>287.100006104</ele>
        <time>2015-08-17T12:56:37.053Z</time>
      </trkpt>
      <trkpt lat="45.98856" lon="5.07806">
        <ele>285.200012207</ele>
        <time>2015-08-17T12:56:41.052Z</time>
      </trkpt>
      <trkpt lat="45.98963" lon="5.07782">
        <ele>283.399993896</ele>
        <time>2015-08-17T12:57:01.051Z</time>
      </trkpt>
      <trkpt lat="45.98974" lon="5.07783">
        <ele>283.200012207</ele>
        <time>2015-08-17T12:57:03.047Z</time>
      </trkpt>
      <trkpt lat="45.99068" lon="5.07766">
        <ele>281.600006104</ele>
        <time>2015-08-17T12:57:20.095Z</time>
      </trkpt>
      <trkpt lat="45.9912" lon="5.07752">
        <ele>282.100006104</ele>
        <time>2015-08-17T12:57:29.053Z</time>
      </trkpt>
      <trkpt lat="45.99147" lon="5.0775">
        <ele>283.399993896</ele>
        <time>2015-08-17T12:57:34.091Z</time>
      </trkpt>
      <trkpt lat="45.99214" lon="5.07727">
        <ele>281</ele>
        <time>2015-08-17T12:57:46.096Z</time>
      </trkpt>
      <trkpt lat="45.99253" lon="5.0772">
        <ele>280</ele>
        <time>2015-08-17T12:57:53.051Z</time>
      </trkpt>
      <trkpt lat="45.99284" lon="5.07719">
        <ele>280.399993896</ele>
        <time>2015-08-17T12:57:59.049Z</time>
      </trkpt>
      <trkpt lat="45.99303" lon="5.07722">
        <ele>282.700012207</ele>
        <time>2015-08-17T12:58:05.131Z</time>
      </trkpt>
      <trkpt lat="45.99376" lon="5.07711">
        <ele>289.299987793</ele>
        <time>2015-08-17T12:58:21.095Z</time>
      </trkpt>
      <trkpt lat="45.99401" lon="5.07714">
        <ele>288.899993896</ele>
        <time>2015-08-17T12:58:26.099Z</time>
      </trkpt>
      <trkpt lat="45.99438" lon="5.07708">
        <ele>291</ele>
        <time>2015-08-17T12:58:34.097Z</time>
      </trkpt>
      <trkpt lat="45.99459" lon="5.07699">
        <ele>291.700012207</ele>
        <time>2015-08-17T12:58:38.091Z</time>
      </trkpt>
      <trkpt lat="45.99474" lon="5.07701">
        <ele>286.700012207</ele>
        <time>2015-08-17T12:58:39.05Z</time>
      </trkpt>
      <trkpt lat="45.995" lon="5.07694">
        <ele>276.899993896</ele>
        <time>2015-08-17T12:58:42.049Z</time>
      </trkpt>
      <trkpt lat="45.99528" lon="5.0768">
        <ele>273.899993896</ele>
        <time>2015-08-17T12:58:46.05Z</time>
      </trkpt>
      <trkpt lat="45.99552" lon="5.07661">
        <ele>276.200012207</ele>
        <time>2015-08-17T12:58:50.085Z</time>
      </trkpt>
      <trkpt lat="45.9965" lon="5.07613">
        <ele>274.899993896</ele>
        <time>2015-08-17T12:59:07.094Z</time>
      </trkpt>
      <trkpt lat="45.99695" lon="5.07599">
        <ele>276.799987793</ele>
        <time>2015-08-17T12:59:15.09Z</time>
      </trkpt>
      <trkpt lat="45.99733" lon="5.07591">
        <ele>276.100006104</ele>
        <time>2015-08-17T12:59:22.054Z</time>
      </trkpt>
      <trkpt lat="45.9978" lon="5.07587">
        <ele>276.600006104</ele>
        <time>2015-08-17T12:59:32.05Z</time>
      </trkpt>
      <trkpt lat="45.99818" lon="5.07571">
        <ele>277.399993896</ele>
        <time>2015-08-17T12:59:40.1Z</time>
      </trkpt>
      <trkpt lat="45.99848" lon="5.07554">
        <ele>279.299987793</ele>
        <time>2015-08-17T12:59:46.053Z</time>
      </trkpt>
      <trkpt lat="45.99893" lon="5.0752">
        <ele>280</ele>
        <time>2015-08-17T12:59:56.051Z</time>
      </trkpt>
      <trkpt lat="45.99935" lon="5.07474">
        <ele>282.700012207</ele>
        <time>2015-08-17T13:00:08.097Z</time>
      </trkpt>
      <trkpt lat="45.99962" lon="5.0743">
        <ele>283.399993896</ele>
        <time>2015-08-17T13:00:17.049Z</time>
      </trkpt>
      <trkpt lat="45.99994" lon="5.07386">
        <ele>281.5</ele>
        <time>2015-08-17T13:00:28.098Z</time>
      </trkpt>
      <trkpt lat="46.0005" lon="5.07336">
        <ele>282.399993896</ele>
        <time>2015-08-17T13:00:44.104Z</time>
      </trkpt>
      <trkpt lat="46.00236" lon="5.0713">
        <ele>281.299987793</ele>
        <time>2015-08-17T13:01:33.098Z</time>
      </trkpt>
      <trkpt lat="46.00246" lon="5.07116">
        <ele>278.899993896</ele>
        <time>2015-08-17T13:01:36.05Z</time>
      </trkpt>
      <trkpt lat="46.00251" lon="5.07113">
        <ele>278.399993896</ele>
        <time>2015-08-17T13:01:37.141Z</time>
      </trkpt>
      <trkpt lat="46.00291" lon="5.07059">
        <ele>280.200012207</ele>
        <time>2015-08-17T13:01:46.049Z</time>
      </trkpt>
      <trkpt lat="46.00355" lon="5.06986">
        <ele>282.5</ele>
        <time>2015-08-17T13:02:02.041Z</time>
      </trkpt>
      <trkpt lat="46.00364" lon="5.06973">
        <ele>282.5</ele>
        <time>2015-08-17T13:02:05.05Z</time>
      </trkpt>
      <trkpt lat="46.00371" lon="5.06967">
        <ele>282.100006104</ele>
        <time>2015-08-17T13:02:08.09Z</time>
      </trkpt>
      <trkpt lat="46.00371" lon="5.06918">
        <ele>283.399993896</ele>
        <time>2015-08-17T13:02:17.093Z</time>
      </trkpt>
      <trkpt lat="46.00366" lon="5.06866">
        <ele>285.600006104</ele>
        <time>2015-08-17T13:02:26.081Z</time>
      </trkpt>
      <trkpt lat="46.00364" lon="5.06821">
        <ele>286.100006104</ele>
        <time>2015-08-17T13:02:32.041Z</time>
      </trkpt>
      <trkpt lat="46.00347" lon="5.06752">
        <ele>286.700012207</ele>
        <time>2015-08-17T13:02:42.05Z</time>
      </trkpt>
      <trkpt lat="46.00342" lon="5.06712">
        <ele>286.5</ele>
        <time>2015-08-17T13:02:47.097Z</time>
      </trkpt>
      <trkpt lat="46.00334" lon="5.06548">
        <ele>287.299987793</ele>
        <time>2015-08-17T13:03:07.097Z</time>
      </trkpt>
      <trkpt lat="46.00345" lon="5.06437">
        <ele>285.200012207</ele>
        <time>2015-08-17T13:03:20.1Z</time>
      </trkpt>
      <trkpt lat="46.0035" lon="5.06401">
        <ele>279.899993896</ele>
        <time>2015-08-17T13:03:22.137Z</time>
      </trkpt>
      <trkpt lat="46.00354" lon="5.06347">
        <ele>277.700012207</ele>
        <time>2015-08-17T13:03:28.086Z</time>
      </trkpt>
      <trkpt lat="46.00352" lon="5.06327">
        <ele>276.5</ele>
        <time>2015-08-17T13:03:31.099Z</time>
      </trkpt>
      <trkpt lat="46.00352" lon="5.06137">
        <ele>284.399993896</ele>
        <time>2015-08-17T13:03:54.079Z</time>
      </trkpt>
      <trkpt lat="46.00349" lon="5.06112">
        <ele>284.799987793</ele>
        <time>2015-08-17T13:03:57.093Z</time>
      </trkpt>
      <trkpt lat="46.00347" lon="5.06053">
        <ele>284.600006104</ele>
        <time>2015-08-17T13:04:04.052Z</time>
      </trkpt>
      <trkpt lat="46.00339" lon="5.05984">
        <ele>285.399993896</ele>
        <time>2015-08-17T13:04:13.083Z</time>
      </trkpt>
      <trkpt lat="46.00337" lon="5.05935">
        <ele>286.399993896</ele>
        <time>2015-08-17T13:04:19.087Z</time>
      </trkpt>
      <trkpt lat="46.00331" lon="5.05912">
        <ele>286.700012207</ele>
        <time>2015-08-17T13:04:22.056Z</time>
      </trkpt>
      <trkpt lat="46.00312" lon="5.05785">
        <ele>290.100006104</ele>
        <time>2015-08-17T13:04:38.046Z</time>
      </trkpt>
      <trkpt lat="46.00302" lon="5.05687">
        <ele>289.5</ele>
        <time>2015-08-17T13:04:49.093Z</time>
      </trkpt>
      <trkpt lat="46.00296" lon="5.05677">
        <ele>289.399993896</ele>
        <time>2015-08-17T13:04:50.053Z</time>
      </trkpt>
      <trkpt lat="46.00282" lon="5.05635">
        <ele>290</ele>
        <time>2015-08-17T13:04:55.087Z</time>
      </trkpt>
      <trkpt lat="46.00262" lon="5.0554">
        <ele>283.899993896</ele>
        <time>2015-08-17T13:05:05.049Z</time>
      </trkpt>
      <trkpt lat="46.00237" lon="5.05456">
        <ele>281.600006104</ele>
        <time>2015-08-17T13:05:16.141Z</time>
      </trkpt>
      <trkpt lat="46.0021" lon="5.05352">
        <ele>281.600006104</ele>
        <time>2015-08-17T13:05:31.037Z</time>
      </trkpt>
      <trkpt lat="46.00211" lon="5.05309">
        <ele>282</ele>
        <time>2015-08-17T13:05:37.05Z</time>
      </trkpt>
      <trkpt lat="46.00215" lon="5.05278">
        <ele>282.299987793</ele>
        <time>2015-08-17T13:05:41.05Z</time>
      </trkpt>
      <trkpt lat="46.00257" lon="5.05123">
        <ele>280.100006104</ele>
        <time>2015-08-17T13:06:01.05Z</time>
      </trkpt>
      <trkpt lat="46.00283" lon="5.04975">
        <ele>280.799987793</ele>
        <time>2015-08-17T13:06:20.097Z</time>
      </trkpt>
      <trkpt lat="46.00295" lon="5.04806">
        <ele>282.899993896</ele>
        <time>2015-08-17T13:06:41.047Z</time>
      </trkpt>
      <trkpt lat="46.00298" lon="5.04731">
        <ele>280.700012207</ele>
        <time>2015-08-17T13:06:50.096Z</time>
      </trkpt>
      <trkpt lat="46.00296" lon="5.04668">
        <ele>281.100006104</ele>
        <time>2015-08-17T13:06:58.093Z</time>
      </trkpt>
      <trkpt lat="46.00288" lon="5.0462">
        <ele>281.399993896</ele>
        <time>2015-08-17T13:07:04.092Z</time>
      </trkpt>
      <trkpt lat="46.00275" lon="5.04574">
        <ele>280.5</ele>
        <time>2015-08-17T13:07:10.128Z</time>
      </trkpt>
      <trkpt lat="46.00259" lon="5.04528">
        <ele>280.200012207</ele>
        <time>2015-08-17T13:07:16.091Z</time>
      </trkpt>
      <trkpt lat="46.00245" lon="5.04477">
        <ele>278.899993896</ele>
        <time>2015-08-17T13:07:23.049Z</time>
      </trkpt>
      <trkpt lat="46.00231" lon="5.04413">
        <ele>280.399993896</ele>
        <time>2015-08-17T13:07:31.05Z</time>
      </trkpt>
      <trkpt lat="46.00217" lon="5.04308">
        <ele>281.899993896</ele>
        <time>2015-08-17T13:07:45.05Z</time>
      </trkpt>
      <trkpt lat="46.00215" lon="5.04258">
        <ele>282.700012207</ele>
        <time>2015-08-17T13:07:51.047Z</time>
      </trkpt>
      <trkpt lat="46.00207" lon="5.04178">
        <ele>282.700012207</ele>
        <time>2015-08-17T13:08:01.05Z</time>
      </trkpt>
      <trkpt lat="46.00205" lon="5.0413">
        <ele>283</ele>
        <time>2015-08-17T13:08:07.039Z</time>
      </trkpt>
      <trkpt lat="46.00209" lon="5.04013">
        <ele>283.600006104</ele>
        <time>2015-08-17T13:08:21.05Z</time>
      </trkpt>
      <trkpt lat="46.00214" lon="5.03957">
        <ele>283.899993896</ele>
        <time>2015-08-17T13:08:28.131Z</time>
      </trkpt>
      <trkpt lat="46.00238" lon="5.03774">
        <ele>281.799987793</ele>
        <time>2015-08-17T13:08:52.094Z</time>
      </trkpt>
      <trkpt lat="46.00237" lon="5.03647">
        <ele>281.399993896</ele>
        <time>2015-08-17T13:09:08.095Z</time>
      </trkpt>
      <trkpt lat="46.00243" lon="5.03524">
        <ele>282.5</ele>
        <time>2015-08-17T13:09:24.083Z</time>
      </trkpt>
      <trkpt lat="46.0024" lon="5.03435">
        <ele>284.399993896</ele>
        <time>2015-08-17T13:09:35.046Z</time>
      </trkpt>
      <trkpt lat="46.00241" lon="5.03359">
        <ele>285.299987793</ele>
        <time>2015-08-17T13:09:45.048Z</time>
      </trkpt>
      <trkpt lat="46.00236" lon="5.0325">
        <ele>287.200012207</ele>
        <time>2015-08-17T13:10:00.087Z</time>
      </trkpt>
      <trkpt lat="46.00226" lon="5.03147">
        <ele>284</ele>
        <time>2015-08-17T13:10:20.114Z</time>
      </trkpt>
      <trkpt lat="46.00228" lon="5.03126">
        <ele>284</ele>
        <time>2015-08-17T13:10:24.048Z</time>
      </trkpt>
      <trkpt lat="46.00224" lon="5.03114">
        <ele>284</ele>
        <time>2015-08-17T13:10:26.052Z</time>
      </trkpt>
      <trkpt lat="46.00221" lon="5.03059">
        <ele>283.600006104</ele>
        <time>2015-08-17T13:10:34.049Z</time>
      </trkpt>
      <trkpt lat="46.00223" lon="5.03044">
        <ele>283.799987793</ele>
        <time>2015-08-17T13:10:36.053Z</time>
      </trkpt>
      <trkpt lat="46.00217" lon="5.02947">
        <ele>284</ele>
        <time>2015-08-17T13:10:49.084Z</time>
      </trkpt>
      <trkpt lat="46.00212" lon="5.02926">
        <ele>283.799987793</ele>
        <time>2015-08-17T13:10:52.049Z</time>
      </trkpt>
      <trkpt lat="46.00196" lon="5.02883">
        <ele>284.700012207</ele>
        <time>2015-08-17T13:10:59.054Z</time>
      </trkpt>
      <trkpt lat="46.00186" lon="5.02883">
        <ele>285.100006104</ele>
        <time>2015-08-17T13:11:01.048Z</time>
      </trkpt>
      <trkpt lat="46.00139" lon="5.02916">
        <ele>283.899993896</ele>
        <time>2015-08-17T13:11:15.048Z</time>
      </trkpt>
      <trkpt lat="46.00136" lon="5.02874">
        <ele>281.399993896</ele>
        <time>2015-08-17T13:11:23.056Z</time>
      </trkpt>
      <trkpt lat="46.00132" lon="5.02864">
        <ele>281.399993896</ele>
        <time>2015-08-17T13:11:25.086Z</time>
      </trkpt>
      <trkpt lat="46.00123" lon="5.02855">
        <ele>281.100006104</ele>
        <time>2015-08-17T13:11:28.093Z</time>
      </trkpt>
      <trkpt lat="46.00105" lon="5.02846">
        <ele>281.600006104</ele>
        <time>2015-08-17T13:11:32.141Z</time>
      </trkpt>
      <trkpt lat="46.00094" lon="5.02835">
        <ele>281.299987793</ele>
        <time>2015-08-17T13:11:34.103Z</time>
      </trkpt>
      <trkpt lat="46.00044" lon="5.02804">
        <ele>282.5</ele>
        <time>2015-08-17T13:11:44.05Z</time>
      </trkpt>
      <trkpt lat="46.00041" lon="5.02793">
        <ele>282.200012207</ele>
        <time>2015-08-17T13:11:48.086Z</time>
      </trkpt>
      <trkpt lat="46.00048" lon="5.02771">
        <ele>282.600006104</ele>
        <time>2015-08-17T13:11:52.046Z</time>
      </trkpt>
      <trkpt lat="46.00048" lon="5.02751">
        <ele>283.5</ele>
        <time>2015-08-17T13:11:55.048Z</time>
      </trkpt>
      <trkpt lat="46.00058" lon="5.02704">
        <ele>284.600006104</ele>
        <time>2015-08-17T13:12:01.049Z</time>
      </trkpt>
      <trkpt lat="46.00061" lon="5.02673">
        <ele>285.299987793</ele>
        <time>2015-08-17T13:12:05.046Z</time>
      </trkpt>
      <trkpt lat="46.00074" lon="5.02623">
        <ele>285.5</ele>
        <time>2015-08-17T13:12:12.141Z</time>
      </trkpt>
      <trkpt lat="46.00086" lon="5.02554">
        <ele>285.299987793</ele>
        <time>2015-08-17T13:12:21.048Z</time>
      </trkpt>
      <trkpt lat="46.0011" lon="5.02467">
        <ele>284.899993896</ele>
        <time>2015-08-17T13:12:36.115Z</time>
      </trkpt>
      <trkpt lat="46.00135" lon="5.0236">
        <ele>285</ele>
        <time>2015-08-17T13:12:50.098Z</time>
      </trkpt>
      <trkpt lat="46.00138" lon="5.02328">
        <ele>284.600006104</ele>
        <time>2015-08-17T13:12:54.083Z</time>
      </trkpt>
      <trkpt lat="46.00131" lon="5.02278">
        <ele>281.799987793</ele>
        <time>2015-08-17T13:12:59.035Z</time>
      </trkpt>
      <trkpt lat="46.00132" lon="5.02259">
        <ele>280.799987793</ele>
        <time>2015-08-17T13:13:01.047Z</time>
      </trkpt>
      <trkpt lat="46.00137" lon="5.02244">
        <ele>279.299987793</ele>
        <time>2015-08-17T13:13:03.049Z</time>
      </trkpt>
      <trkpt lat="46.00152" lon="5.02224">
        <ele>278.799987793</ele>
        <time>2015-08-17T13:13:07.036Z</time>
      </trkpt>
      <trkpt lat="46.00152" lon="5.0221">
        <ele>278</ele>
        <time>2015-08-17T13:13:09.035Z</time>
      </trkpt>
      <trkpt lat="46.00144" lon="5.02188">
        <ele>276.600006104</ele>
        <time>2015-08-17T13:13:12.125Z</time>
      </trkpt>
      <trkpt lat="46.00119" lon="5.02081">
        <ele>273.299987793</ele>
        <time>2015-08-17T13:13:25.049Z</time>
      </trkpt>
      <trkpt lat="46.00097" lon="5.02006">
        <ele>274.100006104</ele>
        <time>2015-08-17T13:13:36.085Z</time>
      </trkpt>
      <trkpt lat="46.00086" lon="5.01976">
        <ele>275.399993896</ele>
        <time>2015-08-17T13:13:40.095Z</time>
      </trkpt>
      <trkpt lat="46.0005" lon="5.0185">
        <ele>281.600006104</ele>
        <time>2015-08-17T13:13:58.086Z</time>
      </trkpt>
      <trkpt lat="46.00024" lon="5.01769">
        <ele>281</ele>
        <time>2015-08-17T13:14:10.111Z</time>
      </trkpt>
      <trkpt lat="45.99961" lon="5.01552">
        <ele>280</ele>
        <time>2015-08-17T13:14:40.095Z</time>
      </trkpt>
      <trkpt lat="45.99932" lon="5.0146">
        <ele>281.200012207</ele>
        <time>2015-08-17T13:14:52.103Z</time>
      </trkpt>
      <trkpt lat="45.99914" lon="5.01414">
        <ele>282.5</ele>
        <time>2015-08-17T13:14:58.084Z</time>
      </trkpt>
      <trkpt lat="45.99781" lon="5.01113">
        <ele>284.5</ele>
        <time>2015-08-17T13:15:32.115Z</time>
      </trkpt>
      <trkpt lat="45.99631" lon="5.00788">
        <ele>280.5</ele>
        <time>2015-08-17T13:16:11.047Z</time>
      </trkpt>
      <trkpt lat="45.99627" lon="5.00768">
        <ele>278.899993896</ele>
        <time>2015-08-17T13:16:13.048Z</time>
      </trkpt>
      <trkpt lat="45.99467" lon="5.00426">
        <ele>279.200012207</ele>
        <time>2015-08-17T13:17:00.119Z</time>
      </trkpt>
      <trkpt lat="45.99393" lon="5.00252">
        <ele>278.200012207</ele>
        <time>2015-08-17T13:17:25.045Z</time>
      </trkpt>
      <trkpt lat="45.99376" lon="5.0022">
        <ele>278.399993896</ele>
        <time>2015-08-17T13:17:30.085Z</time>
      </trkpt>
      <trkpt lat="45.99326" lon="5.00101">
        <ele>282.700012207</ele>
        <time>2015-08-17T13:17:49.047Z</time>
      </trkpt>
      <trkpt lat="45.99313" lon="5.00061">
        <ele>281.899993896</ele>
        <time>2015-08-17T13:17:53.035Z</time>
      </trkpt>
      <trkpt lat="45.99297" lon="5.00023">
        <ele>282.700012207</ele>
        <time>2015-08-17T13:17:58.083Z</time>
      </trkpt>
      <trkpt lat="45.99286" lon="5.0001">
        <ele>280.899993896</ele>
        <time>2015-08-17T13:18:00.115Z</time>
      </trkpt>
      <trkpt lat="45.99262" lon="4.9996">
        <ele>278.5</ele>
        <time>2015-08-17T13:18:07.1Z</time>
      </trkpt>
      <trkpt lat="45.99226" lon="4.99875">
        <ele>274.399993896</ele>
        <time>2015-08-17T13:18:18.092Z</time>
      </trkpt>
      <trkpt lat="45.99092" lon="4.99579">
        <ele>275.5</ele>
        <time>2015-08-17T13:18:59.05Z</time>
      </trkpt>
      <trkpt lat="45.99072" lon="4.99528">
        <ele>276.399993896</ele>
        <time>2015-08-17T13:19:06.094Z</time>
      </trkpt>
      <trkpt lat="45.99025" lon="4.99424">
        <ele>279.5</ele>
        <time>2015-08-17T13:19:22.084Z</time>
      </trkpt>
      <trkpt lat="45.98971" lon="4.99295">
        <ele>282.700012207</ele>
        <time>2015-08-17T13:19:41.05Z</time>
      </trkpt>
      <trkpt lat="45.98937" lon="4.9922">
        <ele>282.899993896</ele>
        <time>2015-08-17T13:19:51.054Z</time>
      </trkpt>
      <trkpt lat="45.98917" lon="4.99183">
        <ele>284.299987793</ele>
        <time>2015-08-17T13:19:57.055Z</time>
      </trkpt>
      <trkpt lat="45.98884" lon="4.99139">
        <ele>282.700012207</ele>
        <time>2015-08-17T13:20:05.05Z</time>
      </trkpt>
      <trkpt lat="45.98821" lon="4.99079">
        <ele>282.299987793</ele>
        <time>2015-08-17T13:20:19.089Z</time>
      </trkpt>
      <trkpt lat="45.98756" lon="4.98996">
        <ele>286.399993896</ele>
        <time>2015-08-17T13:20:38.054Z</time>
      </trkpt>
      <trkpt lat="45.98725" lon="4.98947">
        <ele>288.200012207</ele>
        <time>2015-08-17T13:20:48.048Z</time>
      </trkpt>
      <trkpt lat="45.98711" lon="4.98914">
        <ele>288.899993896</ele>
        <time>2015-08-17T13:20:53.082Z</time>
      </trkpt>
      <trkpt lat="45.98612" lon="4.98592">
        <ele>288.899993896</ele>
        <time>2015-08-17T13:21:35.089Z</time>
      </trkpt>
      <trkpt lat="45.98597" lon="4.98533">
        <ele>290.299987793</ele>
        <time>2015-08-17T13:21:43.083Z</time>
      </trkpt>
      <trkpt lat="45.98559" lon="4.98426">
        <ele>289</ele>
        <time>2015-08-17T13:21:56.058Z</time>
      </trkpt>
      <trkpt lat="45.98535" lon="4.98344">
        <ele>290.100006104</ele>
        <time>2015-08-17T13:22:05.083Z</time>
      </trkpt>
      <trkpt lat="45.98469" lon="4.98159">
        <ele>288</ele>
        <time>2015-08-17T13:22:30.054Z</time>
      </trkpt>
      <trkpt lat="45.98454" lon="4.9809">
        <ele>286.200012207</ele>
        <time>2015-08-17T13:22:38.05Z</time>
      </trkpt>
      <trkpt lat="45.98451" lon="4.98048">
        <ele>285.600006104</ele>
        <time>2015-08-17T13:22:43.086Z</time>
      </trkpt>
      <trkpt lat="45.98451" lon="4.9801">
        <ele>286.5</ele>
        <time>2015-08-17T13:22:48.052Z</time>
      </trkpt>
      <trkpt lat="45.98465" lon="4.97843">
        <ele>285.799987793</ele>
        <time>2015-08-17T13:23:11.083Z</time>
      </trkpt>
      <trkpt lat="45.98464" lon="4.97782">
        <ele>286</ele>
        <time>2015-08-17T13:23:19.083Z</time>
      </trkpt>
      <trkpt lat="45.98454" lon="4.97698">
        <ele>283.600006104</ele>
        <time>2015-08-17T13:23:31.062Z</time>
      </trkpt>
      <trkpt lat="45.98436" lon="4.97621">
        <ele>283.700012207</ele>
        <time>2015-08-17T13:23:42.089Z</time>
      </trkpt>
      <trkpt lat="45.98427" lon="4.97596">
        <ele>284.799987793</ele>
        <time>2015-08-17T13:23:46.202Z</time>
      </trkpt>
      <trkpt lat="45.98403" lon="4.97489">
        <ele>290</ele>
        <time>2015-08-17T13:24:01.052Z</time>
      </trkpt>
      <trkpt lat="45.98396" lon="4.97448">
        <ele>291.399993896</ele>
        <time>2015-08-17T13:24:06.095Z</time>
      </trkpt>
      <trkpt lat="45.98394" lon="4.97399">
        <ele>292.700012207</ele>
        <time>2015-08-17T13:24:12.089Z</time>
      </trkpt>
      <trkpt lat="45.98397" lon="4.97365">
        <ele>292.5</ele>
        <time>2015-08-17T13:24:16.095Z</time>
      </trkpt>
      <trkpt lat="45.98406" lon="4.97314">
        <ele>292.5</ele>
        <time>2015-08-17T13:24:23.046Z</time>
      </trkpt>
      <trkpt lat="45.98415" lon="4.97281">
        <ele>291.600006104</ele>
        <time>2015-08-17T13:24:28.086Z</time>
      </trkpt>
      <trkpt lat="45.98454" lon="4.97176">
        <ele>290.399993896</ele>
        <time>2015-08-17T13:24:43.047Z</time>
      </trkpt>
      <trkpt lat="45.98463" lon="4.97143">
        <ele>289.200012207</ele>
        <time>2015-08-17T13:24:47.052Z</time>
      </trkpt>
      <trkpt lat="45.985" lon="4.96931">
        <ele>285</ele>
        <time>2015-08-17T13:25:14.087Z</time>
      </trkpt>
      <trkpt lat="45.98514" lon="4.96865">
        <ele>285.600006104</ele>
        <time>2015-08-17T13:25:23.047Z</time>
      </trkpt>
      <trkpt lat="45.98527" lon="4.96819">
        <ele>287</ele>
        <time>2015-08-17T13:25:29.046Z</time>
      </trkpt>
      <trkpt lat="45.98559" lon="4.96755">
        <ele>288.100006104</ele>
        <time>2015-08-17T13:25:40.05Z</time>
      </trkpt>
      <trkpt lat="45.9859" lon="4.96703">
        <ele>284.700012207</ele>
        <time>2015-08-17T13:25:49.081Z</time>
      </trkpt>
      <trkpt lat="45.98653" lon="4.96612">
        <ele>281.399993896</ele>
        <time>2015-08-17T13:26:07.044Z</time>
      </trkpt>
      <trkpt lat="45.98791" lon="4.96398">
        <ele>284.799987793</ele>
        <time>2015-08-17T13:26:46.115Z</time>
      </trkpt>
      <trkpt lat="45.98821" lon="4.96347">
        <ele>287.100006104</ele>
        <time>2015-08-17T13:26:55.047Z</time>
      </trkpt>
      <trkpt lat="45.98881" lon="4.96224">
        <ele>290.100006104</ele>
        <time>2015-08-17T13:27:16.083Z</time>
      </trkpt>
      <trkpt lat="45.9893" lon="4.96136">
        <ele>292.600006104</ele>
        <time>2015-08-17T13:27:34.086Z</time>
      </trkpt>
      <trkpt lat="45.99026" lon="4.95945">
        <ele>287.600006104</ele>
        <time>2015-08-17T13:28:07.043Z</time>
      </trkpt>
      <trkpt lat="45.99113" lon="4.95778">
        <ele>285.899993896</ele>
        <time>2015-08-17T13:28:34.089Z</time>
      </trkpt>
      <trkpt lat="45.99197" lon="4.95605">
        <ele>287.399993896</ele>
        <time>2015-08-17T13:29:03.086Z</time>
      </trkpt>
      <trkpt lat="45.99214" lon="4.95576">
        <ele>288.899993896</ele>
        <time>2015-08-17T13:29:08.039Z</time>
      </trkpt>
      <trkpt lat="45.99241" lon="4.95518">
        <ele>289.899993896</ele>
        <time>2015-08-17T13:29:17.08Z</time>
      </trkpt>
      <trkpt lat="45.99343" lon="4.95323">
        <ele>291.200012207</ele>
        <time>2015-08-17T13:29:54.088Z</time>
      </trkpt>
      <trkpt lat="45.99357" lon="4.95289">
        <ele>290.600006104</ele>
        <time>2015-08-17T13:30:00.146Z</time>
      </trkpt>
      <trkpt lat="45.99408" lon="4.95197">
        <ele>290.899993896</ele>
        <time>2015-08-17T13:30:18.045Z</time>
      </trkpt>
      <trkpt lat="45.99423" lon="4.9516">
        <ele>290.899993896</ele>
        <time>2015-08-17T13:30:24.045Z</time>
      </trkpt>
      <trkpt lat="45.99471" lon="4.95022">
        <ele>288.700012207</ele>
        <time>2015-08-17T13:30:46.094Z</time>
      </trkpt>
      <trkpt lat="45.99517" lon="4.94905">
        <ele>292.100006104</ele>
        <time>2015-08-17T13:31:04.112Z</time>
      </trkpt>
      <trkpt lat="45.99551" lon="4.94799">
        <ele>295</ele>
        <time>2015-08-17T13:31:19.034Z</time>
      </trkpt>
      <trkpt lat="45.99649" lon="4.94379">
        <ele>288</ele>
        <time>2015-08-17T13:32:14.084Z</time>
      </trkpt>
      <trkpt lat="45.99666" lon="4.94313">
        <ele>287.200012207</ele>
        <time>2015-08-17T13:32:23.033Z</time>
      </trkpt>
      <trkpt lat="45.99691" lon="4.942">
        <ele>287.100006104</ele>
        <time>2015-08-17T13:32:38.086Z</time>
      </trkpt>
      <trkpt lat="45.99721" lon="4.94081">
        <ele>289.799987793</ele>
        <time>2015-08-17T13:32:54.096Z</time>
      </trkpt>
      <trkpt lat="45.99736" lon="4.94016">
        <ele>289.600006104</ele>
        <time>2015-08-17T13:33:03.043Z</time>
      </trkpt>
      <trkpt lat="45.99758" lon="4.93931">
        <ele>288.100006104</ele>
        <time>2015-08-17T13:33:15.044Z</time>
      </trkpt>
      <trkpt lat="45.99766" lon="4.93886">
        <ele>288.299987793</ele>
        <time>2015-08-17T13:33:21.058Z</time>
      </trkpt>
      <trkpt lat="45.99819" lon="4.93671">
        <ele>291.5</ele>
        <time>2015-08-17T13:33:50.089Z</time>
      </trkpt>
      <trkpt lat="45.9983" lon="4.93606">
        <ele>289.899993896</ele>
        <time>2015-08-17T13:33:58.126Z</time>
      </trkpt>
      <trkpt lat="45.99832" lon="4.93416">
        <ele>288.899993896</ele>
        <time>2015-08-17T13:34:21.044Z</time>
      </trkpt>
      <trkpt lat="45.9983" lon="4.93341">
        <ele>288.899993896</ele>
        <time>2015-08-17T13:34:31.041Z</time>
      </trkpt>
      <trkpt lat="45.99833" lon="4.93114">
        <ele>288.799987793</ele>
        <time>2015-08-17T13:34:59.044Z</time>
      </trkpt>
      <trkpt lat="45.9983" lon="4.93028">
        <ele>287.799987793</ele>
        <time>2015-08-17T13:35:10.118Z</time>
      </trkpt>
      <trkpt lat="45.99827" lon="4.92799">
        <ele>290.600006104</ele>
        <time>2015-08-17T13:35:41.044Z</time>
      </trkpt>
      <trkpt lat="45.99829" lon="4.92731">
        <ele>290.899993896</ele>
        <time>2015-08-17T13:35:50.083Z</time>
      </trkpt>
      <trkpt lat="45.9983" lon="4.92442">
        <ele>294.200012207</ele>
        <time>2015-08-17T13:36:26.091Z</time>
      </trkpt>
      <trkpt lat="45.99828" lon="4.92297">
        <ele>294.799987793</ele>
        <time>2015-08-17T13:36:45.042Z</time>
      </trkpt>
      <trkpt lat="45.9983" lon="4.92222">
        <ele>295.5</ele>
        <time>2015-08-17T13:36:54.087Z</time>
      </trkpt>
      <trkpt lat="45.99828" lon="4.91818">
        <ele>296</ele>
        <time>2015-08-17T13:37:47.078Z</time>
      </trkpt>
      <trkpt lat="45.99825" lon="4.91745">
        <ele>293.700012207</ele>
        <time>2015-08-17T13:38:00.033Z</time>
      </trkpt>
      <trkpt lat="45.99824" lon="4.91568">
        <ele>292.299987793</ele>
        <time>2015-08-17T13:38:22.081Z</time>
      </trkpt>
      <trkpt lat="45.99823" lon="4.91544">
        <ele>292</ele>
        <time>2015-08-17T13:38:25.047Z</time>
      </trkpt>
      <trkpt lat="45.99825" lon="4.91417">
        <ele>294.299987793</ele>
        <time>2015-08-17T13:38:42.11Z</time>
      </trkpt>
      <trkpt lat="45.99823" lon="4.91373">
        <ele>294</ele>
        <time>2015-08-17T13:38:48.096Z</time>
      </trkpt>
      <trkpt lat="45.99827" lon="4.91229">
        <ele>292.399993896</ele>
        <time>2015-08-17T13:39:07.05Z</time>
      </trkpt>
      <trkpt lat="45.99831" lon="4.91137">
        <ele>291.299987793</ele>
        <time>2015-08-17T13:39:19.037Z</time>
      </trkpt>
      <trkpt lat="45.99833" lon="4.90933">
        <ele>290.399993896</ele>
        <time>2015-08-17T13:39:45.044Z</time>
      </trkpt>
      <trkpt lat="45.99836" lon="4.90867">
        <ele>291.399993896</ele>
        <time>2015-08-17T13:39:53.044Z</time>
      </trkpt>
      <trkpt lat="45.99836" lon="4.90508">
        <ele>298.299987793</ele>
        <time>2015-08-17T13:40:42.088Z</time>
      </trkpt>
      <trkpt lat="45.99834" lon="4.90441">
        <ele>300.399993896</ele>
        <time>2015-08-17T13:40:52.037Z</time>
      </trkpt>
      <trkpt lat="45.99835" lon="4.9042">
        <ele>300.899993896</ele>
        <time>2015-08-17T13:40:55.085Z</time>
      </trkpt>
      <trkpt lat="45.99834" lon="4.90388">
        <ele>301.399993896</ele>
        <time>2015-08-17T13:41:00.081Z</time>
      </trkpt>
      <trkpt lat="45.99835" lon="4.90369">
        <ele>301.399993896</ele>
        <time>2015-08-17T13:41:03.092Z</time>
      </trkpt>
      <trkpt lat="45.99833" lon="4.90346">
        <ele>301.700012207</ele>
        <time>2015-08-17T13:41:07.055Z</time>
      </trkpt>
      <trkpt lat="45.99834" lon="4.90321">
        <ele>302.200012207</ele>
        <time>2015-08-17T13:41:12.082Z</time>
      </trkpt>
      <trkpt lat="45.99845" lon="4.90236">
        <ele>303.299987793</ele>
        <time>2015-08-17T13:41:31.032Z</time>
      </trkpt>
      <trkpt lat="45.99841" lon="4.90227">
        <ele>303.799987793</ele>
        <time>2015-08-17T13:41:33.085Z</time>
      </trkpt>
      <trkpt lat="45.99831" lon="4.90228">
        <ele>304.399993896</ele>
        <time>2015-08-17T13:41:36.115Z</time>
      </trkpt>
      <trkpt lat="45.99821" lon="4.90235">
        <ele>305.100006104</ele>
        <time>2015-08-17T13:41:39.362Z</time>
      </trkpt>
      <trkpt lat="45.99782" lon="4.90276">
        <ele>307.100006104</ele>
        <time>2015-08-17T13:41:52.046Z</time>
      </trkpt>
      <trkpt lat="45.9974" lon="4.90305">
        <ele>305.100006104</ele>
        <time>2015-08-17T13:42:03.09Z</time>
      </trkpt>
      <trkpt lat="45.99738" lon="4.9031">
        <ele>305</ele>
        <time>2015-08-17T13:42:04.044Z</time>
      </trkpt>
      <trkpt lat="45.99721" lon="4.90324">
        <ele>305</ele>
        <time>2015-08-17T13:42:09.124Z</time>
      </trkpt>
      <trkpt lat="45.99684" lon="4.90334">
        <ele>304.700012207</ele>
        <time>2015-08-17T13:42:18.042Z</time>
      </trkpt>
      <trkpt lat="45.99681" lon="4.90324">
        <ele>304.5</ele>
        <time>2015-08-17T13:42:21.111Z</time>
      </trkpt>
      <trkpt lat="45.9968" lon="4.90306">
        <ele>304</ele>
        <time>2015-08-17T13:42:25.106Z</time>
      </trkpt>
      <trkpt lat="45.99685" lon="4.90271">
        <ele>303.600006104</ele>
        <time>2015-08-17T13:42:32.069Z</time>
      </trkpt>
      <trkpt lat="45.99681" lon="4.90228">
        <ele>303</ele>
        <time>2015-08-17T13:42:39.094Z</time>
      </trkpt>
      <trkpt lat="45.99665" lon="4.90142">
        <ele>302.399993896</ele>
        <time>2015-08-17T13:42:49.097Z</time>
      </trkpt>
      <trkpt lat="45.99663" lon="4.90108">
        <ele>301.899993896</ele>
        <time>2015-08-17T13:42:52.052Z</time>
      </trkpt>
      <trkpt lat="45.99657" lon="4.90086">
        <ele>301.899993896</ele>
        <time>2015-08-17T13:42:54.044Z</time>
      </trkpt>
      <trkpt lat="45.99634" lon="4.90035">
        <ele>301.700012207</ele>
        <time>2015-08-17T13:42:59.041Z</time>
      </trkpt>
      <trkpt lat="45.99624" lon="4.90004">
        <ele>301.399993896</ele>
        <time>2015-08-17T13:43:02.091Z</time>
      </trkpt>
      <trkpt lat="45.99621" lon="4.89981">
        <ele>301.200012207</ele>
        <time>2015-08-17T13:43:04.191Z</time>
      </trkpt>
      <trkpt lat="45.99618" lon="4.89926">
        <ele>300.899993896</ele>
        <time>2015-08-17T13:43:09.051Z</time>
      </trkpt>
      <trkpt lat="45.99613" lon="4.89875">
        <ele>299.700012207</ele>
        <time>2015-08-17T13:43:14.084Z</time>
      </trkpt>
      <trkpt lat="45.99612" lon="4.89771">
        <ele>299</ele>
        <time>2015-08-17T13:43:26.087Z</time>
      </trkpt>
      <trkpt lat="45.99615" lon="4.89739">
        <ele>298.299987793</ele>
        <time>2015-08-17T13:43:30.229Z</time>
      </trkpt>
      <trkpt lat="45.99617" lon="4.89648">
        <ele>296.5</ele>
        <time>2015-08-17T13:43:39.048Z</time>
      </trkpt>
      <trkpt lat="45.99609" lon="4.89585">
        <ele>294.799987793</ele>
        <time>2015-08-17T13:43:46.099Z</time>
      </trkpt>
      <trkpt lat="45.99605" lon="4.89509">
        <ele>293.700012207</ele>
        <time>2015-08-17T13:43:55.042Z</time>
      </trkpt>
      <trkpt lat="45.99593" lon="4.89409">
        <ele>289.700012207</ele>
        <time>2015-08-17T13:44:08.086Z</time>
      </trkpt>
      <trkpt lat="45.99581" lon="4.89251">
        <ele>286</ele>
        <time>2015-08-17T13:44:27.047Z</time>
      </trkpt>
      <trkpt lat="45.99577" lon="4.89143">
        <ele>286.299987793</ele>
        <time>2015-08-17T13:44:40.085Z</time>
      </trkpt>
      <trkpt lat="45.99589" lon="4.89014">
        <ele>285.799987793</ele>
        <time>2015-08-17T13:44:56.093Z</time>
      </trkpt>
      <trkpt lat="45.99587" lon="4.88937">
        <ele>284.100006104</ele>
        <time>2015-08-17T13:45:05.044Z</time>
      </trkpt>
      <trkpt lat="45.9958" lon="4.88864">
        <ele>282.700012207</ele>
        <time>2015-08-17T13:45:13.035Z</time>
      </trkpt>
      <trkpt lat="45.99559" lon="4.88692">
        <ele>281.200012207</ele>
        <time>2015-08-17T13:45:32.083Z</time>
      </trkpt>
      <trkpt lat="45.99552" lon="4.88597">
        <ele>280.100006104</ele>
        <time>2015-08-17T13:45:43.042Z</time>
      </trkpt>
      <trkpt lat="45.9954" lon="4.88554">
        <ele>280.100006104</ele>
        <time>2015-08-17T13:45:48.082Z</time>
      </trkpt>
      <trkpt lat="45.99481" lon="4.88439">
        <ele>282.299987793</ele>
        <time>2015-08-17T13:46:04.08Z</time>
      </trkpt>
      <trkpt lat="45.99443" lon="4.88399">
        <ele>283.600006104</ele>
        <time>2015-08-17T13:46:12.099Z</time>
      </trkpt>
      <trkpt lat="45.99362" lon="4.88217">
        <ele>285</ele>
        <time>2015-08-17T13:46:35.033Z</time>
      </trkpt>
      <trkpt lat="45.99349" lon="4.88204">
        <ele>284.700012207</ele>
        <time>2015-08-17T13:46:38.11Z</time>
      </trkpt>
      <trkpt lat="45.99323" lon="4.8817">
        <ele>283.700012207</ele>
        <time>2015-08-17T13:46:44.082Z</time>
      </trkpt>
      <trkpt lat="45.99271" lon="4.88132">
        <ele>280.299987793</ele>
        <time>2015-08-17T13:46:52.08Z</time>
      </trkpt>
      <trkpt lat="45.99187" lon="4.88061">
        <ele>274.799987793</ele>
        <time>2015-08-17T13:47:06.117Z</time>
      </trkpt>
      <trkpt lat="45.99131" lon="4.88026">
        <ele>272.799987793</ele>
        <time>2015-08-17T13:47:14.083Z</time>
      </trkpt>
      <trkpt lat="45.99081" lon="4.87999">
        <ele>269.600006104</ele>
        <time>2015-08-17T13:47:21.04Z</time>
      </trkpt>
      <trkpt lat="45.98929" lon="4.87906">
        <ele>266.600006104</ele>
        <time>2015-08-17T13:47:43.043Z</time>
      </trkpt>
      <trkpt lat="45.98889" lon="4.87863">
        <ele>264.899993896</ele>
        <time>2015-08-17T13:47:49.043Z</time>
      </trkpt>
      <trkpt lat="45.9888" lon="4.87845">
        <ele>263.799987793</ele>
        <time>2015-08-17T13:47:51.043Z</time>
      </trkpt>
      <trkpt lat="45.98857" lon="4.87791">
        <ele>260.299987793</ele>
        <time>2015-08-17T13:47:57.051Z</time>
      </trkpt>
      <trkpt lat="45.98839" lon="4.87724">
        <ele>259.899993896</ele>
        <time>2015-08-17T13:48:05.032Z</time>
      </trkpt>
      <trkpt lat="45.9881" lon="4.87591">
        <ele>262.299987793</ele>
        <time>2015-08-17T13:48:22.113Z</time>
      </trkpt>
      <trkpt lat="45.98797" lon="4.87568">
        <ele>261.700012207</ele>
        <time>2015-08-17T13:48:26.098Z</time>
      </trkpt>
      <trkpt lat="45.98774" lon="4.87544">
        <ele>261.799987793</ele>
        <time>2015-08-17T13:48:32.048Z</time>
      </trkpt>
      <trkpt lat="45.98715" lon="4.87546">
        <ele>262.200012207</ele>
        <time>2015-08-17T13:48:43.043Z</time>
      </trkpt>
      <trkpt lat="45.98701" lon="4.87544">
        <ele>262.700012207</ele>
        <time>2015-08-17T13:48:45.042Z</time>
      </trkpt>
      <trkpt lat="45.98691" lon="4.87537">
        <ele>263.200012207</ele>
        <time>2015-08-17T13:48:47.057Z</time>
      </trkpt>
      <trkpt lat="45.98684" lon="4.87528">
        <ele>264</ele>
        <time>2015-08-17T13:48:51.035Z</time>
      </trkpt>
      <trkpt lat="45.98676" lon="4.87501">
        <ele>264.399993896</ele>
        <time>2015-08-17T13:48:55.09Z</time>
      </trkpt>
      <trkpt lat="45.98637" lon="4.87401">
        <ele>271.899993896</ele>
        <time>2015-08-17T13:49:11.044Z</time>
      </trkpt>
      <trkpt lat="45.9863" lon="4.87379">
        <ele>272.899993896</ele>
        <time>2015-08-17T13:49:15.081Z</time>
      </trkpt>
      <trkpt lat="45.98615" lon="4.87346">
        <ele>270.399993896</ele>
        <time>2015-08-17T13:49:21.048Z</time>
      </trkpt>
      <trkpt lat="45.98603" lon="4.87288">
        <ele>269.700012207</ele>
        <time>2015-08-17T13:49:35.046Z</time>
      </trkpt>
      <trkpt lat="45.98602" lon="4.8726">
        <ele>269.700012207</ele>
        <time>2015-08-17T13:49:43.053Z</time>
      </trkpt>
      <trkpt lat="45.98613" lon="4.87125">
        <ele>269.5</ele>
        <time>2015-08-17T13:50:09.082Z</time>
      </trkpt>
      <trkpt lat="45.9861" lon="4.87062">
        <ele>269.5</ele>
        <time>2015-08-17T13:50:18.079Z</time>
      </trkpt>
      <trkpt lat="45.98604" lon="4.87035">
        <ele>269.799987793</ele>
        <time>2015-08-17T13:50:22.096Z</time>
      </trkpt>
      <trkpt lat="45.98603" lon="4.86924">
        <ele>271.399993896</ele>
        <time>2015-08-17T13:50:39.051Z</time>
      </trkpt>
      <trkpt lat="45.98611" lon="4.86873">
        <ele>269.700012207</ele>
        <time>2015-08-17T13:50:43.083Z</time>
      </trkpt>
      <trkpt lat="45.98611" lon="4.86843">
        <ele>269.600006104</ele>
        <time>2015-08-17T13:50:47.106Z</time>
      </trkpt>
      <trkpt lat="45.98596" lon="4.86796">
        <ele>275.899993896</ele>
        <time>2015-08-17T13:50:53.087Z</time>
      </trkpt>
      <trkpt lat="45.98591" lon="4.86772">
        <ele>277.799987793</ele>
        <time>2015-08-17T13:50:57.064Z</time>
      </trkpt>
      <trkpt lat="45.98581" lon="4.86679">
        <ele>277.899993896</ele>
        <time>2015-08-17T13:51:12.092Z</time>
      </trkpt>
      <trkpt lat="45.98569" lon="4.86611">
        <ele>278.200012207</ele>
        <time>2015-08-17T13:51:23.042Z</time>
      </trkpt>
      <trkpt lat="45.98558" lon="4.86572">
        <ele>278.399993896</ele>
        <time>2015-08-17T13:51:29.043Z</time>
      </trkpt>
      <trkpt lat="45.98542" lon="4.86534">
        <ele>277.299987793</ele>
        <time>2015-08-17T13:51:35.043Z</time>
      </trkpt>
      <trkpt lat="45.98519" lon="4.86489">
        <ele>279.899993896</ele>
        <time>2015-08-17T13:51:43.091Z</time>
      </trkpt>
      <trkpt lat="45.98489" lon="4.86414">
        <ele>282.899993896</ele>
        <time>2015-08-17T13:51:57.063Z</time>
      </trkpt>
      <trkpt lat="45.98481" lon="4.86388">
        <ele>283.100006104</ele>
        <time>2015-08-17T13:52:02.083Z</time>
      </trkpt>
      <trkpt lat="45.98474" lon="4.86379">
        <ele>283</ele>
        <time>2015-08-17T13:52:04.126Z</time>
      </trkpt>
      <trkpt lat="45.98472" lon="4.86361">
        <ele>283.299987793</ele>
        <time>2015-08-17T13:52:06.089Z</time>
      </trkpt>
      <trkpt lat="45.98462" lon="4.86336">
        <ele>283.299987793</ele>
        <time>2015-08-17T13:52:10.1Z</time>
      </trkpt>
      <trkpt lat="45.98432" lon="4.86192">
        <ele>286</ele>
        <time>2015-08-17T13:52:36.078Z</time>
      </trkpt>
      <trkpt lat="45.98426" lon="4.8615">
        <ele>286.700012207</ele>
        <time>2015-08-17T13:52:43.043Z</time>
      </trkpt>
      <trkpt lat="45.98401" lon="4.86046">
        <ele>281.399993896</ele>
        <time>2015-08-17T13:52:56.049Z</time>
      </trkpt>
      <trkpt lat="45.98367" lon="4.85951">
        <ele>279.600006104</ele>
        <time>2015-08-17T13:53:07.107Z</time>
      </trkpt>
      <trkpt lat="45.9833" lon="4.85828">
        <ele>278.899993896</ele>
        <time>2015-08-17T13:53:24.039Z</time>
      </trkpt>
      <trkpt lat="45.98285" lon="4.85721">
        <ele>279.799987793</ele>
        <time>2015-08-17T13:53:39.084Z</time>
      </trkpt>
      <trkpt lat="45.98258" lon="4.85664">
        <ele>278.899993896</ele>
        <time>2015-08-17T13:53:47.117Z</time>
      </trkpt>
      <trkpt lat="45.98145" lon="4.85402">
        <ele>277.100006104</ele>
        <time>2015-08-17T13:54:24.041Z</time>
      </trkpt>
      <trkpt lat="45.98131" lon="4.85362">
        <ele>277.5</ele>
        <time>2015-08-17T13:54:30.045Z</time>
      </trkpt>
      <trkpt lat="45.98095" lon="4.85279">
        <ele>277</ele>
        <time>2015-08-17T13:54:43.088Z</time>
      </trkpt>
      <trkpt lat="45.98062" lon="4.85223">
        <ele>278.299987793</ele>
        <time>2015-08-17T13:54:55.045Z</time>
      </trkpt>
      <trkpt lat="45.9806" lon="4.85213">
        <ele>279.100006104</ele>
        <time>2015-08-17T13:54:58.241Z</time>
      </trkpt>
      <trkpt lat="45.98047" lon="4.85178">
        <ele>279.399993896</ele>
        <time>2015-08-17T13:55:05.084Z</time>
      </trkpt>
      <trkpt lat="45.98029" lon="4.85111">
        <ele>281</ele>
        <time>2015-08-17T13:55:14.038Z</time>
      </trkpt>
      <trkpt lat="45.98023" lon="4.85071">
        <ele>279.200012207</ele>
        <time>2015-08-17T13:55:19.085Z</time>
      </trkpt>
      <trkpt lat="45.98022" lon="4.85021">
        <ele>278.5</ele>
        <time>2015-08-17T13:55:25.082Z</time>
      </trkpt>
      <trkpt lat="45.98006" lon="4.84861">
        <ele>277.799987793</ele>
        <time>2015-08-17T13:55:45.089Z</time>
      </trkpt>
      <trkpt lat="45.98009" lon="4.84792">
        <ele>279.299987793</ele>
        <time>2015-08-17T13:55:54.03Z</time>
      </trkpt>
      <trkpt lat="45.97995" lon="4.84629">
        <ele>283.299987793</ele>
        <time>2015-08-17T13:56:16.043Z</time>
      </trkpt>
      <trkpt lat="45.97968" lon="4.84493">
        <ele>286.5</ele>
        <time>2015-08-17T13:56:34.042Z</time>
      </trkpt>
      <trkpt lat="45.97948" lon="4.84368">
        <ele>282.399993896</ele>
        <time>2015-08-17T13:56:52.1Z</time>
      </trkpt>
      <trkpt lat="45.97929" lon="4.84288">
        <ele>280.200012207</ele>
        <time>2015-08-17T13:57:03.044Z</time>
      </trkpt>
      <trkpt lat="45.97931" lon="4.84276">
        <ele>279.5</ele>
        <time>2015-08-17T13:57:05.08Z</time>
      </trkpt>
      <trkpt lat="45.97937" lon="4.84262">
        <ele>276.100006104</ele>
        <time>2015-08-17T13:57:08.084Z</time>
      </trkpt>
      <trkpt lat="45.98012" lon="4.84201">
        <ele>271.399993896</ele>
        <time>2015-08-17T13:57:27.049Z</time>
      </trkpt>
      <trkpt lat="45.98051" lon="4.84165">
        <ele>271.600006104</ele>
        <time>2015-08-17T13:57:36.096Z</time>
      </trkpt>
      <trkpt lat="45.98078" lon="4.84132">
        <ele>267.799987793</ele>
        <time>2015-08-17T13:57:43.044Z</time>
      </trkpt>
      <trkpt lat="45.9813" lon="4.84084">
        <ele>268.299987793</ele>
        <time>2015-08-17T13:57:55.084Z</time>
      </trkpt>
      <trkpt lat="45.98156" lon="4.84047">
        <ele>268.700012207</ele>
        <time>2015-08-17T13:58:02.044Z</time>
      </trkpt>
      <trkpt lat="45.98195" lon="4.83949">
        <ele>265.899993896</ele>
        <time>2015-08-17T13:58:15.085Z</time>
      </trkpt>
      <trkpt lat="45.98273" lon="4.83725">
        <ele>269.399993896</ele>
        <time>2015-08-17T13:58:46.043Z</time>
      </trkpt>
      <trkpt lat="45.98309" lon="4.83642">
        <ele>272.700012207</ele>
        <time>2015-08-17T13:58:59.084Z</time>
      </trkpt>
      <trkpt lat="45.98345" lon="4.8358">
        <ele>271</ele>
        <time>2015-08-17T13:59:10.043Z</time>
      </trkpt>
      <trkpt lat="45.98368" lon="4.83556">
        <ele>270.899993896</ele>
        <time>2015-08-17T13:59:16.092Z</time>
      </trkpt>
      <trkpt lat="45.98456" lon="4.83437">
        <ele>271.700012207</ele>
        <time>2015-08-17T13:59:38.083Z</time>
      </trkpt>
      <trkpt lat="45.98477" lon="4.83405">
        <ele>269.799987793</ele>
        <time>2015-08-17T13:59:43.041Z</time>
      </trkpt>
      <trkpt lat="45.98492" lon="4.83387">
        <ele>270.299987793</ele>
        <time>2015-08-17T13:59:47.043Z</time>
      </trkpt>
      <trkpt lat="45.98513" lon="4.83355">
        <ele>270.200012207</ele>
        <time>2015-08-17T13:59:53.051Z</time>
      </trkpt>
      <trkpt lat="45.9857" lon="4.83289">
        <ele>274.399993896</ele>
        <time>2015-08-17T14:00:08.037Z</time>
      </trkpt>
      <trkpt lat="45.98641" lon="4.83196">
        <ele>275</ele>
        <time>2015-08-17T14:00:27.075Z</time>
      </trkpt>
      <trkpt lat="45.98709" lon="4.8314">
        <ele>274.100006104</ele>
        <time>2015-08-17T14:00:41.114Z</time>
      </trkpt>
      <trkpt lat="45.98735" lon="4.83115">
        <ele>273.5</ele>
        <time>2015-08-17T14:00:47.079Z</time>
      </trkpt>
      <trkpt lat="45.98904" lon="4.82981">
        <ele>265.299987793</ele>
        <time>2015-08-17T14:01:16.04Z</time>
      </trkpt>
      <trkpt lat="45.98918" lon="4.82965">
        <ele>264.600006104</ele>
        <time>2015-08-17T14:01:18.042Z</time>
      </trkpt>
      <trkpt lat="45.99043" lon="4.82671">
        <ele>249.399993896</ele>
        <time>2015-08-17T14:01:42.093Z</time>
      </trkpt>
      <trkpt lat="45.99075" lon="4.82602">
        <ele>244.699996948</ele>
        <time>2015-08-17T14:01:49.044Z</time>
      </trkpt>
      <trkpt lat="45.9908" lon="4.82583">
        <ele>244.100006104</ele>
        <time>2015-08-17T14:01:52.043Z</time>
      </trkpt>
      <trkpt lat="45.99076" lon="4.82571">
        <ele>243.399993896</ele>
        <time>2015-08-17T14:01:54.102Z</time>
      </trkpt>
      <trkpt lat="45.99073" lon="4.82567">
        <ele>242.899993896</ele>
        <time>2015-08-17T14:01:55.036Z</time>
      </trkpt>
      <trkpt lat="45.99053" lon="4.82562">
        <ele>241.399993896</ele>
        <time>2015-08-17T14:01:59.039Z</time>
      </trkpt>
      <trkpt lat="45.99024" lon="4.82533">
        <ele>239.699996948</ele>
        <time>2015-08-17T14:02:07.045Z</time>
      </trkpt>
      <trkpt lat="45.9901" lon="4.82506">
        <ele>239.899993896</ele>
        <time>2015-08-17T14:02:12.132Z</time>
      </trkpt>
      <trkpt lat="45.98996" lon="4.82488">
        <ele>239.199996948</ele>
        <time>2015-08-17T14:02:18.087Z</time>
      </trkpt>
      <trkpt lat="45.98993" lon="4.8249">
        <ele>238.399993896</ele>
        <time>2015-08-17T14:06:30.043Z</time>
      </trkpt>
      <trkpt lat="45.98994" lon="4.82479">
        <ele>238.399993896</ele>
        <time>2015-08-17T14:06:36.079Z</time>
      </trkpt>
      <trkpt lat="45.9898" lon="4.82431">
        <ele>238.199996948</ele>
        <time>2015-08-17T14:09:29.117Z</time>
      </trkpt>
      <trkpt lat="45.98982" lon="4.82409">
        <ele>238.100006104</ele>
        <time>2015-08-17T14:09:45.077Z</time>
      </trkpt>
      <trkpt lat="45.98976" lon="4.82395">
        <ele>238</ele>
        <time>2015-08-17T14:09:50.032Z</time>
      </trkpt>
      <trkpt lat="45.98975" lon="4.82382">
        <ele>237.899993896</ele>
        <time>2015-08-17T14:09:52.062Z</time>
      </trkpt>
      <trkpt lat="45.98967" lon="4.82358">
        <ele>237.800003052</ele>
        <time>2015-08-17T14:09:57.081Z</time>
      </trkpt>
      <trkpt lat="45.9896" lon="4.82317">
        <ele>237.800003052</ele>
        <time>2015-08-17T14:10:03.109Z</time>
      </trkpt>
      <trkpt lat="45.98956" lon="4.82311">
        <ele>237.800003052</ele>
        <time>2015-08-17T14:10:04.027Z</time>
      </trkpt>
      <trkpt lat="45.9894" lon="4.82259">
        <ele>237.800003052</ele>
        <time>2015-08-17T14:10:12.039Z</time>
      </trkpt>
      <trkpt lat="45.98931" lon="4.82212">
        <ele>237.899993896</ele>
        <time>2015-08-17T14:10:17.141Z</time>
      </trkpt>
      <trkpt lat="45.9891" lon="4.82152">
        <ele>237.899993896</ele>
        <time>2015-08-17T14:10:23.044Z</time>
      </trkpt>
      <trkpt lat="45.98906" lon="4.82137">
        <ele>238</ele>
        <time>2015-08-17T14:10:24.048Z</time>
      </trkpt>
      <trkpt lat="45.98905" lon="4.82109">
        <ele>237.899993896</ele>
        <time>2015-08-17T14:10:27.081Z</time>
      </trkpt>
      <trkpt lat="45.98898" lon="4.82073">
        <ele>237.800003052</ele>
        <time>2015-08-17T14:10:31.156Z</time>
      </trkpt>
      <trkpt lat="45.98891" lon="4.82052">
        <ele>237.800003052</ele>
        <time>2015-08-17T14:10:33.167Z</time>
      </trkpt>
      <trkpt lat="45.98877" lon="4.81986">
        <ele>237.699996948</ele>
        <time>2015-08-17T14:10:40.06Z</time>
      </trkpt>
      <trkpt lat="45.98856" lon="4.81924">
        <ele>237.600006104</ele>
        <time>2015-08-17T14:10:48.081Z</time>
      </trkpt>
      <trkpt lat="45.98843" lon="4.81871">
        <ele>237.5</ele>
        <time>2015-08-17T14:10:55.077Z</time>
      </trkpt>
      <trkpt lat="45.98843" lon="4.81855">
        <ele>237.399993896</ele>
        <time>2015-08-17T14:10:57.161Z</time>
      </trkpt>
      <trkpt lat="45.98825" lon="4.81821">
        <ele>237.399993896</ele>
        <time>2015-08-17T14:11:01.04Z</time>
      </trkpt>
      <trkpt lat="45.9881" lon="4.81782">
        <ele>237.399993896</ele>
        <time>2015-08-17T14:11:04.078Z</time>
      </trkpt>
      <trkpt lat="45.988" lon="4.81766">
        <ele>237.300003052</ele>
        <time>2015-08-17T14:11:06.08Z</time>
      </trkpt>
      <trkpt lat="45.98773" lon="4.81735">
        <ele>237.399993896</ele>
        <time>2015-08-17T14:11:10.044Z</time>
      </trkpt>
      <trkpt lat="45.98732" lon="4.81705">
        <ele>237.300003052</ele>
        <time>2015-08-17T14:11:15.119Z</time>
      </trkpt>
      <trkpt lat="45.98713" lon="4.81698">
        <ele>237.100006104</ele>
        <time>2015-08-17T14:11:17.086Z</time>
      </trkpt>
      <trkpt lat="45.98693" lon="4.81701">
        <ele>237</ele>
        <time>2015-08-17T14:11:20.181Z</time>
      </trkpt>
      <trkpt lat="45.98668" lon="4.81698">
        <ele>237.100006104</ele>
        <time>2015-08-17T14:11:23.082Z</time>
      </trkpt>
      <trkpt lat="45.9864" lon="4.81701">
        <ele>237.100006104</ele>
        <time>2015-08-17T14:11:27.085Z</time>
      </trkpt>
      <trkpt lat="45.98619" lon="4.81715">
        <ele>237.100006104</ele>
        <time>2015-08-17T14:11:30.043Z</time>
      </trkpt>
      <trkpt lat="45.98598" lon="4.81721">
        <ele>237.100006104</ele>
        <time>2015-08-17T14:11:33.086Z</time>
      </trkpt>
      <trkpt lat="45.98577" lon="4.81746">
        <ele>237</ele>
        <time>2015-08-17T14:11:37.079Z</time>
      </trkpt>
      <trkpt lat="45.98567" lon="4.8175">
        <ele>237</ele>
        <time>2015-08-17T14:11:39.09Z</time>
      </trkpt>
      <trkpt lat="45.98544" lon="4.81747">
        <ele>236.899993896</ele>
        <time>2015-08-17T14:11:43.086Z</time>
      </trkpt>
      <trkpt lat="45.98535" lon="4.81762">
        <ele>236.899993896</ele>
        <time>2015-08-17T14:11:45.136Z</time>
      </trkpt>
      <trkpt lat="45.98526" lon="4.81767">
        <ele>236.899993896</ele>
        <time>2015-08-17T14:11:47.09Z</time>
      </trkpt>
      <trkpt lat="45.98515" lon="4.81762">
        <ele>237</ele>
        <time>2015-08-17T14:11:49.085Z</time>
      </trkpt>
      <trkpt lat="45.98464" lon="4.81726">
        <ele>237.300003052</ele>
        <time>2015-08-17T14:12:02.091Z</time>
      </trkpt>
      <trkpt lat="45.98447" lon="4.81699">
        <ele>237.600006104</ele>
        <time>2015-08-17T14:12:08.095Z</time>
      </trkpt>
      <trkpt lat="45.98418" lon="4.81674">
        <ele>237.5</ele>
        <time>2015-08-17T14:12:17.041Z</time>
      </trkpt>
      <trkpt lat="45.98377" lon="4.8166">
        <ele>237.399993896</ele>
        <time>2015-08-17T14:12:28.075Z</time>
      </trkpt>
      <trkpt lat="45.98344" lon="4.81658">
        <ele>237.300003052</ele>
        <time>2015-08-17T14:12:35.086Z</time>
      </trkpt>
      <trkpt lat="45.98292" lon="4.81621">
        <ele>237.399993896</ele>
        <time>2015-08-17T14:12:47.04Z</time>
      </trkpt>
      <trkpt lat="45.98279" lon="4.81602">
        <ele>237.399993896</ele>
        <time>2015-08-17T14:12:51.039Z</time>
      </trkpt>
      <trkpt lat="45.98251" lon="4.81547">
        <ele>237.5</ele>
        <time>2015-08-17T14:13:00.084Z</time>
      </trkpt>
      <trkpt lat="45.98248" lon="4.81534">
        <ele>237.600006104</ele>
        <time>2015-08-17T14:13:02.088Z</time>
      </trkpt>
      <trkpt lat="45.98238" lon="4.81522">
        <ele>237.600006104</ele>
        <time>2015-08-17T14:13:04.129Z</time>
      </trkpt>
      <trkpt lat="45.98238" lon="4.81515">
        <ele>237.600006104</ele>
        <time>2015-08-17T14:13:05.026Z</time>
      </trkpt>
      <trkpt lat="45.98225" lon="4.8149">
        <ele>237.699996948</ele>
        <time>2015-08-17T14:13:10.044Z</time>
      </trkpt>
      <trkpt lat="45.98226" lon="4.81475">
        <ele>237.699996948</ele>
        <time>2015-08-17T14:13:13.04Z</time>
      </trkpt>
      <trkpt lat="45.98225" lon="4.81458">
        <ele>237.699996948</ele>
        <time>2015-08-17T14:13:16.04Z</time>
      </trkpt>
      <trkpt lat="45.98217" lon="4.81434">
        <ele>237.699996948</ele>
        <time>2015-08-17T14:13:20.061Z</time>
      </trkpt>
      <trkpt lat="45.98207" lon="4.81384">
        <ele>238</ele>
        <time>2015-08-17T14:13:28.04Z</time>
      </trkpt>
      <trkpt lat="45.98192" lon="4.81339">
        <ele>238.100006104</ele>
        <time>2015-08-17T14:13:35.025Z</time>
      </trkpt>
      <trkpt lat="45.98191" lon="4.81321">
        <ele>238.199996948</ele>
        <time>2015-08-17T14:13:37.041Z</time>
      </trkpt>
      <trkpt lat="45.98177" lon="4.81281">
        <ele>238.199996948</ele>
        <time>2015-08-17T14:13:42.075Z</time>
      </trkpt>
      <trkpt lat="45.98165" lon="4.81228">
        <ele>238.199996948</ele>
        <time>2015-08-17T14:13:49.038Z</time>
      </trkpt>
      <trkpt lat="45.98164" lon="4.81194">
        <ele>238.300003052</ele>
        <time>2015-08-17T14:13:53.038Z</time>
      </trkpt>
      <trkpt lat="45.98155" lon="4.81155">
        <ele>238.399993896</ele>
        <time>2015-08-17T14:13:58.105Z</time>
      </trkpt>
      <trkpt lat="45.98131" lon="4.8109">
        <ele>238.300003052</ele>
        <time>2015-08-17T14:14:06.078Z</time>
      </trkpt>
      <trkpt lat="45.98102" lon="4.81021">
        <ele>237.899993896</ele>
        <time>2015-08-17T14:14:15.024Z</time>
      </trkpt>
      <trkpt lat="45.98093" lon="4.80993">
        <ele>237.699996948</ele>
        <time>2015-08-17T14:14:19.038Z</time>
      </trkpt>
      <trkpt lat="45.98073" lon="4.80899">
        <ele>237.100006104</ele>
        <time>2015-08-17T14:14:30.087Z</time>
      </trkpt>
      <trkpt lat="45.98065" lon="4.80876">
        <ele>236.899993896</ele>
        <time>2015-08-17T14:14:32.078Z</time>
      </trkpt>
      <trkpt lat="45.98061" lon="4.80851">
        <ele>236.800003052</ele>
        <time>2015-08-17T14:14:34.043Z</time>
      </trkpt>
      <trkpt lat="45.98048" lon="4.80813">
        <ele>236.5</ele>
        <time>2015-08-17T14:14:37.046Z</time>
      </trkpt>
      <trkpt lat="45.98027" lon="4.80714">
        <ele>236.100006104</ele>
        <time>2015-08-17T14:14:47.041Z</time>
      </trkpt>
      <trkpt lat="45.98027" lon="4.80708">
        <ele>236</ele>
        <time>2015-08-17T14:14:48.075Z</time>
      </trkpt>
      <trkpt lat="45.98045" lon="4.80688">
        <ele>235.800003052</ele>
        <time>2015-08-17T14:14:52.105Z</time>
      </trkpt>
      <trkpt lat="45.98077" lon="4.80683">
        <ele>235.600006104</ele>
        <time>2015-08-17T14:14:56.091Z</time>
      </trkpt>
      <trkpt lat="45.98083" lon="4.80685">
        <ele>235.5</ele>
        <time>2015-08-17T14:14:57.04Z</time>
      </trkpt>
      <trkpt lat="45.98098" lon="4.80684">
        <ele>235.399993896</ele>
        <time>2015-08-17T14:14:59.04Z</time>
      </trkpt>
      <trkpt lat="45.98121" lon="4.80687">
        <ele>235.5</ele>
        <time>2015-08-17T14:15:02.102Z</time>
      </trkpt>
      <trkpt lat="45.98144" lon="4.80686">
        <ele>235.300003052</ele>
        <time>2015-08-17T14:15:05.025Z</time>
      </trkpt>
      <trkpt lat="45.98174" lon="4.80689">
        <ele>234.800003052</ele>
        <time>2015-08-17T14:15:09.04Z</time>
      </trkpt>
      <trkpt lat="45.98217" lon="4.80679">
        <ele>234.699996948</ele>
        <time>2015-08-17T14:15:15.024Z</time>
      </trkpt>
      <trkpt lat="45.9823" lon="4.80659">
        <ele>234.800003052</ele>
        <time>2015-08-17T14:15:18.093Z</time>
      </trkpt>
      <trkpt lat="45.98255" lon="4.80587">
        <ele>234.600006104</ele>
        <time>2015-08-17T14:15:25.035Z</time>
      </trkpt>
      <trkpt lat="45.98279" lon="4.805">
        <ele>234.100006104</ele>
        <time>2015-08-17T14:15:35.04Z</time>
      </trkpt>
      <trkpt lat="45.98292" lon="4.80441">
        <ele>233.699996948</ele>
        <time>2015-08-17T14:15:43.075Z</time>
      </trkpt>
      <trkpt lat="45.98303" lon="4.80368">
        <ele>233.300003052</ele>
        <time>2015-08-17T14:15:53.084Z</time>
      </trkpt>
      <trkpt lat="45.9833" lon="4.80274">
        <ele>232.800003052</ele>
        <time>2015-08-17T14:16:10.043Z</time>
      </trkpt>
      <trkpt lat="45.98332" lon="4.80242">
        <ele>232.600006104</ele>
        <time>2015-08-17T14:16:16.043Z</time>
      </trkpt>
      <trkpt lat="45.98316" lon="4.80165">
        <ele>232.399993896</ele>
        <time>2015-08-17T14:16:26.044Z</time>
      </trkpt>
      <trkpt lat="45.98308" lon="4.80139">
        <ele>232.399993896</ele>
        <time>2015-08-17T14:16:30.04Z</time>
      </trkpt>
      <trkpt lat="45.98296" lon="4.80118">
        <ele>232.399993896</ele>
        <time>2015-08-17T14:16:33.093Z</time>
      </trkpt>
      <trkpt lat="45.98273" lon="4.80043">
        <ele>232.300003052</ele>
        <time>2015-08-17T14:16:44.086Z</time>
      </trkpt>
      <trkpt lat="45.9826" lon="4.80015">
        <ele>232.300003052</ele>
        <time>2015-08-17T14:16:48.084Z</time>
      </trkpt>
      <trkpt lat="45.98246" lon="4.79974">
        <ele>232.399993896</ele>
        <time>2015-08-17T14:16:54.084Z</time>
      </trkpt>
      <trkpt lat="45.98227" lon="4.79949">
        <ele>232.399993896</ele>
        <time>2015-08-17T14:16:58.101Z</time>
      </trkpt>
      <trkpt lat="45.98225" lon="4.79934">
        <ele>232.399993896</ele>
        <time>2015-08-17T14:17:00.188Z</time>
      </trkpt>
      <trkpt lat="45.98202" lon="4.79872">
        <ele>232.199996948</ele>
        <time>2015-08-17T14:17:09.075Z</time>
      </trkpt>
      <trkpt lat="45.98202" lon="4.7986">
        <ele>232.100006104</ele>
        <time>2015-08-17T14:17:11.097Z</time>
      </trkpt>
      <trkpt lat="45.98197" lon="4.79841">
        <ele>232</ele>
        <time>2015-08-17T14:17:14.092Z</time>
      </trkpt>
      <trkpt lat="45.98179" lon="4.79797">
        <ele>231.600006104</ele>
        <time>2015-08-17T14:17:21.038Z</time>
      </trkpt>
      <trkpt lat="45.98174" lon="4.79744">
        <ele>231.300003052</ele>
        <time>2015-08-17T14:17:30.074Z</time>
      </trkpt>
      <trkpt lat="45.98171" lon="4.79737">
        <ele>231.100006104</ele>
        <time>2015-08-17T14:17:32.082Z</time>
      </trkpt>
      <trkpt lat="45.98148" lon="4.7975">
        <ele>230.699996948</ele>
        <time>2015-08-17T14:17:37.044Z</time>
      </trkpt>
      <trkpt lat="45.98045" lon="4.79764">
        <ele>229.399993896</ele>
        <time>2015-08-17T14:17:52.076Z</time>
      </trkpt>
      <trkpt lat="45.9795" lon="4.79786">
        <ele>227.399993896</ele>
        <time>2015-08-17T14:18:05.063Z</time>
      </trkpt>
      <trkpt lat="45.97893" lon="4.79794">
        <ele>226.399993896</ele>
        <time>2015-08-17T14:18:14.082Z</time>
      </trkpt>
      <trkpt lat="45.97874" lon="4.798">
        <ele>226.100006104</ele>
        <time>2015-08-17T14:18:17.04Z</time>
      </trkpt>
      <trkpt lat="45.97833" lon="4.79804">
        <ele>225.399993896</ele>
        <time>2015-08-17T14:18:24.082Z</time>
      </trkpt>
      <trkpt lat="45.97803" lon="4.79814">
        <ele>225.100006104</ele>
        <time>2015-08-17T14:18:29.038Z</time>
      </trkpt>
      <trkpt lat="45.97759" lon="4.79817">
        <ele>224.5</ele>
        <time>2015-08-17T14:18:36.083Z</time>
      </trkpt>
      <trkpt lat="45.97696" lon="4.7983">
        <ele>223.699996948</ele>
        <time>2015-08-17T14:18:47.04Z</time>
      </trkpt>
      <trkpt lat="45.97643" lon="4.79845">
        <ele>223.100006104</ele>
        <time>2015-08-17T14:18:56.085Z</time>
      </trkpt>
      <trkpt lat="45.97627" lon="4.79855">
        <ele>222.800003052</ele>
        <time>2015-08-17T14:18:59.042Z</time>
      </trkpt>
      <trkpt lat="45.97603" lon="4.79863">
        <ele>222.399993896</ele>
        <time>2015-08-17T14:19:04.087Z</time>
      </trkpt>
      <trkpt lat="45.97533" lon="4.79894">
        <ele>221.300003052</ele>
        <time>2015-08-17T14:19:17.043Z</time>
      </trkpt>
      <trkpt lat="45.97395" lon="4.79904">
        <ele>219.899993896</ele>
        <time>2015-08-17T14:19:32.03Z</time>
      </trkpt>
      <trkpt lat="45.97326" lon="4.79918">
        <ele>219.399993896</ele>
        <time>2015-08-17T14:19:40.043Z</time>
      </trkpt>
      <trkpt lat="45.97272" lon="4.79915">
        <ele>218.699996948</ele>
        <time>2015-08-17T14:19:47.138Z</time>
      </trkpt>
      <trkpt lat="45.97249" lon="4.79899">
        <ele>218.399993896</ele>
        <time>2015-08-17T14:19:51.074Z</time>
      </trkpt>
      <trkpt lat="45.97234" lon="4.79871">
        <ele>218.100006104</ele>
        <time>2015-08-17T14:19:55.078Z</time>
      </trkpt>
      <trkpt lat="45.97233" lon="4.79861">
        <ele>218</ele>
        <time>2015-08-17T14:19:56.045Z</time>
      </trkpt>
      <trkpt lat="45.97245" lon="4.79746">
        <ele>217.199996948</ele>
        <time>2015-08-17T14:20:09.099Z</time>
      </trkpt>
      <trkpt lat="45.97255" lon="4.79687">
        <ele>217</ele>
        <time>2015-08-17T14:20:16.043Z</time>
      </trkpt>
      <trkpt lat="45.9726" lon="4.79625">
        <ele>216.5</ele>
        <time>2015-08-17T14:20:23.083Z</time>
      </trkpt>
      <trkpt lat="45.97258" lon="4.79549">
        <ele>216.100006104</ele>
        <time>2015-08-17T14:20:32.039Z</time>
      </trkpt>
      <trkpt lat="45.97251" lon="4.79518">
        <ele>215.899993896</ele>
        <time>2015-08-17T14:20:36.041Z</time>
      </trkpt>
      <trkpt lat="45.97245" lon="4.79475">
        <ele>215.5</ele>
        <time>2015-08-17T14:20:42.04Z</time>
      </trkpt>
      <trkpt lat="45.97237" lon="4.79447">
        <ele>215.300003052</ele>
        <time>2015-08-17T14:20:46.06Z</time>
      </trkpt>
      <trkpt lat="45.97213" lon="4.79388">
        <ele>214.899993896</ele>
        <time>2015-08-17T14:20:55.073Z</time>
      </trkpt>
      <trkpt lat="45.97207" lon="4.79378">
        <ele>214.899993896</ele>
        <time>2015-08-17T14:20:57.097Z</time>
      </trkpt>
      <trkpt lat="45.97189" lon="4.7936">
        <ele>213.800003052</ele>
        <time>2015-08-17T14:21:34.086Z</time>
      </trkpt>
      <trkpt lat="45.97181" lon="4.7933">
        <ele>213.300003052</ele>
        <time>2015-08-17T14:21:41.084Z</time>
      </trkpt>
      <trkpt lat="45.97175" lon="4.79319">
        <ele>213.300003052</ele>
        <time>2015-08-17T14:21:43.116Z</time>
      </trkpt>
      <trkpt lat="45.97159" lon="4.79267">
        <ele>213</ele>
        <time>2015-08-17T14:21:51.083Z</time>
      </trkpt>
      <trkpt lat="45.97124" lon="4.79172">
        <ele>212.699996948</ele>
        <time>2015-08-17T14:22:04.08Z</time>
      </trkpt>
      <trkpt lat="45.97115" lon="4.7916">
        <ele>212.600006104</ele>
        <time>2015-08-17T14:22:06.043Z</time>
      </trkpt>
      <trkpt lat="45.971" lon="4.7912">
        <ele>212</ele>
        <time>2015-08-17T14:22:13.082Z</time>
      </trkpt>
      <trkpt lat="45.97087" lon="4.79103">
        <ele>211.800003052</ele>
        <time>2015-08-17T14:22:16.13Z</time>
      </trkpt>
      <trkpt lat="45.97084" lon="4.79088">
        <ele>211.699996948</ele>
        <time>2015-08-17T14:22:18.039Z</time>
      </trkpt>
      <trkpt lat="45.97076" lon="4.79024">
        <ele>211.199996948</ele>
        <time>2015-08-17T14:22:27.132Z</time>
      </trkpt>
      <trkpt lat="45.9706" lon="4.78987">
        <ele>210.5</ele>
        <time>2015-08-17T14:22:33.042Z</time>
      </trkpt>
      <trkpt lat="45.97034" lon="4.78943">
        <ele>209.800003052</ele>
        <time>2015-08-17T14:22:40.115Z</time>
      </trkpt>
      <trkpt lat="45.97016" lon="4.78927">
        <ele>209.399993896</ele>
        <time>2015-08-17T14:22:43.042Z</time>
      </trkpt>
      <trkpt lat="45.96926" lon="4.78814">
        <ele>206.600006104</ele>
        <time>2015-08-17T14:23:02.082Z</time>
      </trkpt>
      <trkpt lat="45.96914" lon="4.78794">
        <ele>206.199996948</ele>
        <time>2015-08-17T14:23:05.077Z</time>
      </trkpt>
      <trkpt lat="45.96906" lon="4.78772">
        <ele>205.399993896</ele>
        <time>2015-08-17T14:23:08.089Z</time>
      </trkpt>
      <trkpt lat="45.96893" lon="4.7875">
        <ele>205.199996948</ele>
        <time>2015-08-17T14:23:11.042Z</time>
      </trkpt>
      <trkpt lat="45.96862" lon="4.7868">
        <ele>205</ele>
        <time>2015-08-17T14:23:20.086Z</time>
      </trkpt>
      <trkpt lat="45.96849" lon="4.78662">
        <ele>204.5</ele>
        <time>2015-08-17T14:23:23.025Z</time>
      </trkpt>
      <trkpt lat="45.96818" lon="4.78575">
        <ele>202.600006104</ele>
        <time>2015-08-17T14:23:36.042Z</time>
      </trkpt>
      <trkpt lat="45.96761" lon="4.78492">
        <ele>200.199996948</ele>
        <time>2015-08-17T14:23:49.108Z</time>
      </trkpt>
      <trkpt lat="45.96723" lon="4.78454">
        <ele>199.300003052</ele>
        <time>2015-08-17T14:23:57.127Z</time>
      </trkpt>
      <trkpt lat="45.96691" lon="4.78414">
        <ele>198.5</ele>
        <time>2015-08-17T14:24:06.046Z</time>
      </trkpt>
      <trkpt lat="45.96634" lon="4.78363">
        <ele>198</ele>
        <time>2015-08-17T14:24:17.121Z</time>
      </trkpt>
      <trkpt lat="45.96621" lon="4.78346">
        <ele>198</ele>
        <time>2015-08-17T14:24:20.046Z</time>
      </trkpt>
      <trkpt lat="45.9658" lon="4.78324">
        <ele>197.800003052</ele>
        <time>2015-08-17T14:24:26.046Z</time>
      </trkpt>
      <trkpt lat="45.96537" lon="4.78278">
        <ele>197.100006104</ele>
        <time>2015-08-17T14:24:34.083Z</time>
      </trkpt>
      <trkpt lat="45.96493" lon="4.78214">
        <ele>195.800003052</ele>
        <time>2015-08-17T14:24:44.046Z</time>
      </trkpt>
      <trkpt lat="45.96476" lon="4.78195">
        <ele>195.300003052</ele>
        <time>2015-08-17T14:24:48.036Z</time>
      </trkpt>
      <trkpt lat="45.96461" lon="4.78185">
        <ele>194.899993896</ele>
        <time>2015-08-17T14:24:51.161Z</time>
      </trkpt>
      <trkpt lat="45.96437" lon="4.78157">
        <ele>193.899993896</ele>
        <time>2015-08-17T14:24:56.044Z</time>
      </trkpt>
      <trkpt lat="45.96373" lon="4.78099">
        <ele>191.899993896</ele>
        <time>2015-08-17T14:25:09.085Z</time>
      </trkpt>
      <trkpt lat="45.96355" lon="4.78087">
        <ele>191.399993896</ele>
        <time>2015-08-17T14:25:12.036Z</time>
      </trkpt>
      <trkpt lat="45.96331" lon="4.78062">
        <ele>191</ele>
        <time>2015-08-17T14:25:17.116Z</time>
      </trkpt>
      <trkpt lat="45.96298" lon="4.78018">
        <ele>190.399993896</ele>
        <time>2015-08-17T14:25:24.024Z</time>
      </trkpt>
      <trkpt lat="45.96234" lon="4.7796">
        <ele>189.600006104</ele>
        <time>2015-08-17T14:25:36.041Z</time>
      </trkpt>
      <trkpt lat="45.96225" lon="4.77947">
        <ele>189.399993896</ele>
        <time>2015-08-17T14:25:38.08Z</time>
      </trkpt>
      <trkpt lat="45.96195" lon="4.77888">
        <ele>189</ele>
        <time>2015-08-17T14:25:47.11Z</time>
      </trkpt>
      <trkpt lat="45.96179" lon="4.77871">
        <ele>188.699996948</ele>
        <time>2015-08-17T14:25:50.044Z</time>
      </trkpt>
      <trkpt lat="45.96172" lon="4.77852">
        <ele>188.600006104</ele>
        <time>2015-08-17T14:25:53.082Z</time>
      </trkpt>
      <trkpt lat="45.96117" lon="4.77757">
        <ele>188.600006104</ele>
        <time>2015-08-17T14:26:09.087Z</time>
      </trkpt>
      <trkpt lat="45.961" lon="4.77733">
        <ele>188.899993896</ele>
        <time>2015-08-17T14:26:13.082Z</time>
      </trkpt>
      <trkpt lat="45.96076" lon="4.7768">
        <ele>189.199996948</ele>
        <time>2015-08-17T14:26:21.077Z</time>
      </trkpt>
      <trkpt lat="45.95992" lon="4.77589">
        <ele>188.699996948</ele>
        <time>2015-08-17T14:26:36.076Z</time>
      </trkpt>
      <trkpt lat="45.95975" lon="4.77563">
        <ele>188.800003052</ele>
        <time>2015-08-17T14:26:40.043Z</time>
      </trkpt>
      <trkpt lat="45.95963" lon="4.77521">
        <ele>188.5</ele>
        <time>2015-08-17T14:26:47.075Z</time>
      </trkpt>
      <trkpt lat="45.95945" lon="4.77483">
        <ele>188.199996948</ele>
        <time>2015-08-17T14:26:52.024Z</time>
      </trkpt>
      <trkpt lat="45.95944" lon="4.77473">
        <ele>188.100006104</ele>
        <time>2015-08-17T14:26:53.077Z</time>
      </trkpt>
      <trkpt lat="45.95929" lon="4.77438">
        <ele>187.699996948</ele>
        <time>2015-08-17T14:26:57.113Z</time>
      </trkpt>
      <trkpt lat="45.95919" lon="4.77403">
        <ele>187.5</ele>
        <time>2015-08-17T14:27:01.083Z</time>
      </trkpt>
      <trkpt lat="45.95896" lon="4.77346">
        <ele>187.300003052</ele>
        <time>2015-08-17T14:27:08.04Z</time>
      </trkpt>
      <trkpt lat="45.9588" lon="4.77266">
        <ele>187</ele>
        <time>2015-08-17T14:27:17.142Z</time>
      </trkpt>
      <trkpt lat="45.95866" lon="4.77234">
        <ele>186.899993896</ele>
        <time>2015-08-17T14:27:21.079Z</time>
      </trkpt>
      <trkpt lat="45.95865" lon="4.77226">
        <ele>186.899993896</ele>
        <time>2015-08-17T14:27:22.073Z</time>
      </trkpt>
      <trkpt lat="45.95856" lon="4.772">
        <ele>186.699996948</ele>
        <time>2015-08-17T14:27:25.096Z</time>
      </trkpt>
      <trkpt lat="45.95853" lon="4.77174">
        <ele>186.399993896</ele>
        <time>2015-08-17T14:27:28.04Z</time>
      </trkpt>
      <trkpt lat="45.95829" lon="4.77085">
        <ele>185.699996948</ele>
        <time>2015-08-17T14:27:38.04Z</time>
      </trkpt>
      <trkpt lat="45.95804" lon="4.77024">
        <ele>186</ele>
        <time>2015-08-17T14:27:46.04Z</time>
      </trkpt>
      <trkpt lat="45.958" lon="4.7698">
        <ele>183.899993896</ele>
        <time>2015-08-17T14:27:51.086Z</time>
      </trkpt>
      <trkpt lat="45.95803" lon="4.76927">
        <ele>183.300003052</ele>
        <time>2015-08-17T14:27:57.072Z</time>
      </trkpt>
      <trkpt lat="45.95825" lon="4.76798">
        <ele>181.100006104</ele>
        <time>2015-08-17T14:28:13.074Z</time>
      </trkpt>
      <trkpt lat="45.95825" lon="4.76784">
        <ele>181</ele>
        <time>2015-08-17T14:28:15.085Z</time>
      </trkpt>
      <trkpt lat="45.95823" lon="4.7677">
        <ele>180.899993896</ele>
        <time>2015-08-17T14:28:17.201Z</time>
      </trkpt>
      <trkpt lat="45.95823" lon="4.76744">
        <ele>180.899993896</ele>
        <time>2015-08-17T14:28:20.045Z</time>
      </trkpt>
      <trkpt lat="45.95814" lon="4.76703">
        <ele>180.5</ele>
        <time>2015-08-17T14:28:25.076Z</time>
      </trkpt>
      <trkpt lat="45.95814" lon="4.76678">
        <ele>180.100006104</ele>
        <time>2015-08-17T14:28:28.04Z</time>
      </trkpt>
      <trkpt lat="45.95801" lon="4.76554">
        <ele>178.399993896</ele>
        <time>2015-08-17T14:28:44.041Z</time>
      </trkpt>
      <trkpt lat="45.95793" lon="4.76516">
        <ele>178.5</ele>
        <time>2015-08-17T14:28:49.082Z</time>
      </trkpt>
      <trkpt lat="45.95781" lon="4.7643">
        <ele>179</ele>
        <time>2015-08-17T14:29:00.053Z</time>
      </trkpt>
      <trkpt lat="45.95782" lon="4.76407">
        <ele>179.100006104</ele>
        <time>2015-08-17T14:29:03.095Z</time>
      </trkpt>
      <trkpt lat="45.95777" lon="4.76347">
        <ele>179.600006104</ele>
        <time>2015-08-17T14:29:11.077Z</time>
      </trkpt>
      <trkpt lat="45.95769" lon="4.76298">
        <ele>179.899993896</ele>
        <time>2015-08-17T14:29:17.081Z</time>
      </trkpt>
      <trkpt lat="45.95769" lon="4.76274">
        <ele>180</ele>
        <time>2015-08-17T14:29:20.044Z</time>
      </trkpt>
      <trkpt lat="45.95765" lon="4.76254">
        <ele>179.899993896</ele>
        <time>2015-08-17T14:29:23.075Z</time>
      </trkpt>
      <trkpt lat="45.9576" lon="4.76192">
        <ele>179.800003052</ele>
        <time>2015-08-17T14:29:31.079Z</time>
      </trkpt>
      <trkpt lat="45.95761" lon="4.76125">
        <ele>180.199996948</ele>
        <time>2015-08-17T14:29:40.093Z</time>
      </trkpt>
      <trkpt lat="45.95757" lon="4.76098">
        <ele>180.5</ele>
        <time>2015-08-17T14:29:44.04Z</time>
      </trkpt>
      <trkpt lat="45.95731" lon="4.76032">
        <ele>183.199996948</ele>
        <time>2015-08-17T14:29:54.039Z</time>
      </trkpt>
      <trkpt lat="45.95706" lon="4.75983">
        <ele>184.100006104</ele>
        <time>2015-08-17T14:30:03.036Z</time>
      </trkpt>
      <trkpt lat="45.95693" lon="4.75952">
        <ele>183.600006104</ele>
        <time>2015-08-17T14:30:08.087Z</time>
      </trkpt>
      <trkpt lat="45.95682" lon="4.75934">
        <ele>183.600006104</ele>
        <time>2015-08-17T14:30:11.037Z</time>
      </trkpt>
      <trkpt lat="45.95655" lon="4.75874">
        <ele>180.699996948</ele>
        <time>2015-08-17T14:30:20.087Z</time>
      </trkpt>
      <trkpt lat="45.95625" lon="4.75751">
        <ele>176.699996948</ele>
        <time>2015-08-17T14:30:38.044Z</time>
      </trkpt>
      <trkpt lat="45.95615" lon="4.75697">
        <ele>174.5</ele>
        <time>2015-08-17T14:30:46.04Z</time>
      </trkpt>
      <trkpt lat="45.95612" lon="4.75667">
        <ele>174.300003052</ele>
        <time>2015-08-17T14:30:50.045Z</time>
      </trkpt>
      <trkpt lat="45.95604" lon="4.75618">
        <ele>174.399993896</ele>
        <time>2015-08-17T14:30:57.11Z</time>
      </trkpt>
      <trkpt lat="45.95595" lon="4.7559">
        <ele>175.100006104</ele>
        <time>2015-08-17T14:31:01.083Z</time>
      </trkpt>
      <trkpt lat="45.95582" lon="4.75563">
        <ele>175.800003052</ele>
        <time>2015-08-17T14:31:05.087Z</time>
      </trkpt>
      <trkpt lat="45.95543" lon="4.75505">
        <ele>176.300003052</ele>
        <time>2015-08-17T14:31:15.087Z</time>
      </trkpt>
      <trkpt lat="45.95536" lon="4.75464">
        <ele>176.399993896</ele>
        <time>2015-08-17T14:31:21.083Z</time>
      </trkpt>
      <trkpt lat="45.95515" lon="4.75427">
        <ele>177.5</ele>
        <time>2015-08-17T14:31:27.087Z</time>
      </trkpt>
      <trkpt lat="45.95502" lon="4.75386">
        <ele>178.300003052</ele>
        <time>2015-08-17T14:31:33.093Z</time>
      </trkpt>
      <trkpt lat="45.9545" lon="4.7529">
        <ele>178.199996948</ele>
        <time>2015-08-17T14:31:50.039Z</time>
      </trkpt>
      <trkpt lat="45.95439" lon="4.75262">
        <ele>178.699996948</ele>
        <time>2015-08-17T14:31:55.086Z</time>
      </trkpt>
      <trkpt lat="45.95406" lon="4.75202">
        <ele>178.800003052</ele>
        <time>2015-08-17T14:32:05.085Z</time>
      </trkpt>
      <trkpt lat="45.95354" lon="4.75119">
        <ele>181.399993896</ele>
        <time>2015-08-17T14:32:19.079Z</time>
      </trkpt>
      <trkpt lat="45.95319" lon="4.75072">
        <ele>182.399993896</ele>
        <time>2015-08-17T14:32:28.04Z</time>
      </trkpt>
      <trkpt lat="45.9527" lon="4.74984">
        <ele>185.100006104</ele>
        <time>2015-08-17T14:32:43.086Z</time>
      </trkpt>
      <trkpt lat="45.95189" lon="4.74853">
        <ele>188.199996948</ele>
        <time>2015-08-17T14:33:05.074Z</time>
      </trkpt>
      <trkpt lat="45.95158" lon="4.74797">
        <ele>189.300003052</ele>
        <time>2015-08-17T14:33:14.043Z</time>
      </trkpt>
      <trkpt lat="45.9514" lon="4.74772">
        <ele>189.600006104</ele>
        <time>2015-08-17T14:33:18.039Z</time>
      </trkpt>
      <trkpt lat="45.95117" lon="4.74733">
        <ele>189.5</ele>
        <time>2015-08-17T14:33:24.058Z</time>
      </trkpt>
      <trkpt lat="45.95108" lon="4.7471">
        <ele>188.600006104</ele>
        <time>2015-08-17T14:33:27.196Z</time>
      </trkpt>
      <trkpt lat="45.95051" lon="4.74612">
        <ele>189.199996948</ele>
        <time>2015-08-17T14:33:41.075Z</time>
      </trkpt>
      <trkpt lat="45.95045" lon="4.74606">
        <ele>189.100006104</ele>
        <time>2015-08-17T14:33:42.043Z</time>
      </trkpt>
      <trkpt lat="45.95005" lon="4.74537">
        <ele>190.5</ele>
        <time>2015-08-17T14:33:52.035Z</time>
      </trkpt>
      <trkpt lat="45.94957" lon="4.74447">
        <ele>189.699996948</ele>
        <time>2015-08-17T14:34:04.037Z</time>
      </trkpt>
      <trkpt lat="45.94928" lon="4.74384">
        <ele>188.899993896</ele>
        <time>2015-08-17T14:34:12.036Z</time>
      </trkpt>
      <trkpt lat="45.94919" lon="4.7437">
        <ele>188.699996948</ele>
        <time>2015-08-17T14:34:14.042Z</time>
      </trkpt>
      <trkpt lat="45.94906" lon="4.7434">
        <ele>188.600006104</ele>
        <time>2015-08-17T14:34:18.04Z</time>
      </trkpt>
      <trkpt lat="45.94871" lon="4.74283">
        <ele>188</ele>
        <time>2015-08-17T14:34:26.04Z</time>
      </trkpt>
      <trkpt lat="45.94846" lon="4.74234">
        <ele>187.699996948</ele>
        <time>2015-08-17T14:34:33.083Z</time>
      </trkpt>
      <trkpt lat="45.94815" lon="4.74192">
        <ele>188.100006104</ele>
        <time>2015-08-17T14:34:40.043Z</time>
      </trkpt>
      <trkpt lat="45.94745" lon="4.74072">
        <ele>185.800003052</ele>
        <time>2015-08-17T14:34:59.076Z</time>
      </trkpt>
      <trkpt lat="45.9471" lon="4.7402">
        <ele>185.5</ele>
        <time>2015-08-17T14:35:08.09Z</time>
      </trkpt>
      <trkpt lat="45.94704" lon="4.74006">
        <ele>185.5</ele>
        <time>2015-08-17T14:35:10.061Z</time>
      </trkpt>
      <trkpt lat="45.94682" lon="4.73974">
        <ele>185.399993896</ele>
        <time>2015-08-17T14:35:15.088Z</time>
      </trkpt>
      <trkpt lat="45.94671" lon="4.73962">
        <ele>185.399993896</ele>
        <time>2015-08-17T14:35:17.107Z</time>
      </trkpt>
      <trkpt lat="45.9464" lon="4.73918">
        <ele>185</ele>
        <time>2015-08-17T14:35:24.04Z</time>
      </trkpt>
      <trkpt lat="45.94597" lon="4.73866">
        <ele>184.699996948</ele>
        <time>2015-08-17T14:35:33.141Z</time>
      </trkpt>
      <trkpt lat="45.94529" lon="4.73805">
        <ele>184.5</ele>
        <time>2015-08-17T14:35:45.1Z</time>
      </trkpt>
      <trkpt lat="45.94507" lon="4.7378">
        <ele>184.399993896</ele>
        <time>2015-08-17T14:35:50.04Z</time>
      </trkpt>
      <trkpt lat="45.94493" lon="4.7375">
        <ele>184.100006104</ele>
        <time>2015-08-17T14:35:54.044Z</time>
      </trkpt>
      <trkpt lat="45.94488" lon="4.73723">
        <ele>183.800003052</ele>
        <time>2015-08-17T14:35:57.123Z</time>
      </trkpt>
      <trkpt lat="45.94496" lon="4.73676">
        <ele>183.800003052</ele>
        <time>2015-08-17T14:36:02.044Z</time>
      </trkpt>
      <trkpt lat="45.94501" lon="4.73657">
        <ele>183.899993896</ele>
        <time>2015-08-17T14:36:04.038Z</time>
      </trkpt>
      <trkpt lat="45.94506" lon="4.73621">
        <ele>183.800003052</ele>
        <time>2015-08-17T14:36:08.044Z</time>
      </trkpt>
      <trkpt lat="45.94509" lon="4.73566">
        <ele>183.399993896</ele>
        <time>2015-08-17T14:36:14.08Z</time>
      </trkpt>
      <trkpt lat="45.94509" lon="4.735">
        <ele>183.699996948</ele>
        <time>2015-08-17T14:36:21.076Z</time>
      </trkpt>
      <trkpt lat="45.94502" lon="4.73405">
        <ele>183.699996948</ele>
        <time>2015-08-17T14:36:30.037Z</time>
      </trkpt>
      <trkpt lat="45.94504" lon="4.73383">
        <ele>183.300003052</ele>
        <time>2015-08-17T14:36:32.044Z</time>
      </trkpt>
      <trkpt lat="45.94492" lon="4.73271">
        <ele>183.199996948</ele>
        <time>2015-08-17T14:36:43.077Z</time>
      </trkpt>
      <trkpt lat="45.94475" lon="4.73161">
        <ele>183.600006104</ele>
        <time>2015-08-17T14:36:54.04Z</time>
      </trkpt>
      <trkpt lat="45.94471" lon="4.73117">
        <ele>183.199996948</ele>
        <time>2015-08-17T14:36:58.083Z</time>
      </trkpt>
      <trkpt lat="45.94471" lon="4.73085">
        <ele>182.300003052</ele>
        <time>2015-08-17T14:37:01.082Z</time>
      </trkpt>
      <trkpt lat="45.94466" lon="4.73047">
        <ele>181.5</ele>
        <time>2015-08-17T14:37:05.077Z</time>
      </trkpt>
      <trkpt lat="45.94456" lon="4.72996">
        <ele>179.5</ele>
        <time>2015-08-17T14:37:12.034Z</time>
      </trkpt>
      <trkpt lat="45.94444" lon="4.72954">
        <ele>178.800003052</ele>
        <time>2015-08-17T14:37:19.04Z</time>
      </trkpt>
      <trkpt lat="45.94439" lon="4.72886">
        <ele>178.399993896</ele>
        <time>2015-08-17T14:37:30.083Z</time>
      </trkpt>
      <trkpt lat="45.94427" lon="4.72818">
        <ele>178</ele>
        <time>2015-08-17T14:37:39.039Z</time>
      </trkpt>
      <trkpt lat="45.94427" lon="4.7278">
        <ele>177.800003052</ele>
        <time>2015-08-17T14:37:43.04Z</time>
      </trkpt>
      <trkpt lat="45.9442" lon="4.727">
        <ele>178</ele>
        <time>2015-08-17T14:37:51.079Z</time>
      </trkpt>
      <trkpt lat="45.94415" lon="4.72683">
        <ele>178.300003052</ele>
        <time>2015-08-17T14:37:53.038Z</time>
      </trkpt>
      <trkpt lat="45.94414" lon="4.72666">
        <ele>178.399993896</ele>
        <time>2015-08-17T14:37:55.041Z</time>
      </trkpt>
      <trkpt lat="45.94411" lon="4.72657">
        <ele>178.300003052</ele>
        <time>2015-08-17T14:37:56.079Z</time>
      </trkpt>
      <trkpt lat="45.94406" lon="4.72611">
        <ele>178.199996948</ele>
        <time>2015-08-17T14:38:01.04Z</time>
      </trkpt>
      <trkpt lat="45.94398" lon="4.72586">
        <ele>178.300003052</ele>
        <time>2015-08-17T14:38:04.077Z</time>
      </trkpt>
      <trkpt lat="45.94393" lon="4.72551">
        <ele>178.399993896</ele>
        <time>2015-08-17T14:38:08.078Z</time>
      </trkpt>
      <trkpt lat="45.94387" lon="4.72536">
        <ele>178.5</ele>
        <time>2015-08-17T14:38:10.074Z</time>
      </trkpt>
      <trkpt lat="45.94378" lon="4.72503">
        <ele>178.800003052</ele>
        <time>2015-08-17T14:38:14.077Z</time>
      </trkpt>
      <trkpt lat="45.94355" lon="4.72443">
        <ele>179.5</ele>
        <time>2015-08-17T14:38:22.081Z</time>
      </trkpt>
      <trkpt lat="45.94343" lon="4.72422">
        <ele>179.800003052</ele>
        <time>2015-08-17T14:38:25.038Z</time>
      </trkpt>
      <trkpt lat="45.94341" lon="4.72407">
        <ele>180</ele>
        <time>2015-08-17T14:38:27.039Z</time>
      </trkpt>
      <trkpt lat="45.94321" lon="4.72355">
        <ele>180.699996948</ele>
        <time>2015-08-17T14:38:34.131Z</time>
      </trkpt>
      <trkpt lat="45.94311" lon="4.72339">
        <ele>180.600006104</ele>
        <time>2015-08-17T14:38:36.08Z</time>
      </trkpt>
      <trkpt lat="45.94299" lon="4.72293">
        <ele>180.800003052</ele>
        <time>2015-08-17T14:38:42.133Z</time>
      </trkpt>
      <trkpt lat="45.94295" lon="4.72288">
        <ele>180.899993896</ele>
        <time>2015-08-17T14:38:43.083Z</time>
      </trkpt>
      <trkpt lat="45.94276" lon="4.72283">
        <ele>180.100006104</ele>
        <time>2015-08-17T14:38:45.036Z</time>
      </trkpt>
      <trkpt lat="45.94248" lon="4.72288">
        <ele>180.100006104</ele>
        <time>2015-08-17T14:38:50.087Z</time>
      </trkpt>
      <trkpt lat="45.94187" lon="4.72292">
        <ele>178.899993896</ele>
        <time>2015-08-17T14:39:00.156Z</time>
      </trkpt>
      <trkpt lat="45.94141" lon="4.7228">
        <ele>179</ele>
        <time>2015-08-17T14:39:06.072Z</time>
      </trkpt>
      <trkpt lat="45.94116" lon="4.72266">
        <ele>178.699996948</ele>
        <time>2015-08-17T14:39:10.084Z</time>
      </trkpt>
      <trkpt lat="45.94095" lon="4.72262">
        <ele>178.199996948</ele>
        <time>2015-08-17T14:39:13.036Z</time>
      </trkpt>
      <trkpt lat="45.9408" lon="4.72265">
        <ele>177.5</ele>
        <time>2015-08-17T14:39:15.04Z</time>
      </trkpt>
      <trkpt lat="45.94066" lon="4.72275">
        <ele>176.600006104</ele>
        <time>2015-08-17T14:39:17.043Z</time>
      </trkpt>
      <trkpt lat="45.9399" lon="4.72371">
        <ele>175.5</ele>
        <time>2015-08-17T14:39:31.04Z</time>
      </trkpt>
      <trkpt lat="45.93923" lon="4.7245">
        <ele>174.5</ele>
        <time>2015-08-17T14:39:44.087Z</time>
      </trkpt>
      <trkpt lat="45.93903" lon="4.72467">
        <ele>174.5</ele>
        <time>2015-08-17T14:39:48.072Z</time>
      </trkpt>
      <trkpt lat="45.93891" lon="4.72484">
        <ele>174.399993896</ele>
        <time>2015-08-17T14:39:51.04Z</time>
      </trkpt>
      <trkpt lat="45.93872" lon="4.72503">
        <ele>174.399993896</ele>
        <time>2015-08-17T14:39:55.036Z</time>
      </trkpt>
      <trkpt lat="45.93861" lon="4.72508">
        <ele>174.699996948</ele>
        <time>2015-08-17T14:39:57.043Z</time>
      </trkpt>
      <trkpt lat="45.93824" lon="4.72494">
        <ele>174.899993896</ele>
        <time>2015-08-17T14:40:04.076Z</time>
      </trkpt>
      <trkpt lat="45.93817" lon="4.72483">
        <ele>175</ele>
        <time>2015-08-17T14:40:06.074Z</time>
      </trkpt>
      <trkpt lat="45.93795" lon="4.72463">
        <ele>175.399993896</ele>
        <time>2015-08-17T14:40:11.08Z</time>
      </trkpt>
      <trkpt lat="45.93789" lon="4.72446">
        <ele>175.699996948</ele>
        <time>2015-08-17T14:40:15.039Z</time>
      </trkpt>
      <trkpt lat="45.9376" lon="4.72408">
        <ele>176.100006104</ele>
        <time>2015-08-17T14:40:22.051Z</time>
      </trkpt>
      <trkpt lat="45.93729" lon="4.72379">
        <ele>176.399993896</ele>
        <time>2015-08-17T14:40:28.059Z</time>
      </trkpt>
      <trkpt lat="45.93692" lon="4.72353">
        <ele>176.5</ele>
        <time>2015-08-17T14:40:37.079Z</time>
      </trkpt>
      <trkpt lat="45.93676" lon="4.7233">
        <ele>176.699996948</ele>
        <time>2015-08-17T14:40:42.075Z</time>
      </trkpt>
      <trkpt lat="45.93644" lon="4.72296">
        <ele>177</ele>
        <time>2015-08-17T14:40:49.035Z</time>
      </trkpt>
      <trkpt lat="45.93636" lon="4.7228">
        <ele>177.300003052</ele>
        <time>2015-08-17T14:40:53.035Z</time>
      </trkpt>
      <trkpt lat="45.93615" lon="4.72265">
        <ele>177.399993896</ele>
        <time>2015-08-17T14:40:59.038Z</time>
      </trkpt>
      <trkpt lat="45.93605" lon="4.72254">
        <ele>177.5</ele>
        <time>2015-08-17T14:41:01.032Z</time>
      </trkpt>
      <trkpt lat="45.93609" lon="4.72244">
        <ele>177.5</ele>
        <time>2015-08-17T14:41:03.082Z</time>
      </trkpt>
      <trkpt lat="45.93606" lon="4.7222">
        <ele>177.600006104</ele>
        <time>2015-08-17T14:41:06.075Z</time>
      </trkpt>
      <trkpt lat="45.93599" lon="4.72206">
        <ele>177.699996948</ele>
        <time>2015-08-17T14:41:08.04Z</time>
      </trkpt>
      <trkpt lat="45.93579" lon="4.72195">
        <ele>178</ele>
        <time>2015-08-17T14:41:14.038Z</time>
      </trkpt>
      <trkpt lat="45.9356" lon="4.72215">
        <ele>177.800003052</ele>
        <time>2015-08-17T14:41:21.092Z</time>
      </trkpt>
      <trkpt lat="45.93538" lon="4.72264">
        <ele>177.899993896</ele>
        <time>2015-08-17T14:41:29.072Z</time>
      </trkpt>
      <trkpt lat="45.93513" lon="4.72311">
        <ele>177.399993896</ele>
        <time>2015-08-17T14:41:37.127Z</time>
      </trkpt>
      <trkpt lat="45.93446" lon="4.72394">
        <ele>177.199996948</ele>
        <time>2015-08-17T14:41:51.084Z</time>
      </trkpt>
      <trkpt lat="45.93434" lon="4.72403">
        <ele>177.100006104</ele>
        <time>2015-08-17T14:41:53.079Z</time>
      </trkpt>
      <trkpt lat="45.93421" lon="4.72407">
        <ele>177</ele>
        <time>2015-08-17T14:41:55.085Z</time>
      </trkpt>
      <trkpt lat="45.93393" lon="4.72408">
        <ele>176.699996948</ele>
        <time>2015-08-17T14:42:01.04Z</time>
      </trkpt>
      <trkpt lat="45.93389" lon="4.7241">
        <ele>176.600006104</ele>
        <time>2015-08-17T14:42:02.08Z</time>
      </trkpt>
      <trkpt lat="45.93387" lon="4.72432">
        <ele>176.5</ele>
        <time>2015-08-17T14:42:05.08Z</time>
      </trkpt>
      <trkpt lat="45.93389" lon="4.7246">
        <ele>176.300003052</ele>
        <time>2015-08-17T14:42:09.076Z</time>
      </trkpt>
      <trkpt lat="45.93364" lon="4.72502">
        <ele>176.199996948</ele>
        <time>2015-08-17T14:42:16.042Z</time>
      </trkpt>
      <trkpt lat="45.9335" lon="4.72515">
        <ele>176.100006104</ele>
        <time>2015-08-17T14:42:19.082Z</time>
      </trkpt>
      <trkpt lat="45.93316" lon="4.7256">
        <ele>175.800003052</ele>
        <time>2015-08-17T14:42:27.075Z</time>
      </trkpt>
      <trkpt lat="45.93305" lon="4.72567">
        <ele>175.699996948</ele>
        <time>2015-08-17T14:42:29.113Z</time>
      </trkpt>
      <trkpt lat="45.93294" lon="4.72584">
        <ele>175.600006104</ele>
        <time>2015-08-17T14:42:32.042Z</time>
      </trkpt>
      <trkpt lat="45.93256" lon="4.7263">
        <ele>175.300003052</ele>
        <time>2015-08-17T14:42:40.039Z</time>
      </trkpt>
      <trkpt lat="45.93221" lon="4.72659">
        <ele>175.100006104</ele>
        <time>2015-08-17T14:42:46.041Z</time>
      </trkpt>
      <trkpt lat="45.93193" lon="4.72694">
        <ele>174.899993896</ele>
        <time>2015-08-17T14:42:53.075Z</time>
      </trkpt>
      <trkpt lat="45.93151" lon="4.72736">
        <ele>174.5</ele>
        <time>2015-08-17T14:43:01.073Z</time>
      </trkpt>
      <trkpt lat="45.93142" lon="4.7275">
        <ele>174.399993896</ele>
        <time>2015-08-17T14:43:03.103Z</time>
      </trkpt>
      <trkpt lat="45.93104" lon="4.72793">
        <ele>174.300003052</ele>
        <time>2015-08-17T14:43:10.043Z</time>
      </trkpt>
      <trkpt lat="45.93074" lon="4.7282">
        <ele>174.199996948</ele>
        <time>2015-08-17T14:43:15.075Z</time>
      </trkpt>
      <trkpt lat="45.93023" lon="4.72875">
        <ele>173.800003052</ele>
        <time>2015-08-17T14:43:25.072Z</time>
      </trkpt>
      <trkpt lat="45.92994" lon="4.72912">
        <ele>173.600006104</ele>
        <time>2015-08-17T14:43:31.177Z</time>
      </trkpt>
      <trkpt lat="45.92976" lon="4.72925">
        <ele>173.600006104</ele>
        <time>2015-08-17T14:43:34.039Z</time>
      </trkpt>
      <trkpt lat="45.92958" lon="4.72958">
        <ele>173.600006104</ele>
        <time>2015-08-17T14:43:38.04Z</time>
      </trkpt>
      <trkpt lat="45.92895" lon="4.73034">
        <ele>173</ele>
        <time>2015-08-17T14:43:51.084Z</time>
      </trkpt>
      <trkpt lat="45.92872" lon="4.73085">
        <ele>172.5</ele>
        <time>2015-08-17T14:43:58.045Z</time>
      </trkpt>
      <trkpt lat="45.92866" lon="4.73112">
        <ele>172.300003052</ele>
        <time>2015-08-17T14:44:01.081Z</time>
      </trkpt>
      <trkpt lat="45.9285" lon="4.73322">
        <ele>171.300003052</ele>
        <time>2015-08-17T14:44:23.075Z</time>
      </trkpt>
      <trkpt lat="45.92848" lon="4.7333">
        <ele>171.199996948</ele>
        <time>2015-08-17T14:44:24.038Z</time>
      </trkpt>
      <trkpt lat="45.92841" lon="4.73427">
        <ele>170.699996948</ele>
        <time>2015-08-17T14:44:34.04Z</time>
      </trkpt>
      <trkpt lat="45.92837" lon="4.73453">
        <ele>170.399993896</ele>
        <time>2015-08-17T14:44:37.073Z</time>
      </trkpt>
      <trkpt lat="45.92837" lon="4.73479">
        <ele>170.199996948</ele>
        <time>2015-08-17T14:44:40.044Z</time>
      </trkpt>
      <trkpt lat="45.92821" lon="4.73573">
        <ele>169.5</ele>
        <time>2015-08-17T14:44:52.08Z</time>
      </trkpt>
      <trkpt lat="45.92819" lon="4.7361">
        <ele>169.199996948</ele>
        <time>2015-08-17T14:44:57.089Z</time>
      </trkpt>
      <trkpt lat="45.92812" lon="4.73628">
        <ele>168.699996948</ele>
        <time>2015-08-17T14:45:00.041Z</time>
      </trkpt>
      <trkpt lat="45.92799" lon="4.73647">
        <ele>168.199996948</ele>
        <time>2015-08-17T14:45:04.04Z</time>
      </trkpt>
      <trkpt lat="45.92785" lon="4.73716">
        <ele>167.5</ele>
        <time>2015-08-17T14:45:14.043Z</time>
      </trkpt>
      <trkpt lat="45.92777" lon="4.73727">
        <ele>167.199996948</ele>
        <time>2015-08-17T14:45:17.039Z</time>
      </trkpt>
      <trkpt lat="45.92753" lon="4.73728">
        <ele>166.699996948</ele>
        <time>2015-08-17T14:45:23.024Z</time>
      </trkpt>
      <trkpt lat="45.92667" lon="4.73705">
        <ele>164.300003052</ele>
        <time>2015-08-17T14:45:39.076Z</time>
      </trkpt>
      <trkpt lat="45.92655" lon="4.73695">
        <ele>164</ele>
        <time>2015-08-17T14:45:42.026Z</time>
      </trkpt>
      <trkpt lat="45.92641" lon="4.7366">
        <ele>163.600006104</ele>
        <time>2015-08-17T14:45:48.043Z</time>
      </trkpt>
      <trkpt lat="45.92626" lon="4.73643">
        <ele>163.300003052</ele>
        <time>2015-08-17T14:45:51.075Z</time>
      </trkpt>
      <trkpt lat="45.92611" lon="4.73633">
        <ele>162.899993896</ele>
        <time>2015-08-17T14:45:54.039Z</time>
      </trkpt>
      <trkpt lat="45.92594" lon="4.73633">
        <ele>162.399993896</ele>
        <time>2015-08-17T14:45:57.081Z</time>
      </trkpt>
      <trkpt lat="45.92534" lon="4.73647">
        <ele>161.5</ele>
        <time>2015-08-17T14:46:08.086Z</time>
      </trkpt>
      <trkpt lat="45.92506" lon="4.73649">
        <ele>161</ele>
        <time>2015-08-17T14:46:14.038Z</time>
      </trkpt>
      <trkpt lat="45.92472" lon="4.73643">
        <ele>160.300003052</ele>
        <time>2015-08-17T14:46:22.04Z</time>
      </trkpt>
      <trkpt lat="45.92463" lon="4.73667">
        <ele>159.699996948</ele>
        <time>2015-08-17T14:46:28.106Z</time>
      </trkpt>
      <trkpt lat="45.92461" lon="4.73686">
        <ele>159.300003052</ele>
        <time>2015-08-17T14:46:33.039Z</time>
      </trkpt>
      <trkpt lat="45.92464" lon="4.737">
        <ele>158.5</ele>
        <time>2015-08-17T14:46:44.04Z</time>
      </trkpt>
      <trkpt lat="45.92461" lon="4.73709">
        <ele>158.100006104</ele>
        <time>2015-08-17T14:47:08.86Z</time>
      </trkpt>
    </trkseg>
  </trk>
</gpx>